[[{"header":{"parameterUnit":"m.s-1","parameterCategory":1,"la1":30.6,"la2":29.2853,"lo1":-89.7004,"lo2":-87.6739,"dx":0.0162,"dy":0.0183,"nx":112,"ny":82,"refTime":"2022-12-20T06:00:00:Z","depth":0,"parameterNumber":2,"parameterNumberName":"U-component_of_WINDS"},"data":[0.0,0.0,0.0,0.0,0.0,0.0,0.0,0.0,0.0,0.0,0.0,0.0,0.0,0.0,0.0,0.0,0.0,0.0,0.0,0.0,0.0,0.0,0.0,0.0,0.0,0.0,0.0,0.0,0.0,0.0,0.0,0.0,0.0,0.0,0.0,0.0,0.0,0.0,0.0,0.0,0.0,0.0,0.0,0.0,0.0,0.0,0.0,0.0,0.0,0.0,0.0,0.0,0.0,0.0,0.0,0.0,0.0,0.0,0.0,0.0,0.0,0.0,0.0,0.0,0.0,0.0,0.0,0.0,0.0,0.0,0.0,0.0,0.0,0.0,0.0,0.0,0.0,0.0,0.0,0.0,0.0,0.0,0.0,0.0,0.0,0.0,0.0,0.0,0.0,0.0,2.4555,2.4667,2.4797,2.4871,2.4871,2.4874,2.4895,2.4895,0.0,0.0,0.0,0.0,0.0,0.0,0.0,0.0,0.0,0.0,0.0,0.0,0.0,0.0,0.0,0.0,0.0,0.0,0.0,0.0,0.0,0.0,0.0,0.0,0.0,0.0,0.0,0.0,0.0,0.0,0.0,0.0,0.0,0.0,0.0,0.0,0.0,0.0,0.0,0.0,0.0,0.0,0.0,0.0,0.0,0.0,0.0,0.0,0.0,0.0,0.0,0.0,0.0,0.0,0.0,0.0,0.0,0.0,0.0,0.0,0.0,0.0,0.0,0.0,0.0,0.0,0.0,0.0,0.0,0.0,0.0,0.0,0.0,0.0,0.0,0.0,0.0,0.0,0.0,0.0,0.0,0.0,0.0,0.0,0.0,0.0,0.0,0.0,0.0,0.0,0.0,0.0,0.0,0.0,0.0,0.0,0.0,0.0,0.0,0.0,0.0,0.0,0.0,0.0,2.476,2.5448,2.6135,2.6544,2.6544,2.6017,2.5724,2.5724,0.0,0.0,0.0,0.0,0.0,0.0,0.0,0.0,0.0,0.0,0.0,0.0,0.0,0.0,0.0,0.0,0.0,0.0,0.0,0.0,0.0,0.0,0.0,0.0,0.0,0.0,0.0,0.0,0.0,0.0,0.0,0.0,0.0,0.0,0.0,0.0,0.0,0.0,0.0,0.0,0.0,0.0,0.0,0.0,0.0,0.0,0.0,0.0,0.0,0.0,0.0,0.0,0.0,0.0,0.0,0.0,0.0,0.0,0.0,0.0,0.0,0.0,0.0,0.0,0.0,0.0,0.0,0.0,0.0,0.0,0.0,0.0,0.0,0.0,0.0,0.0,0.0,0.0,0.0,0.0,0.0,0.0,0.0,0.0,0.0,0.0,0.0,0.0,0.0,0.0,0.0,0.0,0.0,0.0,0.0,0.0,0.0,0.0,0.0,0.0,0.0,0.0,0.0,2.4908,2.5466,2.6265,2.6693,2.6916,2.6916,2.6278,2.5911,2.5911,2.4993,0.0,0.0,0.0,0.0,0.0,0.0,0.0,0.0,0.0,0.0,0.0,0.0,0.0,0.0,0.0,0.0,0.0,0.0,0.0,0.0,0.0,0.0,0.0,0.0,0.0,0.0,0.0,0.0,0.0,0.0,0.0,0.0,0.0,0.0,0.0,0.0,0.0,0.0,0.0,0.0,0.0,0.0,0.0,0.0,0.0,0.0,0.0,0.0,0.0,0.0,0.0,0.0,0.0,0.0,0.0,0.0,0.0,0.0,0.0,0.0,0.0,0.0,0.0,0.0,0.0,0.0,0.0,0.0,0.0,0.0,0.0,0.0,0.0,0.0,0.0,0.0,0.0,0.0,0.0,0.0,0.0,0.0,0.0,0.0,0.0,0.0,0.0,0.0,0.0,0.0,0.0,0.0,0.0,0.0,0.0,0.0,0.0,0.0,0.0,0.0,0.0,0.0,2.621,2.6823,2.7418,2.7845,2.7994,2.779,2.7157,2.6606,2.6244,2.572,0.0,0.0,0.0,0.0,0.0,0.0,0.0,0.0,0.0,0.0,0.0,0.0,0.0,0.0,0.0,0.0,0.0,0.0,0.0,0.0,0.0,0.0,0.0,0.0,0.0,0.0,0.0,0.0,0.0,0.0,0.0,0.0,0.0,0.0,0.0,0.0,0.0,0.0,0.0,0.0,0.0,0.0,0.0,0.0,0.0,0.0,0.0,0.0,0.0,0.0,0.0,0.0,0.0,0.0,0.0,0.0,0.0,0.0,0.0,0.0,0.0,0.0,0.0,0.0,0.0,0.0,0.0,0.0,0.0,0.0,0.0,0.0,0.0,0.0,0.0,0.0,0.0,0.0,0.0,0.0,0.0,0.0,0.0,0.0,0.0,0.0,0.0,0.0,0.0,0.0,0.0,0.0,0.0,0.0,0.0,0.0,0.0,0.0,0.0,0.0,0.0,0.0,2.7715,2.9165,2.9221,3.0578,3.1132,3.0411,2.9736,2.8724,2.7296,2.6702,0.0,0.0,0.0,0.0,0.0,0.0,0.0,0.0,0.0,0.0,0.0,0.0,0.0,0.0,0.0,0.0,0.0,0.0,0.0,0.0,0.0,0.0,0.0,0.0,0.0,0.0,0.0,0.0,0.0,0.0,0.0,0.0,0.0,0.0,0.0,0.0,0.0,0.0,0.0,0.0,0.0,0.0,0.0,0.0,0.0,0.0,0.0,0.0,0.0,0.0,0.0,0.0,0.0,0.0,0.0,0.0,0.0,0.0,0.0,0.0,0.0,0.0,0.0,0.0,0.0,0.0,0.0,0.0,0.0,0.0,0.0,0.0,0.0,0.0,0.0,0.0,0.0,0.0,0.0,0.0,0.0,0.0,0.0,0.0,0.0,0.0,0.0,0.0,0.0,0.0,0.0,0.0,0.0,0.0,0.0,0.0,0.0,0.0,0.0,0.0,0.0,0.0,2.8496,2.9779,3.0801,3.1429,3.1671,3.1355,3.0278,2.94,2.8898,0.0,0.0,0.0,0.0,0.0,0.0,0.0,0.0,0.0,0.0,0.0,0.0,0.0,0.0,0.0,0.0,0.0,0.0,0.0,0.0,0.0,0.0,0.0,0.0,0.0,0.0,0.0,0.0,0.0,0.0,0.0,0.0,0.0,0.0,0.0,0.0,0.0,0.0,0.0,0.0,0.0,0.0,0.0,0.0,0.0,0.0,0.0,0.0,0.0,0.0,0.0,0.0,0.0,0.0,0.0,0.0,0.0,0.0,0.0,0.0,0.0,0.0,0.0,0.0,0.0,0.0,0.0,0.0,0.0,0.0,0.0,0.0,0.0,0.0,0.0,0.0,0.0,0.0,0.0,0.0,0.0,0.0,0.0,0.0,0.0,0.0,0.0,0.0,0.0,0.0,0.0,0.0,0.0,0.0,0.0,0.0,0.0,0.0,0.0,0.0,0.0,0.0,2.7956,2.9537,3.1061,3.2414,3.285,3.2929,3.265,3.178,3.0866,2.9943,0.0,0.0,0.0,0.0,0.0,0.0,0.0,0.0,0.0,0.0,0.0,0.0,0.0,0.0,0.0,0.0,0.0,0.0,0.0,0.0,0.0,0.0,0.0,0.0,0.0,0.0,0.0,0.0,0.0,0.0,0.0,0.0,0.0,0.0,0.0,0.0,0.0,0.0,0.0,0.0,0.0,0.0,0.0,0.0,0.0,0.0,0.0,0.0,0.0,0.0,0.0,0.0,0.0,0.0,0.0,0.0,0.0,0.0,0.0,0.0,0.0,0.0,0.0,0.0,0.0,0.0,0.0,0.0,0.0,0.0,0.0,0.0,0.0,0.0,0.0,0.0,0.0,0.0,0.0,0.0,0.0,0.0,0.0,0.0,0.0,0.0,0.0,0.0,0.0,0.0,0.0,0.0,0.0,0.0,0.0,0.0,0.0,0.0,0.0,0.0,0.0,0.0,2.8123,3.0984,3.3324,3.4141,3.5123,3.5362,3.4498,3.4663,3.3469,0.0,0.0,0.0,0.0,0.0,0.0,0.0,0.0,0.0,0.0,0.0,0.0,0.0,0.0,0.0,0.0,0.0,0.0,0.0,0.0,0.0,0.0,0.0,0.0,0.0,0.0,0.0,0.0,0.0,0.0,0.0,0.0,0.0,0.0,0.0,0.0,0.0,0.0,0.0,0.0,0.0,0.0,0.0,0.0,0.0,0.0,0.0,0.0,0.0,0.0,0.0,0.0,0.0,0.0,0.0,0.0,0.0,0.0,0.0,0.0,0.0,0.0,0.0,0.0,0.0,0.0,0.0,0.0,0.0,0.0,0.0,0.0,0.0,0.0,0.0,0.0,0.0,0.0,0.0,0.0,0.0,0.0,0.0,0.0,0.0,0.0,0.0,0.0,0.0,0.0,0.0,0.0,0.0,0.0,0.0,0.0,0.0,0.0,0.0,0.0,0.0,0.0,0.0,3.0463,3.2544,3.4383,3.5813,3.6317,3.6446,3.6184,3.5321,3.4453,3.3672,0.0,0.0,0.0,0.0,0.0,0.0,0.0,0.0,0.0,0.0,0.0,0.0,0.0,0.0,0.0,0.0,0.0,0.0,0.0,0.0,0.0,0.0,0.0,0.0,0.0,0.0,0.0,0.0,0.0,0.0,0.0,0.0,0.0,0.0,0.0,0.0,0.0,0.0,0.0,0.0,0.0,0.0,0.0,0.0,0.0,0.0,0.0,0.0,0.0,0.0,0.0,0.0,0.0,0.0,0.0,0.0,0.0,0.0,0.0,0.0,0.0,0.0,0.0,0.0,0.0,0.0,0.0,0.0,0.0,0.0,0.0,0.0,0.0,0.0,0.0,0.0,0.0,0.0,0.0,0.0,0.0,0.0,0.0,0.0,0.0,0.0,0.0,0.0,0.0,0.0,0.0,0.0,0.0,0.0,0.0,0.0,0.0,0.0,0.0,0.0,0.0,0.0,3.2042,3.3974,3.5857,3.759,3.7904,3.7984,3.8013,3.7341,3.6407,3.5181,0.0,0.0,0.0,0.0,0.0,0.0,0.0,0.0,0.0,0.0,0.0,0.0,0.0,0.0,0.0,0.0,0.0,0.0,0.0,0.0,0.0,0.0,0.0,0.0,0.0,0.0,0.0,0.0,0.0,0.0,0.0,0.0,0.0,0.0,0.0,0.0,0.0,0.0,0.0,0.0,0.0,0.0,0.0,0.0,0.0,0.0,0.0,0.0,0.0,0.0,0.0,0.0,0.0,0.0,0.0,0.0,0.0,0.0,0.0,0.0,0.0,0.0,0.0,0.0,0.0,0.0,0.0,0.0,0.0,0.0,0.0,0.0,0.0,0.0,0.0,0.0,0.0,0.0,0.0,0.0,0.0,0.0,0.0,0.0,0.0,0.0,0.0,0.0,0.0,0.0,0.0,0.0,0.0,0.0,0.0,0.0,0.0,0.0,0.0,0.0,0.0,0.0,3.3213,3.5442,3.762,3.9436,3.9752,3.9857,3.9939,4.011,3.888,3.5791,0.0,0.0,0.0,0.0,0.0,0.0,0.0,0.0,0.0,0.0,0.0,0.0,0.0,0.0,0.0,0.0,0.0,0.0,0.0,0.0,0.0,0.0,0.0,0.0,0.0,0.0,0.0,0.0,0.0,0.0,0.0,0.0,0.0,0.0,0.0,0.0,0.0,0.0,0.0,0.0,0.0,0.0,0.0,0.0,0.0,0.0,0.0,0.0,0.0,0.0,0.0,0.0,0.0,0.0,0.0,0.0,0.0,0.0,0.0,0.0,2.7224,2.5434,0.0,0.0,0.0,0.0,0.0,0.0,0.0,0.0,0.0,0.0,0.0,0.0,0.0,0.0,0.0,0.0,0.0,0.0,0.0,0.0,0.0,0.0,0.0,0.0,0.0,0.0,0.0,0.0,0.0,0.0,0.0,0.0,0.0,0.0,0.0,0.0,0.0,0.0,0.0,0.0,3.5627,3.7466,3.9268,4.1072,4.1394,4.155,4.1674,4.123,4.0458,3.9275,3.7198,0.0,0.0,0.0,0.0,0.0,0.0,0.0,0.0,0.0,0.0,0.0,0.0,0.0,0.0,0.0,0.0,0.0,0.0,0.0,0.0,0.0,0.0,0.0,0.0,0.0,0.0,0.0,0.0,0.0,0.0,0.0,0.0,0.0,0.0,0.0,0.0,0.0,0.0,0.0,0.0,0.0,0.0,0.0,0.0,0.0,0.0,0.0,0.0,0.0,0.0,0.0,0.0,0.0,0.0,0.0,0.0,0.0,0.0,0.0,2.9244,2.7716,0.0,0.0,0.0,0.0,0.0,0.0,0.0,0.0,0.0,0.0,0.0,0.0,0.0,0.0,0.0,0.0,0.0,0.0,0.0,0.0,0.0,0.0,0.0,0.0,0.0,0.0,0.0,0.0,0.0,0.0,0.0,0.0,0.0,0.0,0.0,0.0,0.0,0.0,0.0,0.0,3.7634,3.9287,4.0859,4.2379,4.2592,4.2697,4.2899,4.2667,4.2022,4.0902,3.9303,0.0,0.0,0.0,0.0,0.0,0.0,0.0,0.0,0.0,0.0,0.0,0.0,0.0,0.0,0.0,0.0,0.0,0.0,0.0,0.0,0.0,0.0,0.0,0.0,0.0,0.0,0.0,0.0,0.0,0.0,0.0,0.0,0.0,0.0,0.0,0.0,0.0,0.0,0.0,0.0,0.0,0.0,0.0,0.0,0.0,0.0,0.0,0.0,0.0,0.0,0.0,0.0,0.0,3.2154,3.2474,3.2512,3.3383,3.3759,3.3643,3.1545,3.0288,2.9669,2.8954,0.0,0.0,0.0,0.0,0.0,0.0,0.0,0.0,0.0,0.0,0.0,0.0,0.0,0.0,0.0,0.0,0.0,0.0,0.0,0.0,0.0,0.0,3.1487,3.1487,3.1487,3.112,2.9824,0.0,0.0,0.0,0.0,0.0,0.0,0.0,0.0,0.0,0.0,0.0,3.9435,4.0866,4.2247,4.3398,4.3501,4.3608,4.3886,4.4034,4.3476,4.1972,4.1291,3.9914,0.0,0.0,0.0,0.0,0.0,0.0,0.0,0.0,0.0,0.0,0.0,0.0,0.0,0.0,0.0,0.0,0.0,0.0,0.0,0.0,0.0,0.0,0.0,0.0,0.0,0.0,0.0,0.0,0.0,0.0,0.0,0.0,2.0745,2.0955,0.0,0.0,0.0,0.0,0.0,0.0,0.0,0.0,0.0,0.0,0.0,0.0,0.0,3.0503,3.1749,3.2199,3.3249,3.4867,3.5079,3.5182,3.5201,3.6033,3.64,3.6381,3.6033,0.0,3.1468,3.1352,0.0,0.0,0.0,0.0,0.0,0.0,0.0,0.0,0.0,0.0,0.0,0.0,0.0,0.0,0.0,0.0,0.0,0.0,0.0,0.0,0.0,0.0,3.5027,3.5027,3.5027,3.5162,3.5626,3.3488,3.1661,3.2309,3.2942,3.3353,0.0,0.0,0.0,0.0,0.0,0.0,4.1192,4.2073,4.3066,4.4224,4.4346,4.4455,4.4719,4.4909,4.4664,4.381,4.3109,4.2005,4.0352,3.8496,0.0,0.0,0.0,0.0,0.0,0.0,0.0,0.0,0.0,0.0,0.0,0.0,0.0,0.0,0.0,0.0,0.0,0.0,0.0,0.0,0.0,0.0,0.0,0.0,0.0,0.0,0.0,0.0,0.0,2.1321,2.2449,2.3378,2.3828,2.4607,0.0,0.0,0.0,0.0,0.0,0.0,0.0,0.0,0.0,3.1719,3.2743,3.4108,3.5766,3.5854,3.6735,3.8485,3.8542,3.8566,3.8586,3.8934,3.9088,3.9088,3.9088,3.8237,3.6709,3.4775,3.3789,3.346,0.0,0.0,0.0,0.0,3.346,3.346,3.346,3.346,3.346,3.346,0.0,0.0,0.0,0.0,0.0,0.0,0.0,3.6168,3.7038,3.7909,3.8566,3.8566,3.8566,3.8779,3.9591,3.8593,3.7197,3.6023,3.6748,3.7373,3.6814,3.8109,0.0,0.0,0.0,4.2106,4.2835,4.3744,4.4715,4.5744,4.5951,4.6108,4.6272,4.5954,4.5703,4.5515,4.4363,4.3214,4.226,4.0094,3.7773,0.0,0.0,0.0,0.0,0.0,0.0,0.0,0.0,0.0,0.0,0.0,0.0,0.0,0.0,0.0,0.0,0.0,0.0,0.0,0.0,0.0,0.0,0.0,0.0,0.0,0.0,0.0,0.0,2.3037,2.4227,2.5891,2.614,2.6768,0.0,0.0,0.0,0.0,0.0,0.0,3.166,3.3146,3.4102,3.4391,3.5935,3.7478,3.8941,3.9003,3.9802,4.1349,4.1376,4.1403,4.1429,4.1429,4.1429,4.1429,4.1429,4.1429,4.1216,3.8218,3.7,3.7,3.7,3.7,3.7,3.7,3.7,3.7,3.7,3.7,3.7,3.7,3.7,3.7,3.7,0.0,0.0,0.0,0.0,3.9379,4.0249,4.0945,4.1429,4.1429,4.1429,4.1661,4.2492,4.2821,4.2234,3.9755,4.0277,4.0833,3.9986,4.0805,0.0,4.1738,4.2744,4.3788,4.4525,4.5301,4.6053,4.6851,4.7071,4.7229,4.7397,4.6898,4.6686,4.6914,4.5611,4.4545,4.3949,4.1912,3.9881,3.7947,0.0,0.0,0.0,0.0,0.0,0.0,0.0,0.0,0.0,0.0,0.0,0.0,0.0,0.0,0.0,0.0,0.0,0.0,0.0,0.0,0.0,0.0,0.0,0.0,0.0,0.0,0.0,0.0,0.0,2.8328,2.8537,0.0,0.0,0.0,0.0,3.2343,3.3146,3.4289,3.5889,3.6749,3.7564,3.8379,3.9252,4.0144,4.1035,4.1185,4.1762,4.2809,4.2912,4.3057,4.3169,4.3169,4.3169,4.3169,4.3169,4.3169,4.3034,4.1274,4.0539,4.0539,4.0539,4.0539,4.0539,4.0539,4.0539,4.0539,4.0539,4.0539,4.0539,4.0539,4.0539,4.0539,4.0539,4.0539,0.0,0.0,4.1777,4.2009,4.2879,4.315,4.3169,4.3169,4.3169,4.3421,4.4291,4.5065,4.5104,4.3349,4.2884,4.2698,4.247,0.0,4.3514,4.3959,4.4789,4.5606,4.6304,4.6401,4.6568,4.6963,4.6993,4.7137,4.7371,4.7533,4.7681,4.7835,4.7164,4.6436,4.5703,4.4813,4.3169,4.0655,3.9669,0.0,0.0,0.0,0.0,0.0,0.0,0.0,0.0,0.0,0.0,0.0,0.0,0.0,0.0,0.0,0.0,0.0,0.0,0.0,0.0,0.0,0.0,0.0,0.0,0.0,0.0,0.0,0.0,2.9464,3.0548,0.0,3.2516,3.3786,3.4897,3.5753,3.652,3.7451,3.8552,3.9467,4.0176,4.054,4.1342,4.2221,4.3196,4.3251,4.3726,4.4643,4.4774,4.5158,4.5742,4.5742,4.6051,4.6573,4.6573,4.6573,4.6535,4.5935,4.4388,4.2415,4.2415,4.2415,4.2415,4.2415,4.2415,4.2415,4.2415,4.2415,4.2415,4.2415,4.2415,4.2415,4.2415,4.2415,4.2589,4.344,4.4059,4.4639,4.551,4.6167,4.6573,4.6573,4.6573,4.667,4.698,4.727,4.7289,4.6709,4.6331,4.6031,4.5757,4.5722,4.5772,4.581,4.6004,4.6597,4.7868,4.8155,4.873,5.0022,5.0353,5.0561,5.0793,5.0474,5.0097,4.9721,4.8949,4.8208,4.7502,4.6109,4.4949,4.404,4.2106,4.0404,0.0,0.0,0.0,0.0,0.0,0.0,0.0,0.0,0.0,0.0,0.0,0.0,0.0,0.0,0.0,0.0,0.0,0.0,0.0,0.0,0.0,0.0,0.0,0.0,0.0,2.8958,3.0453,3.1575,3.2963,3.4291,3.5537,3.6537,3.7585,3.8727,3.9273,3.9892,4.0707,4.1651,4.2214,4.2316,4.3099,4.396,4.494,4.494,4.5419,4.6374,4.6461,4.6866,4.754,4.754,4.785,4.8392,4.8392,4.8392,4.8392,4.8392,4.7057,4.5026,4.5026,4.5026,4.5026,4.5026,4.5026,4.5026,4.5026,4.5026,4.5026,4.5026,4.5026,4.5026,4.5026,4.5026,4.5142,4.5722,4.6264,4.6806,4.7386,4.8198,4.8836,4.8836,4.9049,4.9243,4.9243,4.9475,4.9687,4.9687,4.8771,4.8009,4.798,4.7685,4.7596,4.796,4.7849,4.8237,4.9645,4.9915,5.0525,5.1933,5.2276,5.2525,5.2785,5.264,5.2276,5.1587,5.1009,5.0252,4.9281,4.7869,4.698,4.667,4.4446,4.2589,4.1197,0.0,0.0,0.0,0.0,0.0,0.0,0.0,0.0,0.0,0.0,0.0,0.0,0.0,0.0,0.0,0.0,0.0,0.0,0.0,0.0,0.0,0.0,0.0,3.016,3.1507,3.3107,3.4775,3.5761,3.6955,3.8624,3.8814,3.9494,4.1162,4.1275,4.1635,4.245,4.3303,4.3777,4.3777,4.4554,4.5388,4.6247,4.6266,4.6801,4.7893,4.7931,4.8125,4.8469,4.8508,4.8527,4.8566,4.8566,4.8566,4.8566,4.8566,4.8566,4.8546,4.843,4.8392,4.8392,4.8392,4.8392,4.8392,4.8392,4.8392,4.8392,4.843,4.843,4.845,4.8469,4.8488,4.8488,4.8488,4.8508,4.8527,4.8527,4.9165,4.9823,4.9823,5.0422,5.0983,5.0983,5.1679,5.2279,5.2279,5.019,4.8604,4.9143,4.8819,4.8985,5.0435,5.0359,0.0,5.1551,5.1697,5.1912,5.2503,5.2558,5.2736,5.3127,5.392,5.4084,5.334,5.3263,5.2567,5.1045,5.021,4.9359,4.8469,4.6748,4.4639,4.2164,0.0,0.0,0.0,0.0,0.0,0.0,0.0,0.0,0.0,0.0,0.0,0.0,0.0,0.0,0.0,0.0,0.0,0.0,0.0,0.0,0.0,3.2594,3.3107,3.1929,3.3182,3.4832,3.65,3.7997,3.9347,4.0535,4.1095,4.187,4.3066,4.3069,4.336,4.4175,4.5047,4.5575,4.5658,4.6334,4.6939,4.7442,4.7346,4.7487,4.7912,4.8485,4.922,5.0081,5.0678,5.1368,5.2105,5.2105,5.2105,5.2105,5.2105,5.2105,5.1854,4.9378,4.8392,4.8392,4.8392,4.8392,4.8392,4.8392,4.8392,4.8508,4.9146,4.9339,4.9455,5.0035,5.021,5.021,5.021,5.0674,5.1157,5.1157,5.1796,5.2453,5.2453,5.2627,5.2782,5.2782,5.3478,5.4097,5.4097,5.3947,5.3434,5.208,5.1466,5.1242,5.1506,5.1255,5.1619,5.3213,5.34,5.409,5.5844,5.6158,5.6416,5.6799,5.6618,5.6116,5.5283,5.4684,5.3889,5.284,5.197,5.0828,4.9378,4.8256,4.7038,0.0,0.0,0.0,0.0,0.0,0.0,0.0,0.0,0.0,0.0,0.0,0.0,0.0,0.0,0.0,0.0,0.0,0.0,0.0,0.0,0.0,0.0,3.4851,3.5855,3.559,3.6386,3.7485,3.8831,4.0157,4.1317,4.2262,4.2705,4.3483,4.4772,4.4773,4.5103,4.5899,4.643,4.6776,4.6946,4.7329,4.8014,4.8966,4.892,4.9264,5.004,5.0498,5.1081,5.1761,5.2223,5.2837,5.3498,5.3498,5.3498,5.3498,5.3498,5.3498,5.3304,0.0,0.0,0.0,0.0,5.0538,5.0538,5.0538,5.0538,5.0616,5.1138,5.1293,5.1389,5.1854,5.1989,5.1989,5.1989,5.2627,5.3285,5.3285,5.4194,5.5084,5.5084,5.5374,5.5644,5.5644,5.6031,5.6379,5.6379,5.6766,0.0,5.5458,5.4536,5.4022,5.4254,5.3954,5.4089,5.5203,5.535,5.5894,5.7376,5.7726,5.7958,5.8269,5.8336,0.0,0.0,0.0,5.6225,5.4619,5.3382,0.0,0.0,0.0,4.9397,4.8198,4.7676,0.0,0.0,4.1951,4.1506,0.0,0.0,0.0,0.0,0.0,0.0,0.0,0.0,0.0,0.0,0.0,0.0,0.0,0.0,0.0,0.0,3.6708,3.83,4.0081,4.0347,4.0631,4.1389,4.2109,4.2886,4.3758,4.3929,4.4592,4.6089,4.6278,4.6639,4.7359,4.7517,0.0,0.0,0.0,4.8987,5.0728,5.0768,5.1516,5.2992,5.3066,5.3193,5.334,5.3436,5.3609,5.3788,5.3884,5.3923,5.3942,5.402,5.4078,5.4039,5.3652,5.3498,5.3498,5.3498,5.3498,5.3498,5.3498,0.0,0.0,5.3749,5.3846,5.3942,5.4039,5.4078,5.4078,5.4078,5.4619,5.5238,5.5238,5.6341,5.7462,5.7462,5.8043,5.8604,5.8604,5.8681,5.8739,5.8739,5.8816,5.8856,5.88,5.7562,5.6824,5.7527,5.7258,5.7043,5.7267,5.7319,5.7497,5.8014,5.8209,0.0,5.8599,5.9399,5.9571,5.8797,5.9377,5.87,5.6399,5.4677,5.342,5.2627,5.2434,5.1602,5.0132,5.0035,4.9571,4.8778,4.6225,4.5452,0.0,0.0,0.0,0.0,0.0,0.0,0.0,0.0,0.0,0.0,0.0,0.0,0.0,0.0,0.0,3.8472,3.921,4.0252,4.264,4.2981,4.3038,4.3208,4.336,4.3777,4.4592,4.5293,4.5843,4.6184,4.679,4.7245,4.7378,4.8156,4.889,4.9466,5.0436,5.1369,5.2259,5.2283,5.2528,5.3012,5.3503,0.0,5.4285,5.4978,5.5364,5.5567,5.6263,5.6573,5.6631,5.7327,5.7598,5.7327,5.4581,5.3498,5.3498,5.3498,5.3498,5.3498,5.3498,5.3962,5.4658,5.5316,5.5993,5.6708,5.7404,5.7598,0.0,5.7598,5.7733,5.7869,5.7869,5.8101,5.8352,5.8352,5.8468,5.8604,5.8604,5.9145,5.9648,5.9648,6.017,6.0615,6.0596,5.8984,5.7738,5.7895,5.7633,5.7691,5.852,5.8616,5.9041,6.0099,6.0246,6.0335,6.0539,6.0152,5.9822,5.9648,5.9145,5.8623,5.812,5.6437,5.5451,5.5277,5.3942,5.3091,5.2763,5.2066,5.1621,5.1389,4.8856,4.814,0.0,0.0,0.0,0.0,0.0,0.0,0.0,0.0,0.0,0.0,0.0,3.3757,3.4893,0.0,3.8099,3.9667,4.0972,4.2261,4.3531,4.4042,4.4308,4.4308,4.4687,4.5103,4.5501,4.6297,4.698,4.7416,4.7897,4.8517,4.9359,4.9968,5.0696,5.1519,5.2066,5.2743,5.3587,5.3606,5.3817,5.4258,5.466,5.5176,5.5768,5.6191,5.6734,5.7327,5.7753,5.7946,5.7985,5.841,5.8604,5.843,5.6708,5.6051,5.6051,5.6051,5.6051,5.6051,5.6051,5.6341,5.6766,5.7172,5.7598,5.8023,5.8468,5.8604,5.8604,5.8604,5.8913,5.9242,5.9242,5.9551,5.9841,5.9841,5.9841,5.9841,5.9841,6.019,6.0499,6.0499,6.0828,6.1099,6.1099,6.0248,5.9526,5.9435,5.9179,5.9182,5.9695,5.9733,5.9984,6.0594,6.0727,6.0836,6.0942,6.0674,6.0499,6.0499,5.9706,5.9242,5.9242,5.8004,5.7308,5.7308,5.6476,5.5838,5.5393,5.4967,5.4523,5.4078,5.2801,5.1757,0.0,0.0,0.0,0.0,0.0,0.0,0.0,3.1418,3.2733,3.355,3.4966,3.6249,3.699,3.8861,4.0382,4.0615,4.2356,4.3758,4.391,4.4649,4.5141,4.5141,4.5767,4.6259,4.6411,4.7169,4.8003,4.8856,4.9182,5.0005,5.151,5.1782,5.2321,5.3255,5.3289,5.3733,5.4643,5.4706,5.5088,5.5781,5.5955,5.6481,5.7312,5.7312,5.7777,5.8604,5.8778,5.8932,5.9087,5.9087,5.9087,5.9087,5.9087,5.9087,5.9048,5.872,5.8604,5.8604,5.8604,5.87,5.8855,5.8855,5.8952,5.9087,5.9087,5.9087,5.9087,5.9087,5.959,6.0132,6.0132,6.0615,6.1099,6.1099,6.1099,6.1099,6.1099,6.1099,6.1099,6.1099,6.1099,6.1099,6.1099,6.1099,6.1041,6.088,6.0727,6.0608,6.0608,6.0608,6.0608,6.0608,6.075,6.0858,6.0858,6.1002,6.1099,6.1099,6.0499,6.0132,6.0132,5.93,5.8855,5.8855,5.8681,5.8255,5.7559,5.7559,5.7192,5.6515,5.6515,5.5316,2.7995,2.8567,2.9515,3.1004,3.1449,3.1932,0.0,3.4582,3.5477,3.6222,3.7598,3.8889,3.9547,4.0456,4.1563,4.3038,4.3512,4.3947,4.4668,4.5501,4.6051,4.6051,4.6146,4.6468,4.7188,4.8041,4.8875,4.969,5.0513,5.1328,5.2238,5.2494,5.2901,5.3613,5.4104,5.4597,5.5129,5.5484,5.6056,5.6825,5.6865,5.7409,5.8411,5.8411,5.8489,5.8642,5.9416,6.0151,6.0828,6.0828,6.0828,6.0828,6.0828,6.0828,6.0634,5.9145,5.8604,5.8604,5.8604,5.9106,5.9745,5.9745,6.0248,6.0828,6.0828,6.0828,6.0828,6.0828,6.0886,6.0963,6.0963,6.1041,6.1099,6.1099,6.1099,6.1099,6.1099,6.1099,6.1099,6.1099,6.1099,6.1099,6.1099,6.1099,6.1099,6.108,6.1061,6.1022,6.1022,6.1022,6.1022,6.1022,6.1041,6.108,6.108,6.108,6.1099,6.1099,6.1021,6.0963,6.0963,6.019,5.9745,5.9745,5.899,5.8546,5.8449,5.8449,5.8391,5.8314,5.8314,5.7733,3.0965,3.1236,3.1797,3.3015,3.3692,3.4389,3.5588,3.6482,3.745,3.8833,3.9423,4.01,4.1475,4.225,4.2886,4.3587,4.4099,4.4687,4.5539,4.5975,4.6563,4.7529,4.7643,4.7776,4.8117,4.9367,5.0296,5.0637,5.1524,5.2422,5.3221,5.3442,5.3986,5.4877,5.5032,5.5231,5.5551,5.6186,5.6673,5.7,5.7622,5.8433,5.9358,5.9358,5.9609,6.0074,6.0441,6.0789,6.1099,6.1099,6.1099,6.1099,6.1099,6.1099,6.1021,6.0306,6.0054,6.0054,6.0054,6.0286,6.0596,6.0596,6.0828,6.1099,6.1099,6.1099,6.1099,6.1099,6.1099,6.1099,6.1099,6.1099,6.1099,6.1099,6.1099,6.1099,6.1099,6.1099,6.1099,6.1099,6.1099,6.1099,6.1099,6.1099,6.1099,6.1099,6.1099,6.1099,6.1099,6.1099,6.1099,6.1099,6.1099,6.1099,6.1099,6.1099,6.1099,6.1099,6.1099,6.1099,6.1099,6.0789,6.0596,6.0596,6.0248,6.0054,6.0054,6.0054,6.0054,6.0054,6.0054,5.9861,3.4098,3.4146,3.4369,3.522,3.5916,3.6671,3.7735,3.8402,3.9303,4.1107,4.1338,4.1628,4.304,4.3685,4.4066,4.4094,4.4749,4.5483,4.6108,4.6601,4.734,4.8553,4.8894,4.9121,4.9367,5.0486,5.1395,5.185,5.2558,5.3331,5.4131,5.4371,5.4829,5.5599,5.5807,5.5967,5.6133,5.7004,5.7564,5.7814,5.8606,5.9416,6.0228,6.0228,6.0557,6.1099,6.1099,6.1099,6.1099,6.1099,6.1099,6.1099,6.1099,6.1099,6.1099,6.1099,6.1099,6.1099,6.1099,6.1099,6.1099,6.1099,6.1099,6.1099,6.1099,6.1099,6.1099,6.1099,6.1099,6.1099,6.1099,6.1099,6.1099,6.1099,6.1099,6.1099,6.1099,6.1099,6.1099,6.1099,6.1099,6.1099,6.1099,6.1099,6.1099,6.1099,6.1099,6.1099,6.1099,6.1099,6.1099,6.1099,6.1099,6.1099,6.1099,6.1099,6.1099,6.1099,6.1099,6.1099,6.1099,6.1099,6.1099,6.1099,6.1099,6.1099,6.1099,6.1099,6.1099,6.1099,6.1099,6.1099,3.6574,3.6787,3.7,3.787,3.8102,3.8566,4.0288,4.0694,4.1197,4.2879,4.3635,4.4037,4.4218,4.4588,4.4948,4.5132,4.5718,4.6165,4.6203,4.7586,4.8628,4.8685,4.9386,5.0201,5.1054,5.1187,5.1869,5.3499,5.365,5.401,5.4825,5.5056,5.5191,5.521,5.6345,5.6962,5.6962,5.8027,5.899,5.9822,5.9841,6.0286,6.106,6.106,6.1079,6.1099,6.1099,6.1099,6.1099,6.1099,6.1099,6.1099,6.1099,6.1099,6.1099,6.1099,6.1099,6.1099,6.1099,6.1099,6.1099,6.1099,6.1099,6.1099,6.1099,6.1099,6.1099,6.1099,6.1099,6.1099,6.1099,6.1099,6.1099,6.1099,6.1099,6.1099,6.1099,6.1099,6.1099,6.1099,6.1099,6.1099,6.1099,6.1099,6.1099,6.1099,6.1099,6.1099,6.1099,6.1099,6.1099,6.1099,6.1099,6.1099,6.1099,6.1099,6.1099,6.1099,6.1099,6.1099,6.1099,6.1099,6.1099,6.1099,6.1099,6.1099,6.1099,6.1099,6.1099,6.1099,6.1099,6.1099,3.7696,3.7754,3.7967,3.8837,3.9495,4.021,4.1332,4.2048,4.2783,4.3924,4.4199,4.4412,4.504,4.5131,4.5125,4.5192,4.5756,4.6392,4.6923,4.7965,4.8894,4.9424,5.0239,5.1092,5.1926,5.2002,5.2475,5.3613,5.4325,5.4808,5.5075,5.5288,5.571,5.6364,5.6804,5.7351,5.8047,5.8992,5.9609,5.9899,6.0441,6.0847,6.1099,6.1099,6.1099,6.1099,6.1099,6.1099,6.1099,6.1099,6.1099,6.1099,6.1099,6.1099,6.1099,6.1099,6.1099,6.1099,6.1099,6.1099,6.1099,6.1099,6.1099,6.1099,6.1099,6.1099,6.1099,6.1099,6.1099,6.1099,6.1099,6.1099,6.1099,6.1099,6.1099,6.1099,6.1099,6.1099,6.1099,6.1099,6.1099,6.1099,6.1099,6.1099,6.1099,6.1099,6.1099,6.1099,6.1099,6.1099,6.1099,6.1099,6.1099,6.1099,6.1099,6.1099,6.1099,6.1099,6.1099,6.1099,6.1099,6.1099,6.1099,6.1099,6.1099,6.1099,6.1099,6.1099,6.1099,6.1099,6.1099,6.1099,3.9127,3.934,3.9688,4.0249,4.1042,4.1912,4.2744,4.3363,4.402,4.4852,4.4886,4.4958,4.5565,4.54,4.5213,4.5258,4.6031,4.6809,4.7321,4.8401,4.9311,4.9822,5.0675,5.1528,5.2324,5.275,5.329,5.4164,5.4817,5.5236,5.5288,5.5772,5.6335,5.6981,5.7659,5.8375,5.9048,5.9899,6.0325,6.0344,6.0847,6.1099,6.1099,6.1099,6.1099,6.1099,6.1099,6.1099,6.1099,6.1099,6.1099,6.1099,6.1099,6.1099,6.1099,6.1099,6.1099,6.1099,6.1099,6.1099,6.1099,6.1099,6.1099,6.1099,6.1099,6.1099,6.1099,6.1099,6.1099,6.1099,6.1099,6.1099,6.1099,6.1099,6.1099,6.1099,6.1099,6.1099,6.1099,6.1099,6.1099,6.1099,6.1099,6.1369,6.1563,6.1563,6.1834,6.1795,6.1176,6.1099,6.1099,6.1099,6.1099,6.1099,6.1099,6.1099,6.1099,6.1099,6.1099,6.1099,6.1099,6.1099,6.1099,6.1099,6.1099,6.1099,6.1099,6.1099,6.1099,6.1099,6.1099,6.1099,4.079,4.139,4.2009,4.2009,4.2686,4.3576,4.4407,4.4639,4.4891,4.5645,4.5692,4.5645,4.5786,4.5475,4.5258,4.54,4.6542,4.7422,4.7422,4.8863,4.9898,4.9898,5.0713,5.1566,5.2324,5.3362,5.4332,5.5179,5.5236,5.5314,5.5504,5.6453,5.704,5.7079,5.8897,5.9919,5.9957,6.0712,6.1099,6.1099,6.1099,6.1099,6.1099,6.1099,6.1099,6.1099,6.1099,6.1099,6.1099,6.1099,6.1099,6.1099,6.1099,6.1099,6.1099,6.1099,6.1099,6.1099,6.1099,6.1099,6.1099,6.1099,6.1099,6.1099,6.1099,6.1099,6.1099,6.1099,6.1099,6.1099,6.1099,6.1099,6.1099,6.1099,6.1099,6.1099,6.1099,6.1099,6.1118,6.1157,6.1195,6.1234,6.1234,6.193,6.2472,6.2472,6.3168,6.3091,6.1447,6.1234,6.1234,6.1234,6.1234,6.1234,6.1234,6.1195,6.1176,6.1176,6.1118,6.1099,6.1099,6.1099,6.1099,6.1099,6.1099,6.1099,6.1099,6.1099,6.1118,6.1176,6.1176,6.1195,4.079,4.139,4.2009,4.2009,4.315,4.433,4.4562,4.5065,4.5548,4.5761,4.5766,4.5752,4.58,4.5629,4.551,4.5545,4.6717,4.7619,4.7619,4.8941,4.9898,4.9898,5.1206,5.2228,5.2589,5.3994,5.5065,5.5599,5.564,5.5662,5.5724,5.6696,5.7524,5.8162,5.9301,6.019,6.0789,6.1002,6.1099,6.1099,6.1099,6.1099,6.1099,6.1099,6.1099,6.1099,6.1099,6.1099,6.1099,6.1099,6.1099,6.1099,6.1099,6.1099,6.1099,6.1099,6.1099,6.1099,6.1099,6.1099,6.1099,6.1099,6.1099,6.1099,6.1099,6.1099,6.1099,6.1099,6.1099,6.1099,6.1099,6.1099,6.1099,6.1099,6.1099,6.1099,6.1099,6.1099,6.1292,6.195,6.2588,6.3033,6.3033,6.3207,6.3362,6.3362,6.3555,6.3536,6.3091,6.3033,6.3033,6.3033,6.3033,6.3033,6.3033,6.2433,6.2066,6.2066,6.1466,6.1099,6.1099,6.1099,6.1099,6.1099,6.1099,6.1099,6.1099,6.1099,6.1427,6.2066,6.2066,6.2414,4.079,4.1661,4.257,4.257,4.3866,4.5123,4.5123,4.5471,4.5703,4.5355,4.5548,4.5684,4.5336,4.5461,4.5596,4.5596,4.6453,4.727,4.7652,4.8663,4.9481,4.9841,5.1376,5.2456,5.2574,5.4237,5.5389,5.5527,5.5684,5.6,5.6425,5.7369,5.8275,5.9145,5.9996,6.0634,6.1099,6.1099,6.1099,6.1099,6.1099,6.1099,6.1099,6.1099,6.1099,6.1099,6.1099,6.1099,6.1099,6.1099,6.1099,6.1099,6.1099,6.1099,6.1099,6.1099,6.1099,6.1099,6.1099,6.1099,6.1099,6.1099,6.1099,6.1099,6.1099,6.1099,6.1099,6.1099,6.1099,6.1099,6.1099,6.1099,6.1099,6.1099,6.1099,6.1195,6.1601,6.1679,6.193,6.2801,6.3362,6.369,6.369,6.4019,6.4271,6.4271,6.4561,6.4793,6.4793,6.4155,6.369,6.369,6.369,6.369,6.369,6.3245,6.2975,6.2975,6.2511,6.224,6.224,6.224,6.224,6.224,6.224,6.224,6.224,6.224,6.2491,6.2975,6.2975,6.3226,4.0752,4.1932,4.3131,4.3117,4.4277,4.5452,4.5457,4.5471,4.5258,4.4581,4.4987,4.5258,4.4562,4.4982,4.5423,4.5423,4.5955,4.6698,4.7575,4.8289,4.9041,4.983,5.1404,5.2428,5.2428,5.4263,5.5408,5.5288,5.5692,5.6329,5.7214,5.8218,5.9165,6.0035,6.0731,6.1099,6.1099,6.1099,6.1099,6.1099,6.1099,6.1099,6.1099,6.1099,6.1099,6.1099,6.1099,6.1099,6.1099,6.1099,6.1099,6.1099,6.1099,6.1099,6.1099,6.1099,6.1099,6.1099,6.1099,6.1099,6.1099,6.1099,6.1099,6.1099,6.1099,6.1099,6.1099,6.1099,6.1099,6.1099,6.1099,6.1099,6.1137,6.1253,6.1273,6.1505,6.2375,6.2665,6.2975,6.3729,6.3961,6.4019,6.4019,6.4657,6.516,6.516,6.574,6.6205,6.6205,6.4928,6.4019,6.4019,6.4019,6.4019,6.4019,6.3922,6.3864,6.3864,6.3748,6.369,6.369,6.369,6.369,6.369,6.369,6.369,6.369,6.369,6.3748,6.3864,6.3864,6.3922,4.0565,4.1506,4.2195,4.2092,4.2908,4.3703,4.3593,4.3656,4.3692,4.3556,4.3634,4.3692,4.3556,4.4075,4.452,4.452,4.5591,4.6698,4.7575,4.8372,4.9118,4.9811,5.1521,5.2653,5.2634,5.4237,5.5364,5.5662,5.6382,5.6867,5.7041,5.8722,6.0054,6.0867,6.1041,6.1099,6.1099,6.1099,6.1099,6.1099,6.1099,6.1099,6.1099,6.1099,6.1099,6.1099,6.1099,6.1099,6.1099,6.1099,6.1099,6.1099,6.1099,6.1099,6.1099,6.1099,6.1099,6.1099,6.1099,6.1099,6.1099,6.1099,6.1099,6.1099,6.1099,6.1099,6.1099,6.1099,6.1099,6.1099,6.1099,6.1099,6.1273,6.2008,6.2182,6.2414,6.3284,6.4038,6.458,6.4754,6.5315,6.576,6.576,6.5895,6.5992,6.5992,6.6108,6.6205,6.6205,6.5953,6.576,6.576,6.576,6.576,6.576,6.516,6.4773,6.4773,6.4097,6.369,6.369,6.369,6.369,6.369,6.369,6.369,6.369,6.369,6.4058,6.4773,6.4773,6.5122,4.0303,4.1147,4.1786,4.1703,4.239,4.3057,4.3008,4.306,4.2973,4.2609,4.2874,4.3048,4.2604,4.3158,4.3789,4.4128,4.4709,4.5707,4.7461,4.8033,4.8667,4.9754,5.1547,5.2653,5.2547,5.4158,5.5255,5.5333,5.679,5.7716,5.7815,5.9534,6.0692,6.1099,6.1099,6.1099,6.1099,6.1099,6.1099,6.1099,6.1099,6.1099,6.1099,6.1099,6.1099,6.1099,6.1099,6.1099,6.1099,6.1099,6.1099,6.1099,6.1099,6.1099,6.1099,6.1099,6.1099,6.1099,6.1099,6.1099,6.1099,6.1099,6.1099,6.1099,6.1099,6.1099,6.1099,6.1099,6.1099,6.1099,6.1099,6.1447,6.1892,6.2298,6.3091,6.3864,6.429,6.5025,6.5624,6.5624,6.5934,6.6205,6.6205,6.6205,6.6205,6.6205,6.6205,6.6205,6.6205,6.6205,6.6205,6.6205,6.6205,6.6205,6.6205,6.5857,6.5624,6.5624,6.5218,6.5006,6.5006,6.5006,6.5006,6.5006,6.5006,6.5006,6.5006,6.5006,6.5218,6.5624,6.5624,6.5837,3.9802,4.0682,4.1297,4.1299,4.1815,4.2293,4.2085,4.2064,4.1867,4.1151,4.1528,4.1797,4.1108,4.1825,4.2646,4.3158,4.3595,4.469,4.7048,4.7552,4.8253,4.9717,5.1547,5.2627,5.24,5.4068,5.5094,5.5028,5.7086,5.8587,5.9106,6.0383,6.1099,6.1099,6.1099,6.1099,6.1099,6.1099,6.1099,6.1099,6.1099,6.1099,6.1099,6.1099,6.1099,6.1099,6.1099,6.1099,6.1099,6.1099,6.1099,6.1099,6.1099,6.1099,6.1099,6.1099,6.1099,6.1099,6.1099,6.1099,6.1099,6.1099,6.1099,6.1099,6.1099,6.1099,6.1099,6.1099,6.1099,6.1137,6.1331,6.1892,6.2491,6.2878,6.4135,6.5257,6.5257,6.574,6.6205,6.6205,6.6205,6.6205,6.6205,6.6205,6.6205,6.6205,6.6205,6.6205,6.6205,6.6205,6.6205,6.6205,6.6205,6.6205,6.6205,6.6205,6.6205,6.6205,6.6205,6.6205,6.6205,6.6205,6.6205,6.6205,6.6205,6.6205,6.6205,6.6205,6.6205,6.6205,6.6205,6.6205,3.8942,3.9799,4.0398,4.0272,4.0385,4.0321,3.9451,3.9369,3.9237,3.8493,3.8406,3.8444,3.8367,3.9557,4.0535,4.0482,4.23,4.4332,4.6076,4.712,4.8253,4.9717,5.1547,5.2627,5.24,5.3945,5.5085,5.5432,5.7388,5.9224,6.0789,6.1021,6.1099,6.1099,6.1099,6.1099,6.1099,6.1099,6.1099,6.1099,6.1099,6.1099,6.1099,6.1099,6.1099,6.1099,6.1099,6.1099,6.1099,6.1099,6.1099,6.1099,6.1099,6.1099,6.1099,6.1099,6.1099,6.1099,6.1099,6.1099,6.1099,6.1099,6.1099,6.1099,6.1099,6.1099,6.1099,6.1099,6.1099,6.1273,6.2085,6.2336,6.2801,6.4387,6.5431,6.6089,6.6089,6.6147,6.6205,6.6205,6.6205,6.6205,6.6205,6.6205,6.6205,6.6205,6.6205,6.6205,6.6205,6.6205,6.6205,6.6205,6.6205,6.6205,6.6205,6.6205,6.6205,6.6205,6.6205,6.6205,6.6205,6.6205,6.6205,6.6205,6.6205,6.6205,6.6205,6.6205,6.6205,6.6205,6.6205,6.6205,3.848,3.909,3.9432,3.9865,3.9659,3.9242,3.8859,3.8423,3.8021,3.78,3.782,3.7836,3.7773,3.8752,3.9677,3.9924,4.1642,4.3512,4.5179,4.6735,4.8081,4.9053,5.0786,5.2056,5.2362,5.348,5.4914,5.6683,5.7588,5.8892,6.0824,6.1022,6.1099,6.1099,6.1099,6.1099,6.1099,6.1099,6.1099,6.1099,6.1099,6.1099,6.1099,6.1099,6.1099,6.1099,6.1099,6.1099,6.1099,6.1099,6.1099,6.1099,6.1099,6.1099,6.1099,6.1099,6.1099,6.1099,6.1099,6.1099,6.1099,6.1099,6.1099,6.1099,6.1099,6.1099,6.1099,6.1099,6.1099,6.1311,6.2182,6.3187,6.4251,6.5431,6.5973,6.6205,6.6205,6.6205,6.6205,6.6205,6.6205,6.6205,6.6205,6.6205,6.6205,6.6205,6.6205,6.6205,6.6205,6.6205,6.6205,6.6205,6.6205,6.6205,6.6205,6.6205,6.6205,6.6205,6.6205,6.6205,6.6205,6.6205,6.6205,6.6205,6.6205,6.6205,6.6205,6.6205,6.6205,6.6205,6.6205,6.6205,3.7637,3.813,3.8452,3.902,3.8736,3.8243,3.7997,3.7277,3.6615,3.6536,3.6583,3.6616,3.6514,3.7483,3.8477,3.9081,4.0783,4.264,4.4308,4.6307,4.7895,4.8617,5.0468,5.1882,5.2343,5.3462,5.5104,5.7444,5.7791,5.87,6.0608,6.0962,6.1099,6.1099,6.1099,6.1099,6.1099,6.1099,6.1099,6.1099,6.1099,6.1099,6.1099,6.1099,6.1099,6.1099,6.1099,6.1099,6.1099,6.1099,6.1099,6.1099,6.1099,6.1099,6.1099,6.1099,6.1099,6.1099,6.1099,6.1099,6.1099,6.1099,6.1099,6.1099,6.1099,6.1099,6.1099,6.1099,6.1292,6.1698,6.2569,6.3884,6.5199,6.6011,6.6205,6.6205,6.6205,6.6205,6.6205,6.6205,6.6205,6.6205,6.6205,6.6205,6.6205,6.6205,6.6205,6.6205,6.6205,6.6205,6.6205,6.6205,6.6205,6.6205,6.6205,6.6205,6.6205,6.6205,6.6205,6.6205,6.6205,6.6205,6.6205,6.6205,6.6205,6.6205,6.6205,6.6205,6.6205,6.6205,6.6205,6.6205,3.6196,3.6803,3.7409,3.7409,3.7409,3.7201,3.6405,3.5552,3.4737,3.4061,3.3941,3.3941,3.3941,3.5295,3.6652,3.7336,3.957,4.1806,4.3474,4.5843,4.7719,4.859,5.0884,5.24,5.24,5.4077,5.5807,5.7301,5.7972,5.8934,6.0412,6.088,6.1099,6.1099,6.1099,6.1099,6.1099,6.1099,6.1099,6.1099,6.1099,6.1099,6.1099,6.1099,6.1099,6.1099,6.1099,6.1099,6.1099,6.1099,6.1099,6.1099,6.1099,6.1099,6.1099,6.1099,6.1099,6.1099,6.1099,6.1099,6.1099,6.1099,6.1099,6.1099,6.1099,6.1099,6.1099,6.1099,6.1718,6.2588,6.3458,6.4329,6.5199,6.6011,6.6205,6.6205,6.6205,6.6205,6.6205,6.6205,6.6205,6.6205,6.6205,6.6205,6.6205,6.6205,6.6205,6.6205,6.6205,6.6205,6.6205,6.6205,6.6205,6.6205,6.6205,6.6205,6.6205,6.6205,6.6205,6.6205,6.6205,6.6205,6.6205,6.6205,6.6205,6.6205,6.6205,6.6205,6.6205,6.6205,6.6205,6.6205,3.5612,3.6123,3.6443,3.7046,3.6745,3.6104,3.5294,3.4486,3.3734,3.2958,3.3384,3.387,3.3785,3.5663,3.7262,3.7373,4.0006,4.2223,4.2754,4.5464,4.7491,4.7776,5.0523,5.2627,5.3233,5.4847,5.6318,5.7308,5.8128,5.9139,6.0425,6.0633,6.0814,6.1099,6.1099,6.1099,6.1099,6.1099,6.1099,6.1099,6.1099,6.1099,6.1099,6.1099,6.1099,6.1099,6.1099,6.1099,6.1099,6.1099,6.1099,6.1099,6.1099,6.1099,6.1099,6.1099,6.1099,6.1099,6.1099,6.1099,6.1099,6.1099,6.1099,6.1099,6.1099,6.1099,6.1099,6.1099,6.1737,6.2472,6.2743,6.3903,6.5064,6.5315,6.5799,6.6205,6.6205,6.6205,6.6205,6.6205,6.6205,6.6205,6.6205,6.6205,6.6205,6.6205,6.6205,6.6205,6.6205,6.6205,6.6205,6.6205,6.6205,6.6205,6.6205,6.6205,6.6205,6.6205,6.6205,6.6205,6.6205,6.6205,6.6205,6.6205,6.6205,6.6205,6.6205,6.6205,6.6205,6.6205,6.6205,6.6205,3.4358,3.4886,3.5093,3.5957,3.575,3.5224,3.4717,3.3989,3.3295,3.2787,3.3223,3.3657,3.3564,3.5438,3.7185,3.7728,4.0135,4.228,4.3208,4.5672,4.787,4.914,5.113,5.2873,5.4048,5.5394,5.6531,5.7327,5.8273,5.9272,6.0338,6.0456,6.0657,6.0982,6.1061,6.1099,6.1099,6.1099,6.1099,6.1099,6.1099,6.1099,6.1099,6.1099,6.1099,6.1099,6.1099,6.1099,0.0,6.1099,6.1099,6.1099,6.1099,6.1099,6.1099,6.1099,6.1099,6.1099,6.1099,6.1099,6.1099,6.1099,6.1099,6.1099,6.1099,6.1099,6.1099,6.1099,6.1485,6.1988,6.2317,6.3207,6.4174,6.4831,6.5373,6.5837,6.6127,6.6205,6.6205,6.6205,6.6205,6.6205,6.6205,6.6205,6.6205,6.6205,6.6205,6.6205,6.6205,6.6205,6.6205,6.6205,6.6205,6.6205,6.6205,6.6205,6.6205,6.6205,6.6205,6.6205,6.6205,6.6205,6.6205,6.6205,6.6205,6.6205,6.6205,6.6205,6.6205,6.6205,6.6205,6.6205,0.0,3.3193,3.3494,3.428,3.4486,3.4486,3.4486,3.3867,0.0,3.3229,3.3266,3.3304,3.34,3.4877,3.664,3.8342,4.011,4.2128,4.4554,4.6392,4.8704,5.2021,5.24,5.3063,5.475,5.5735,5.6588,5.7346,5.8413,5.9398,6.017,6.0403,6.0608,6.0795,6.1002,6.1099,6.1099,6.1099,6.1099,6.1099,6.1099,6.1099,6.1099,6.1099,6.1099,6.1099,6.1099,6.1099,6.1099,6.1099,6.1099,6.1099,6.1099,6.1099,6.1099,6.1099,6.1099,6.1099,6.1099,6.1099,6.1099,6.1099,6.1099,6.1099,6.1099,6.1099,6.1099,6.1099,6.1099,6.1292,6.2104,6.2356,6.282,6.4425,6.4909,6.5199,6.5953,6.6166,6.6205,6.6205,6.6205,6.6205,6.6205,6.6205,6.6205,6.6205,6.6205,6.6205,6.6205,6.6205,6.6205,6.6205,6.6205,6.6205,6.6205,6.6205,6.6205,6.6205,6.6205,6.6205,6.6205,6.6205,6.6205,6.6205,6.6205,6.6205,6.6205,6.6205,6.6205,6.6205,6.6205,6.6205,2.999,0.0,3.2356,3.3175,3.338,3.338,0.0,3.3299,3.3044,3.243,3.2849,3.3552,3.4293,3.5845,3.7548,3.9299,4.1007,4.2773,4.4649,4.6923,4.9386,5.2077,5.24,5.3063,5.475,5.6247,5.7194,5.7384,5.8831,5.9889,6.0384,6.0482,6.0657,6.1022,6.108,6.1099,6.1099,6.1099,6.1099,6.1099,6.1099,6.1099,6.1099,6.1099,6.1099,6.1099,6.1099,6.1099,6.1099,6.1099,6.1099,6.1099,6.1099,6.1099,6.1099,6.1099,6.1099,6.1099,6.1099,6.1099,6.1099,6.1099,6.1099,6.1099,6.1099,6.1099,6.1099,6.1099,6.1099,6.1157,6.135,6.1911,6.2511,6.2917,6.4019,6.5044,6.5238,6.576,6.6205,6.6205,6.6205,6.6205,6.6205,6.6205,6.6205,6.6205,6.6205,6.6205,6.6205,6.6205,6.6205,6.6205,6.6205,6.6205,6.6205,6.6205,6.6205,6.6205,6.6205,6.6205,6.6205,6.6205,6.6205,6.6205,6.6205,6.6205,6.6205,6.6205,6.6205,6.6205,6.6205,6.6205,2.8477,3.0002,3.1522,3.2692,3.299,3.3101,3.3473,3.3613,3.3548,3.3101,3.3687,3.4487,3.509,3.6923,3.8822,4.0182,4.2158,4.427,4.6354,4.8496,5.0486,5.221,5.276,5.3499,5.4787,5.6417,5.7403,5.7403,5.8938,5.9994,6.0198,6.0227,6.0403,6.0795,6.0817,6.0901,6.1099,6.1099,6.1099,6.1099,6.1099,6.1099,6.1099,6.1099,6.1099,6.1099,6.1099,6.1099,6.1099,6.1099,6.1099,6.1099,6.1099,6.1099,6.1099,6.1099,6.1099,6.1099,6.1099,6.1099,6.1099,6.1099,6.1099,6.1099,6.1099,6.1099,6.1099,6.1099,6.1099,6.1099,6.1099,6.1447,6.1911,6.2298,6.3129,6.4019,6.4831,6.5334,6.576,6.6127,6.6205,6.6205,6.6205,6.6205,6.6205,6.6205,6.6205,6.6205,6.6205,6.6205,6.6205,6.6205,6.6205,6.6205,6.6205,6.6205,6.6205,6.6205,6.6205,6.6205,6.6205,6.6205,6.6205,6.6205,6.6205,6.6205,6.6205,6.6205,6.6205,6.6205,6.6205,6.6205,2.7529,2.924,3.0968,3.2451,3.2804,3.3045,3.3993,3.429,3.4401,3.4401,3.507,3.5789,3.6222,3.8102,4.0008,4.1208,4.3596,4.607,4.8363,5.0144,5.1509,5.2305,5.3177,5.4029,5.4825,5.6417,5.7403,5.7403,5.8938,5.9918,5.9931,5.995,6.0129,6.0533,6.0559,6.0727,6.1099,6.1099,6.1099,6.1099,6.1099,6.1099,6.1099,6.1099,6.1099,6.1099,6.1099,6.1099,6.1099,6.1099,6.1099,6.1099,6.1099,6.1099,6.1099,6.1099,6.1099,6.1099,6.1099,6.1099,6.1099,6.1099,6.1099,6.1099,6.1099,6.1099,6.1099,6.1099,6.1099,6.1099,6.1099,6.1099,6.1292,6.2027,6.2298,6.2801,6.4271,6.4812,6.5199,6.5876,6.6127,6.6205,6.6205,6.6205,6.6205,6.6205,6.6205,6.6205,6.6205,6.6205,6.6205,6.6205,6.6205,6.6205,6.6205,6.6205,6.6205,6.6205,6.6205,6.6205,6.6205,6.6205,6.6205,6.6205,6.6205,6.6205,6.6205,6.6205,6.6205,6.6205,6.6205,6.6205,2.6989,2.8812,3.0838,3.1745,3.1968,3.2358,3.3863,3.4773,3.5293,3.5293,3.5943,3.7031,3.8702,3.9333,4.0408,4.2872,4.5388,4.7397,4.8534,5.0144,5.1509,5.2305,5.3177,5.4029,5.4825,5.6417,5.7403,5.7403,5.8938,5.9963,6.014,6.014,6.0349,6.0727,6.075,6.0858,6.1099,6.1099,6.1099,6.1099,6.1099,6.1099,6.1099,6.1099,6.1099,6.1099,6.1099,6.1099,6.1099,6.1099,6.1099,6.1099,6.1099,6.1099,6.1099,6.1099,6.1099,6.1099,6.1099,6.1099,6.1099,6.1099,6.1099,6.1099,6.1099,6.1099,6.1099,6.1099,6.1099,6.1099,6.1099,6.1099,6.1137,6.1273,6.1872,6.2472,6.2743,6.3961,6.5044,6.516,6.5721,6.6205,6.6205,6.6205,6.6205,6.6205,6.6205,6.6205,6.6205,6.6205,6.6205,6.6205,6.6205,6.6205,6.6205,6.6205,6.6205,6.6205,6.6205,6.6205,6.6205,6.6205,6.6205,6.6205,6.6205,6.6205,6.6205,6.6205,6.6205,6.6205,6.6205,6.6205,2.6729,2.8403,3.0262,3.1485,3.2451,3.3398,3.4624,3.5535,3.6147,3.6147,3.721,3.8458,3.9421,4.0741,4.2599,4.5268,4.7036,4.8382,4.9216,5.0789,5.2002,5.2362,5.3556,5.4674,5.5527,5.6683,5.7592,5.8066,5.9203,5.995,6.0038,6.0038,6.0227,6.0633,6.0633,6.0792,6.1099,6.1099,6.1099,6.1099,6.1099,6.1099,6.1099,6.1099,6.1099,6.1099,6.1099,6.1099,6.1099,6.1099,6.1099,6.1099,6.1099,6.1099,6.1099,6.1099,6.1099,6.1099,6.1099,6.1099,6.1099,6.1099,6.1099,6.1099,6.1099,6.1099,6.1099,6.1099,6.1099,6.1099,6.1099,6.1099,6.1099,6.1099,6.1408,6.1834,6.2298,6.3033,6.3864,6.4812,6.5296,6.5682,6.6127,6.6205,6.6205,6.6205,6.6205,6.6205,6.6205,6.6205,6.6205,6.6205,6.6205,6.6205,6.6205,6.6205,6.6205,6.6205,6.6205,6.6205,6.6205,6.6205,6.6205,6.6205,6.6205,6.6205,6.6205,6.6205,6.6205,6.6205,6.6205,6.6205,2.7039,2.866,3.0355,3.1949,3.3287,3.442,3.5293,3.6408,3.7262,3.7262,3.8697,4.0068,4.0403,4.2473,4.4928,4.7321,4.8249,4.9045,5.005,5.1471,5.2494,5.2684,5.401,5.5242,5.6114,5.6929,5.7763,5.8616,5.9449,5.9885,5.9885,5.9885,6.0068,6.0482,6.0508,6.0681,6.1099,6.1099,6.1099,6.1099,6.1099,6.1099,6.1099,6.1099,6.1099,6.1099,6.1099,6.1099,6.1099,6.1099,6.1099,6.1099,6.1099,6.1099,6.1099,6.1099,6.1099,6.1099,6.1099,6.1099,6.1099,6.1099,6.1099,6.1099,6.1099,6.1099,6.1099,6.1099,6.1099,6.1099,6.1099,6.1099,6.1099,6.1099,6.1099,6.1273,6.195,6.2259,6.2801,6.4135,6.4715,6.5199,6.5799,6.6069,6.6205,6.6205,6.6205,6.6205,6.6205,6.6205,6.6205,6.6205,6.6205,6.6205,6.6205,6.6205,6.6205,6.6205,6.6205,6.6205,6.6205,6.6205,6.6205,6.6205,6.6205,6.6205,6.6205,6.6205,6.6205,6.6205,6.6205,6.6205,2.8437,3.0261,3.2005,3.3621,3.4104,3.442,3.5293,3.7281,3.8934,3.8934,4.0374,4.1912,4.2854,4.4662,4.6582,4.8306,4.8647,4.9254,5.0884,5.185,5.2703,5.3518,5.4371,5.5242,5.6114,5.6929,5.7763,5.8616,5.9449,5.9885,5.9885,5.9885,6.0068,6.0482,6.0508,6.0681,6.1099,6.1099,6.1099,6.1099,6.1099,6.1099,6.1099,6.1099,6.1099,6.1099,6.1099,6.1099,6.1099,6.1099,6.1099,6.1099,6.1099,6.1099,6.1099,6.1099,6.1099,6.1099,6.1099,6.1099,6.1099,6.1099,6.1099,6.1099,6.1099,6.1099,6.1099,6.1099,6.1099,6.1099,6.1099,6.1099,6.1099,6.1099,6.1099,6.1118,6.1176,6.1834,6.2453,6.2569,6.3884,6.5006,6.5083,6.5702,6.6205,6.6205,6.6205,6.6205,6.6205,6.6205,6.6205,6.6205,6.6205,6.6205,6.6205,6.6205,6.6205,6.6205,6.6205,6.6205,6.6205,6.6205,6.6205,6.6205,6.6205,6.6205,6.6205,6.6205,6.6205,6.6205,6.6205,6.6205,2.8517,3.0337,3.2014,3.3764,3.5349,3.6723,3.7541,3.8859,4.0048,4.055,4.166,4.3025,4.4624,4.629,4.773,4.8564,4.9484,5.0317,5.1083,5.2362,5.3328,5.3669,5.4408,5.5451,5.6815,5.7213,5.7971,5.9336,5.9715,5.9885,5.9885,5.9885,6.0068,6.0482,6.0508,6.0681,6.1099,6.1099,6.1099,6.1099,6.1099,6.1099,6.1099,6.1099,6.1099,6.1099,6.1099,6.1099,6.1099,6.1099,6.1099,6.1099,6.1099,6.1099,6.1099,6.1099,6.1099,6.1099,6.1099,6.1099,6.1099,6.1099,6.1099,6.1099,6.1099,6.1099,6.1099,6.1099,6.1099,6.1099,6.1099,6.1099,6.1099,6.1099,6.1099,6.1099,6.1099,6.1369,6.1756,6.2298,6.2936,6.3729,6.4812,6.5238,6.5624,6.6127,6.6205,6.6205,6.6205,6.6205,6.6205,6.6205,6.6205,6.6205,6.6205,6.6205,6.6205,6.6205,6.6205,6.6205,6.6205,6.6205,6.6205,6.6205,6.6205,6.6205,6.6205,6.6205,6.6205,6.6205,6.6205,6.6205,2.9163,3.0886,3.2458,3.4488,3.6649,3.8562,3.964,4.055,4.1311,4.1869,4.2976,4.4411,4.6281,4.7589,4.8513,4.8945,5.0128,5.113,5.1519,5.2798,5.3783,5.4048,5.4806,5.5868,5.7251,5.7649,5.8388,5.9791,5.9885,5.9885,5.9885,5.9885,6.0068,6.0482,6.0508,6.0681,6.1099,6.1099,6.1099,6.1099,6.1099,6.1099,6.1099,6.1099,6.1099,6.1099,6.1099,6.1099,6.1099,6.1099,6.1099,6.1099,6.1099,6.1099,6.1099,6.1099,6.1099,6.1099,6.1099,6.1099,6.1099,6.1099,6.1099,6.1099,6.1099,6.1099,6.1099,6.1099,6.1099,6.1099,6.1099,6.1099,6.1099,6.1099,6.1099,6.1099,6.1099,6.1099,6.1273,6.1872,6.222,6.2781,6.3961,6.4638,6.518,6.574,6.6031,6.6205,6.6205,6.6205,6.6205,6.6205,6.6205,6.6205,6.6205,6.6205,6.6205,6.6205,6.6205,6.6205,6.6205,6.6205,6.6205,6.6205,6.6205,6.6205,6.6205,6.6205,6.6205,6.6205,6.6205,6.6205,3.0599,3.2218,3.3584,3.6073,3.7912,3.9547,4.1219,4.2222,4.2816,4.2835,4.4371,4.6242,4.7883,4.8494,4.8916,4.9608,5.0544,5.1509,5.2305,5.3158,5.401,5.4806,5.5678,5.6512,5.7308,5.818,5.9014,5.9828,5.9885,5.9885,5.9885,5.9885,6.0068,6.0482,6.0508,6.0681,6.1099,6.1099,6.1099,6.1099,6.1099,6.1099,6.1099,6.1099,6.1099,6.1099,6.1099,6.1099,6.1099,6.1099,6.1099,6.1099,6.1099,6.1099,6.1099,6.1099,6.1099,6.1099,6.1099,6.1099,6.1099,6.1099,6.1099,6.1099,6.1099,6.1099,6.1099,6.1099,6.1099,6.1099,6.1099,6.1099,6.1099,6.1099,6.1099,6.1099,6.1099,6.1099,6.1099,6.1099,6.1795,6.2394,6.2394,6.3826,6.4967,6.4986,6.5682,6.6185,6.6205,6.6205,6.6205,6.6205,6.6205,6.6205,6.6205,6.6205,6.6205,6.6205,6.6205,6.6205,6.6205,6.6205,6.6205,6.6205,6.6205,6.6205,6.6205,6.6205,6.6205,6.6205,6.6205,6.6205,3.0387,3.2029,3.342,3.6029,3.8358,4.029,4.1349,4.2649,4.3986,4.5157,4.6299,4.7303,4.7935,4.859,4.937,5.038,5.1318,5.2227,5.3167,5.4029,5.4636,5.4863,5.5678,5.6512,5.7308,5.818,5.9014,5.9828,5.9885,5.9885,5.9885,5.9885,6.0068,6.0482,6.0508,6.0681,6.1099,6.1099,6.1099,6.1099,6.1099,6.1099,6.1099,6.1099,6.1099,6.1099,6.1099,6.1099,6.1099,6.1099,6.1099,6.1099,6.1099,6.1099,6.1099,6.1099,6.1099,6.1099,6.1099,6.1099,6.1099,6.1099,6.1099,6.1099,6.1099,6.1099,6.1099,6.1099,6.1099,6.1099,6.1099,6.1099,6.1099,6.1099,6.1099,6.1099,6.1099,6.1099,6.1099,6.1099,6.1311,6.1679,6.2298,6.2839,6.3594,6.4812,6.5199,6.5566,6.6127,6.6205,6.6205,6.6205,6.6205,6.6205,6.6205,6.6205,6.6205,6.6205,6.6205,6.6205,6.6205,6.6205,6.6205,6.6205,6.6205,6.6205,6.6205,6.6205,6.6205,6.6205,6.6205,6.6205,3.0509,3.2342,3.3852,3.6122,3.8804,4.1256,4.2723,4.3819,4.4896,4.6234,4.721,4.7961,4.8394,4.9233,5.0103,5.0775,5.196,5.3013,5.3602,5.4389,5.4901,5.4901,5.5943,5.6872,5.7346,5.8464,5.9374,5.9847,5.9885,5.9885,5.9885,5.9963,6.0169,6.0482,6.0584,6.0773,6.1099,6.1099,6.1099,6.1099,6.1099,6.1099,6.1099,6.1099,6.1099,6.1099,6.1099,6.1099,6.1099,6.1099,6.1099,6.1099,6.1099,6.1099,6.1099,6.1099,6.1099,6.1099,6.1099,6.1099,6.1099,6.1099,6.1099,6.1099,6.1099,6.1099,6.1099,6.1099,6.1099,6.1099,6.1099,6.1099,6.1099,6.1099,6.1099,6.1099,6.1099,6.1099,6.1099,6.1099,6.1099,6.1273,6.1795,6.2182,6.2762,6.3806,6.4561,6.5296,6.6108,6.6205,6.6205,6.6205,6.6205,6.6205,6.6205,6.6205,6.6205,6.6205,6.6205,6.6205,6.6205,6.6205,6.6205,6.6205,6.6205,6.6205,6.6205,6.6205,6.6205,6.6205,6.6205,6.6205,3.0847,3.2971,3.4587,3.6278,3.9157,4.224,4.4729,4.5361,4.5639,4.6438,4.7388,4.8338,4.9141,5.0147,5.0937,5.1088,5.2548,5.3726,5.3802,5.4446,5.4939,5.5015,5.6436,5.7422,5.7516,5.8957,5.9885,5.9885,5.9885,5.9885,5.9885,6.0099,6.0293,6.0482,6.0704,6.0901,6.1099,6.1099,6.1099,6.1099,6.1099,6.1099,6.1099,6.1099,6.1099,6.1099,6.1099,6.1099,6.1099,6.1099,6.1099,6.1099,6.1099,6.1099,6.1099,6.1099,6.1099,6.1099,6.1099,6.1099,6.1099,6.1099,6.1099,6.1099,6.1099,6.1099,6.1099,6.1099,6.1099,6.1099,6.1099,6.1099,6.1099,6.1099,6.1099,6.1099,6.1099,6.1099,6.1099,6.1099,6.1099,6.1099,6.1099,6.1756,6.2336,6.2491,6.3922,6.5296,6.6108,6.6205,6.6205,6.6205,6.6205,6.6205,6.6205,6.6205,6.6205,6.6205,6.6205,6.6205,6.6205,6.6205,6.6205,6.6205,6.6205,6.6205,6.6205,6.6205,6.6205,6.6205,6.6205,6.6205,3.0711,3.2858,3.4587,3.6278,3.9157,4.224,4.4729,4.5788,4.6475,4.7274,4.8125,4.8959,4.9777,5.038,5.1168,5.2427,5.3244,5.3916,5.456,5.4787,5.5148,5.5849,5.6796,5.7668,5.835,5.9317,5.9885,5.9885,5.9885,5.9885,5.9885,6.0099,6.0293,6.0482,6.0704,6.0901,6.1099,6.1099,6.1099,6.1099,6.1099,6.1099,6.1099,6.1099,6.1099,6.1099,6.1099,6.1099,6.1099,6.1099,6.1099,6.1099,6.1099,6.1099,6.1099,6.1099,6.1099,6.1099,6.1099,6.1099,6.1099,6.1099,6.1099,6.1099,6.1099,6.1099,6.1099,6.1099,6.1099,6.1099,6.1099,6.1099,6.1099,6.1099,6.1099,6.1099,6.1099,6.1099,6.1099,6.1099,6.1099,6.1099,6.1099,6.1253,6.1834,6.3207,6.4309,6.5296,6.6108,6.6205,6.6205,6.6205,6.6205,6.6205,6.6205,6.6205,6.6205,6.6205,6.6205,6.6205,6.6205,6.6205,6.6205,6.6205,6.6205,6.6205,6.6205,6.6205,6.6205,6.6205,6.6205,6.6205,3.0276,3.2585,3.4977,3.8228,4.0327,4.2129,4.4209,4.5621,4.6624,4.7033,4.8073,4.9185,5.0073,5.0811,5.17,5.3037,5.3823,5.4427,5.4844,5.4901,5.5223,5.6095,5.691,5.7744,5.8616,5.943,5.9885,5.9885,5.9885,5.995,6.0038,6.0208,6.043,6.0633,6.0836,6.1002,6.1099,6.1099,6.1099,6.1099,6.1099,6.1099,6.1099,6.1099,6.1099,6.1099,6.1099,6.1099,6.1099,6.1099,6.1099,6.1099,6.1099,6.1099,6.1099,6.1099,6.1099,6.1099,6.1099,6.1099,6.1099,6.1099,6.1099,6.1099,6.1099,6.1099,6.1099,6.1099,6.1099,6.1099,6.1099,6.1099,6.1099,6.1099,6.1099,6.1099,6.1099,6.1099,6.1099,6.1099,6.1099,6.1099,6.1099,6.1099,6.1698,6.3439,6.4077,6.4812,6.6031,6.6205,6.6205,6.6205,6.6205,6.6205,6.6205,6.6205,6.6205,6.6205,6.6205,6.6205,6.6205,6.6205,6.6205,6.6205,6.6205,6.6205,6.6205,6.6205,6.6205,6.6205,6.6205,6.6205,2.9903,3.2562,3.572,4.0253,4.1497,4.2054,4.3819,4.5398,4.6531,4.668,4.7887,4.9222,5.0381,5.126,5.2226,5.3352,5.4276,5.4871,5.4871,5.4871,5.528,5.6285,5.6986,5.7801,5.8805,5.9506,5.9885,5.9885,5.9885,5.9963,6.014,6.0376,6.0584,6.075,6.0982,6.1099,6.1099,6.1099,6.1099,6.1099,6.1099,6.1099,6.1099,6.1099,6.1099,6.1099,6.1099,6.1099,6.1099,6.1099,6.1099,6.1099,6.1099,6.1099,6.1099,6.1099,6.1099,6.1099,6.1099,6.1099,6.1099,6.1099,6.1099,6.1099,6.1099,6.1099,6.1099,6.1099,6.1099,6.1099,6.1099,6.1099,6.1099,6.1099,6.1099,6.1099,6.1099,6.1099,6.1099,6.1099,6.1099,6.1099,6.1099,6.1099,6.1698,6.3439,6.369,6.4309,6.5973,6.6205,6.6205,6.6205,6.6205,6.6205,6.6205,6.6205,6.6205,6.6205,6.6205,6.6205,6.6205,6.6205,6.6205,6.6205,6.6205,6.6205,6.6205,6.6205,6.6205,6.6205,6.6205,6.6205,2.9906,3.3417,3.7039,3.9863,4.107,4.2222,4.4581,4.5844,4.6698,4.7404,4.8277,4.9373,5.0969,5.1481,5.2161,5.3732,5.4359,5.4629,5.4629,5.4791,5.5489,5.7043,5.7327,5.8009,5.9582,5.9828,5.9885,5.9885,5.9885,5.9918,5.995,6.0313,6.0508,6.0533,6.0901,6.1099,6.1099,6.1099,6.1099,6.1099,6.1099,6.1099,6.1099,6.1099,6.1099,6.1099,6.1099,6.1099,6.1099,6.1099,6.1099,6.1099,6.1099,6.1099,6.1099,6.1099,6.1099,6.1099,6.1099,6.1099,6.1099,6.1099,6.1099,6.1099,6.1099,6.1099,6.1099,6.1099,6.1099,6.1099,6.1099,6.1099,6.1099,6.1099,6.1099,6.1099,6.1099,6.1099,6.1099,6.1099,6.1099,6.1099,6.1099,6.1099,6.1698,6.3439,6.369,6.4309,6.5973,6.6205,6.6205,6.6205,6.6205,6.6205,6.6205,6.6205,6.6205,6.6205,6.6205,6.6205,6.6205,6.6205,6.6205,6.6205,6.6205,6.6205,6.6205,6.6205,6.6205,6.6205,6.6205,6.6205,3.0355,3.3584,3.6593,3.9045,4.0643,4.1999,4.354,4.4896,4.6048,4.6865,4.7664,4.8723,5.0376,5.1185,5.2049,5.3315,5.4134,5.4629,5.4742,5.4822,5.5527,5.7194,5.7403,5.8047,5.9734,5.9885,5.9885,5.9885,5.9885,5.995,6.0068,6.0349,6.0559,6.0657,6.0962,6.1099,6.1099,6.1099,6.1099,6.1099,6.1099,6.1099,6.1099,6.1099,6.1099,6.1099,6.1099,6.1099,6.1099,6.1099,6.1099,6.1099,6.1099,6.1099,6.1099,6.1099,6.1099,6.1099,6.1099,6.1099,6.1099,6.1099,6.1099,6.1099,6.1099,6.1099,6.1099,6.1099,6.1099,6.1099,6.1099,6.1099,6.1099,6.1099,6.1099,6.1099,6.1099,6.1099,6.1099,6.1099,6.1099,6.1099,6.1099,6.1099,6.1698,6.3439,6.369,6.4309,6.5973,6.6205,6.6205,6.6205,6.6205,6.6205,6.6205,6.6205,6.6205,6.6205,6.6205,6.6205,6.6205,6.6205,6.6205,6.6205,6.6205,6.6205,6.6205,6.6205,6.6205,6.6205,6.6205,6.6205,3.0318,3.312,3.5702,3.7931,3.99,4.1553,4.2575,4.4098,4.5528,4.6327,4.7144,4.8129,4.954,5.0557,5.1607,5.2825,5.372,5.4352,5.4773,5.4871,5.5451,5.691,5.727,5.7971,5.9449,5.9772,5.9885,5.9885,5.9885,5.9994,6.0198,6.0403,6.0584,6.0795,6.1002,6.1099,6.1099,6.1099,6.1099,6.1099,6.1099,6.1099,6.1099,6.1099,6.1099,6.1099,6.1099,6.1099,6.1099,6.1099,6.1099,6.1099,6.1099,6.1099,6.1099,6.1099,6.1099,6.1099,6.1099,6.1099,6.1099,6.1099,6.1099,6.1099,6.1099,6.1099,6.1099,6.1099,6.1099,6.1099,6.1099,6.1099,6.1099,6.1099,6.1099,6.1099,6.1099,6.1099,6.1099,6.1099,6.1099,6.1099,6.1099,6.1099,6.1698,6.3439,6.369,6.4309,6.5973,6.6205,6.6205,6.6205,6.6205,6.6205,6.6205,6.6205,6.6205,6.6205,6.6205,6.6205,6.6205,6.6205,6.6205,6.6205,6.6205,6.6205,6.6205,6.6205,6.6205,6.6205,6.6205,6.6205,2.924,3.1861,3.468,3.6389,3.8655,4.0866,4.2445,4.4098,4.5528,4.6327,4.7144,4.7961,4.8816,4.9633,5.0763,5.2615,5.305,5.3532,5.4484,5.4791,5.5242,5.6152,5.6929,5.7763,5.8672,5.9449,5.9885,5.9885,5.9885,5.9994,6.0198,6.0403,6.0584,6.0795,6.1002,6.1099,6.1099,6.1099,6.1099,6.1099,6.1099,6.1099,6.1099,6.1099,6.1099,6.1099,6.1099,6.1099,6.1099,6.1099,6.1099,6.1099,6.1099,6.1099,6.1099,6.1099,6.1099,6.1099,6.1099,6.1099,6.1099,6.1099,6.1099,6.1099,6.1099,6.1099,6.1099,6.1099,6.1099,6.1099,6.1099,6.1099,6.1099,6.1099,6.1099,6.1099,6.1099,6.1099,6.1099,6.1099,6.1099,6.1099,6.1099,6.1099,6.1698,6.3439,6.369,6.4309,6.5973,6.6205,6.6205,6.6205,6.6205,6.6205,6.6205,6.6205,6.6205,6.6205,6.6205,6.6205,6.6205,6.6205,6.6205,6.6205,6.6205,6.6205,6.6205,6.6205,6.6205,6.6205,6.6205,6.6205,2.8217,3.0556,3.3045,3.468,3.7336,3.9863,4.0996,4.2519,4.4079,4.5454,4.6364,4.7181,4.798,4.9206,5.0373,5.1177,5.23,5.324,5.3588,5.439,5.5193,5.592,5.6374,5.7175,5.8559,5.8957,5.9336,5.9847,5.9885,5.9994,6.0198,6.0403,6.0584,6.0795,6.1002,6.1099,6.1099,6.1099,6.1099,6.1099,6.1099,6.1099,6.1099,6.1099,6.1099,6.1099,6.1099,6.1099,6.1099,6.1099,6.1099,6.1099,6.1099,6.1099,6.1099,6.1099,6.1099,6.1099,6.1099,6.1099,6.1099,6.1099,6.1099,6.1099,6.1099,6.1099,6.1099,6.1099,6.1099,6.1099,6.1099,6.1099,6.1099,6.1099,6.1099,6.1099,6.1099,6.1099,6.1099,6.1099,6.1099,6.1099,6.1099,6.1563,6.2336,6.3516,6.4174,6.4928,6.605,6.6205,6.6205,6.6205,6.6205,6.6205,6.6205,6.6205,6.6205,6.6205,6.6205,6.6205,6.6205,6.6205,6.6205,6.6205,6.6205,6.6205,6.6205,6.6205,6.6205,6.6205,6.6205,6.6205,2.7344,2.9314,3.1452,3.3324,3.6055,3.8581,3.9695,4.1423,4.3188,4.4581,4.5509,4.642,4.7497,4.8574,4.9536,5.0281,5.1424,5.239,5.3001,5.3779,5.4585,5.5371,5.5826,5.6564,5.7744,5.8104,5.8597,5.943,5.9487,5.9741,6.0274,6.043,6.0633,6.0901,6.1022,6.1099,6.1099,6.1099,6.1099,6.1099,6.1099,6.1099,6.1099,6.1099,6.1099,6.1099,6.1099,6.1099,6.1099,6.1099,6.1099,6.1099,6.1099,6.1099,6.1099,6.1099,6.1099,6.1099,6.1099,6.1099,6.1099,6.1099,6.1099,6.1099,6.1099,6.1099,6.1099,6.1099,6.1099,6.1099,6.1099,6.1099,6.1099,6.1099,6.1099,6.1099,6.1099,6.1099,6.1099,6.1099,6.1099,6.1195,6.1485,6.2027,6.2801,6.3961,6.4619,6.5296,6.6108,6.6205,6.6205,6.6205,6.6205,6.6205,6.6205,6.6205,6.6205,6.6205,6.6205,6.6205,6.6205,6.6205,6.6205,6.6205,6.6205,6.6205,6.6205,6.6205,6.6205,6.6205,6.6205,6.6205,0.0,0.0,0.0,3.2321,3.4791,3.7039,3.8655,4.0921,4.2927,4.3782,4.4655,4.5751,4.7348,4.7646,4.8252,5.0038,5.037,5.1016,5.2761,5.3038,5.3442,5.4433,5.5314,5.5926,5.619,5.691,5.7725,5.8597,5.8672,5.9242,6.0406,6.0489,6.0704,6.108,6.1099,6.1099,6.1099,6.1099,6.1099,6.1099,6.1099,6.1099,6.1099,6.1099,6.1099,6.1099,6.1099,6.1099,6.1099,6.1099,6.1099,6.1099,6.1099,6.1099,6.1099,6.1099,6.1099,6.1099,6.1099,6.1099,6.1099,6.1099,6.1099,6.1099,6.1099,6.1099,6.1099,6.1099,6.1099,6.1099,6.1099,6.1099,6.1099,6.1099,6.1099,6.1099,6.1099,6.1099,6.1099,6.1099,6.1099,6.1389,6.2259,6.2433,6.3013,6.4735,6.5006,6.5315,6.6108,6.6205,6.6205,6.6205,6.6205,6.6205,6.6205,6.6205,6.6205,6.6205,6.6205,6.6205,6.6205,6.6205,6.6205,6.6205,6.6205,6.6205,6.6205,6.6205,6.6205,6.6205,6.6205,6.6205,2.7399,0.0,0.0,0.0,0.0,0.0,3.6983,3.8804,4.0698,4.2723,4.3782,4.4692,4.5769,4.6438,4.7196,4.8252,4.9542,5.0523,5.0887,5.1671,5.2545,5.3405,5.3855,5.4654,5.6076,5.6398,5.6872,5.7687,5.8479,5.9149,5.9626,6.0465,6.0982,6.1099,6.1099,6.1099,6.1099,6.1099,6.1099,6.1099,6.1099,6.1099,6.1099,6.1099,6.1099,6.1099,6.1099,6.1099,6.1099,6.1099,6.1099,6.1099,6.1099,6.1099,6.1099,6.1099,6.1099,6.1099,6.1099,6.1099,6.1099,6.1099,6.1099,6.1099,6.1099,6.1099,6.1099,6.1099,6.1099,6.1099,6.1099,6.1099,6.1099,6.1099,6.1099,6.1099,6.1099,6.1099,6.1099,6.1099,6.1099,6.1389,6.2259,6.2917,6.371,6.4831,6.5489,6.5953,6.6166,6.6205,6.6205,6.6205,6.6205,6.6205,6.6205,6.6205,6.6205,6.6205,6.6205,6.6205,6.6205,6.6205,6.6205,6.6205,6.6205,6.6205,6.6205,6.6205,6.6205,6.6205,6.6205,6.6205,0.0,0.0,2.8494,3.0188,0.0,0.0,3.5274,3.7169,3.9101,4.0884,4.2184,4.3355,4.4544,4.5138,4.5844,4.7014,4.8081,4.9083,4.9968,5.0717,5.1484,5.2375,5.2653,5.3359,5.4886,5.5117,5.5651,5.689,5.7568,5.8353,5.936,6.0415,6.1002,6.1099,6.1099,6.1099,6.1099,6.1099,6.1099,6.1099,6.1099,6.1099,6.1099,6.1099,6.1099,6.1099,6.1099,6.1099,6.1099,6.1099,6.1099,6.1099,6.1099,6.1099,6.1099,6.1099,6.1099,6.1099,6.1099,6.1099,6.1099,6.1099,6.1099,6.1099,6.1099,6.1099,6.1099,6.1099,6.1099,6.1099,6.1099,6.1099,6.1099,6.1099,6.1099,6.1099,6.1099,6.1099,6.1099,6.1099,6.1389,6.193,6.2781,6.3671,6.4522,6.5373,6.5895,6.6205,6.6205,6.6205,6.6205,6.6205,6.6205,6.6205,6.6205,6.6205,6.6205,6.6205,6.6205,6.6205,6.6205,6.6205,6.6205,6.6205,6.6205,6.6205,6.6205,6.6205,6.6205,6.6205,6.6205,6.6205,0.0,0.0,0.0,3.0076,3.1058,0.0,3.3584,3.5776,3.7745,3.8655,4.016,4.1794,4.3318,4.367,4.4283,4.5955,4.6215,4.707,4.9503,4.9837,5.0242,5.1345,5.1645,5.2145,5.3164,5.3524,5.4363,5.5968,5.6309,5.7334,5.9483,6.0275,6.0804,6.1099,6.1099,6.1099,6.1099,6.1099,6.1099,6.1099,6.1099,6.1099,6.1099,6.1099,6.1099,6.1099,6.1099,6.1099,6.1099,6.1099,6.1099,6.1099,6.1099,6.1099,6.1099,6.1099,6.1099,6.1099,6.1099,6.1099,6.1099,6.1099,6.1099,6.1099,6.1099,6.1099,6.1099,6.1099,6.1099,6.1099,6.1099,6.1099,6.1099,6.1099,6.1099,6.1099,6.1099,6.1176,6.1234,6.1234,6.1872,6.2704,6.3671,6.4483,6.5257,6.6069,6.6205,6.6205,6.6205,6.6205,6.6205,6.6205,6.6205,6.6205,6.6205,6.6205,6.6205,6.6205,6.6205,6.6205,6.6205,6.6205,6.6205,6.6205,6.6205,6.6205,6.6205,6.6205,6.6205,6.6205,6.6205,6.6205,0.0,0.0,0.0,0.0,3.0243,0.0,3.2042,3.364,3.5349,3.6853,3.8451,3.99,4.0921,4.1627,4.2593,4.4228,4.4488,4.5342,4.7813,4.8166,4.8773,5.043,5.0801,5.135,5.2333,5.3202,5.3869,5.4202,5.5635,5.7398,5.9504,5.9736,6.0226,6.1079,6.1099,6.1099,6.1099,6.1099,6.1099,6.1099,6.1099,6.1099,6.1099,6.1099,6.1099,6.1099,6.1099,6.1099,6.1099,6.1099,6.1099,6.1099,6.1099,6.1099,6.1099,6.1099,6.1099,6.1099,6.1099,6.1099,6.1099,6.1099,6.1099,6.1099,6.1099,6.1099,6.1099,6.1099,6.1099,6.1099,6.1099,6.1099,6.1099,6.1099,6.1099,6.1099,6.1099,6.166,6.2162,6.2162,6.2278,6.2897,6.4483,6.4889,6.5257,6.6069,6.6205,6.6205,6.6205,6.6205,6.6205,6.6205,6.6205,6.6205,6.6205,6.6205,6.6205,6.6205,6.6205,6.6205,6.6205,6.6205,6.6205,6.6205,6.6205,6.6205,6.6205,6.6205,6.6205,6.6205,6.6205,6.6205,0.0,0.0,0.0,2.9295,0.0,0.0,0.0,3.2135,3.3361,3.4587,3.6147,3.7559,3.8395,3.9528,4.0754,4.1999,4.2537,4.3373,4.5026,4.6327,4.7634,4.907,4.9457,5.0174,5.1651,5.2353,5.3092,5.4033,5.5336,5.6982,5.8993,5.9412,6.0071,6.1079,6.1099,6.1099,6.1099,6.1099,6.1099,6.1099,6.1099,6.1099,6.1099,6.1099,6.1099,6.1099,6.1099,6.1099,6.1099,6.1099,6.1099,6.1099,6.1099,6.1099,6.1099,6.1099,6.1099,6.1099,6.1099,6.1099,6.1099,6.1099,6.1099,6.1099,6.1099,6.1099,6.1099,6.1099,6.1099,6.1099,6.1099,6.1099,6.1099,6.1099,6.1427,6.1756,6.1756,6.2433,6.3187,6.3613,6.369,6.3961,6.4851,6.5334,6.574,6.6147,6.6205,6.6205,6.6205,6.6205,6.6205,6.6205,6.6205,6.6205,6.6205,6.6205,6.6205,6.6205,6.6205,6.6205,6.6205,6.6205,6.6205,6.6205,6.6205,6.6205,6.6205,6.6205,6.6205,6.6205,6.6205,6.6205,0.0,0.0,0.0,0.0,0.0,2.976,0.0,0.0,0.0,3.2395,3.3844,3.5256,3.6073,3.7411,3.8637,3.9342,4.0253,4.1051,4.1553,4.3763,4.5866,4.7379,4.8013,4.9003,5.066,5.1338,5.2363,5.4049,5.4893,5.6151,5.7968,5.8895,5.9821,6.0847,6.1021,6.1099,6.1099,6.1099,6.1099,6.1099,6.1099,6.1099,6.1099,6.1099,6.1099,6.1099,6.1099,6.1099,6.1099,6.1099,6.1099,6.1099,6.1099,6.1099,6.1099,6.1099,6.1099,6.1099,6.1099,6.1099,6.1099,6.1099,6.1099,6.1099,6.1099,6.1099,6.1099,6.1099,6.1099,6.1099,6.1099,6.1099,6.1137,6.1311,6.1892,6.2453,6.2607,6.3342,6.4155,6.4851,6.5122,6.5218,6.5218,6.576,6.6205,6.6205,6.6205,6.6205,6.6205,6.6205,6.6205,6.6205,6.6205,6.6205,6.6205,6.6205,6.6205,6.6205,6.6205,6.6205,6.6205,6.6205,6.6205,6.6205,6.6205,6.6205,6.6205,6.6205,6.6205,6.6205,6.6205,6.6205,0.0,0.0,3.1377,3.0652,3.0466,3.0299,2.9686,0.0,3.0764,3.0857,0.0,3.3528,3.4327,0.0,0.0,3.6036,3.7318,3.8098,3.7466,3.9528,4.2233,4.5257,4.6833,4.8003,4.8753,5.0412,5.1888,5.2992,5.3738,5.469,5.6057,5.7599,5.8933,5.9996,6.0731,6.1099,6.1099,6.1099,6.1099,6.1099,6.1099,6.1099,6.1099,6.1099,6.1099,6.1099,6.1099,6.1099,6.1099,6.1099,6.1099,6.1099,6.1099,6.1099,6.1099,6.1099,6.1099,6.1099,6.1099,6.1099,6.1099,6.1099,6.1099,6.1099,6.1099,6.1099,6.1099,6.1099,6.1099,6.1099,6.1099,6.1099,6.1292,6.2066,6.2336,6.2607,6.3381,6.4232,6.487,6.4967,6.5586,6.605,6.605,6.6147,6.6205,6.6205,6.6205,6.6205,6.6205,6.6205,6.6205,6.6205,6.6205,6.6205,6.6205,6.6205,6.6205,6.6205,6.6205,6.6205,6.6205,6.6205,6.6205,6.6205,6.6205,6.6205,6.6205,6.6205,6.6205,6.6205,6.6205,6.6205,3.5962,3.4637,3.3389,3.2458,3.2229,3.1963,3.1009,3.1061,3.1151,3.0708,0.0,0.0,0.0,0.0,0.0,0.0,3.5014,3.5813,3.5962,3.7436,3.9713,4.2978,4.4817,4.6624,4.8713,4.971,5.0873,5.2377,5.2681,5.3701,5.5788,5.6579,5.7872,5.9841,6.0228,6.0634,6.1099,6.1099,6.1099,6.1099,6.1099,6.1099,6.1099,6.1099,6.1099,6.1099,6.1099,6.1099,6.1099,6.1099,6.1099,6.1099,6.1099,6.1099,6.1099,6.1099,6.1099,6.1099,6.1099,6.1099,6.1099,6.1099,6.1099,6.1099,6.1099,6.1099,6.1099,6.1099,6.1099,6.1099,6.1099,6.1485,6.195,6.2317,6.3168,6.4,6.4367,6.5102,6.5702,6.5702,6.5973,6.6205,6.6205,6.6205,6.6205,6.6205,6.6205,6.6205,6.6205,6.6205,6.6205,6.6205,6.6205,6.6205,6.6205,6.6205,6.6205,6.6205,6.6205,6.6205,6.6205,6.6205,6.6205,6.6205,6.6205,6.6205,6.6205,6.6205,6.6205,6.6205,6.6205,6.6205,3.8747,3.7262,3.5704,3.4734,3.4317,3.3823,3.254,3.2251,3.193,3.082,3.1061,0.0,0.0,0.0,3.2265,3.2042,0.0,3.3603,3.3788,3.5082,3.7202,4.0502,4.2829,4.5198,4.7815,4.8718,4.9759,5.1269,5.1684,5.2878,5.5183,5.576,5.7095,5.9474,5.9783,6.0286,6.1099,6.1099,6.1099,6.1099,6.1099,6.1099,6.1099,6.1099,6.1099,6.1099,6.1099,6.1099,6.1099,6.1099,6.1099,6.1099,6.1099,6.1099,6.1099,6.1099,6.1099,6.1099,6.1099,6.1099,6.1099,6.1099,6.1099,6.1099,6.1099,6.1099,6.1099,6.1099,6.1099,6.1157,6.1389,6.193,6.253,6.2994,6.4077,6.5064,6.5276,6.5779,6.6205,6.6205,6.6205,6.6205,6.6205,6.6205,6.6205,6.6205,6.6205,6.6205,6.6205,6.6205,6.6205,6.6205,6.6205,6.6205,6.6205,6.6205,6.6205,6.6205,6.6205,6.6205,6.6205,6.6205,6.6205,6.6205,6.6205,6.6205,6.6205,6.6205,6.6205,6.6205,6.6205,6.6205,4.1376,3.9865,3.8381,3.7489,3.6691,3.5628,3.3786,3.3349,3.2837,3.0974,3.0634,3.0634,3.0615,3.0652,0.0,0.0,0.0,0.0,0.0,3.1637,3.4351,3.7642,4.1184,4.3793,4.5011,4.7182,4.8751,4.9259,5.0689,5.2118,5.35,5.5122,5.6805,5.8584,5.9455,6.0286,6.1099,6.1099,6.1099,6.1099,6.1099,6.1099,6.1099,6.1099,6.1099,6.1099,6.1099,6.1099,6.1099,6.1099,6.1099,6.1099,6.1099,6.1099,6.1099,6.1099,6.1099,6.1099,6.1099,6.1099,6.1099,6.1099,6.1099,6.1099,6.1099,6.1099,6.1099,6.1099,6.1099,6.1292,6.2143,6.2375,6.2839,6.4522,6.4948,6.5199,6.5992,6.6185,6.6205,6.6205,6.6205,6.6205,6.6205,6.6205,6.6205,6.6205,6.6205,6.6205,6.6205,6.6205,6.6205,6.6205,6.6205,6.6205,6.6205,6.6205,6.6205,6.6205,6.6205,6.6205,6.6205,6.6205,6.6205,6.6205,6.6205,6.6205,6.6205,6.6205,6.6205,6.6205,6.6205,6.6205,4.4487,4.3415,4.2155,4.0576,3.9966,3.928,3.7354,3.6914,3.6209,3.3757,3.3243,3.2882,3.1622,0.0,0.0,0.0,0.0,0.0,0.0,3.1377,3.3008,3.5182,3.8177,0.0,4.2896,4.501,4.6835,4.824,4.9431,5.0818,5.25,5.3694,5.5122,5.6824,5.8275,5.9455,6.0306,6.0828,6.1099,6.1099,6.1099,6.1099,6.1099,6.1099,6.1099,6.1099,6.1099,6.1099,6.1099,6.1099,6.1099,6.1099,6.1099,6.1099,6.1099,6.1099,6.1099,6.1099,6.1099,6.1099,6.1099,6.1099,6.1099,6.1099,6.1099,6.1099,6.1099,6.1099,6.1524,6.2027,6.2317,6.3265,6.4271,6.4851,6.5412,6.5876,6.6147,6.6205,6.6205,6.6205,6.6205,6.6205,6.6205,6.6205,6.6205,6.6205,6.6205,6.6205,6.6205,6.6205,6.6205,6.6205,6.6205,6.6205,6.6205,6.6205,6.6205,6.6205,6.6205,6.6205,6.6205,6.6205,6.6205,6.6205,6.6205,6.6205,6.6205,6.6205,6.6205,6.6205,6.6205,6.6205,4.6843,4.604,4.5009,4.3453,4.2842,4.2101,4.0177,3.9638,3.8888,3.6549,3.5678,3.4926,3.3602,3.2328,0.0,0.0,0.0,0.0,0.0,3.0658,3.1522,3.3157,0.0,0.0,0.0,0.0,4.5285,4.7722,4.868,5.0029,5.2037,5.2998,5.4271,5.5954,5.7695,5.901,5.988,6.0692,6.1099,6.1099,6.1099,6.1099,6.1099,6.1099,6.1099,6.1099,6.1099,6.1099,6.1099,6.1099,6.1099,6.1099,6.1099,6.1099,6.1099,6.1099,6.1099,6.1099,6.1099,6.1099,6.1099,6.1099,6.1099,6.1099,6.1099,6.1099,6.1157,6.1485,6.1969,6.2549,6.3168,6.4155,6.5064,6.5354,6.5818,6.6205,6.6205,6.6205,6.6205,6.6205,6.6205,6.6205,6.6205,6.6205,6.6205,6.6205,6.6205,6.6205,6.6205,6.6205,6.6205,6.6205,6.6205,6.6205,6.6205,6.6205,6.6205,6.6205,6.6205,6.6205,6.6205,6.6205,6.6069,6.5779,6.605,6.605,6.576,6.605,6.6205,6.6205,6.6205,6.6205]},{"header":{"parameterUnit":"m.s-1","parameterCategory":1,"la1":30.6,"la2":29.2853,"lo1":-89.7004,"lo2":-87.6739,"dx":0.0162,"dy":0.0183,"nx":112,"ny":82,"refTime":"2022-12-20T06:00:00:Z","depth":0,"parameterNumber":3,"parameterNumberName":"V-component_of_WINDS"},"data":[0.0,0.0,0.0,0.0,0.0,0.0,0.0,0.0,0.0,0.0,0.0,0.0,0.0,0.0,0.0,0.0,0.0,0.0,0.0,0.0,0.0,0.0,0.0,0.0,0.0,0.0,0.0,0.0,0.0,0.0,0.0,0.0,0.0,0.0,0.0,0.0,0.0,0.0,0.0,0.0,0.0,0.0,0.0,0.0,0.0,0.0,0.0,0.0,0.0,0.0,0.0,0.0,0.0,0.0,0.0,0.0,0.0,0.0,0.0,0.0,0.0,0.0,0.0,0.0,0.0,0.0,0.0,0.0,0.0,0.0,0.0,0.0,0.0,0.0,0.0,0.0,0.0,0.0,0.0,0.0,0.0,0.0,0.0,0.0,0.0,0.0,0.0,0.0,0.0,0.0,-0.7919,-0.7955,-0.7997,-0.8021,-0.8021,-0.7486,-0.7139,-0.7139,0.0,0.0,0.0,0.0,0.0,0.0,0.0,0.0,0.0,0.0,0.0,0.0,0.0,0.0,0.0,0.0,0.0,0.0,0.0,0.0,0.0,0.0,0.0,0.0,0.0,0.0,0.0,0.0,0.0,0.0,0.0,0.0,0.0,0.0,0.0,0.0,0.0,0.0,0.0,0.0,0.0,0.0,0.0,0.0,0.0,0.0,0.0,0.0,0.0,0.0,0.0,0.0,0.0,0.0,0.0,0.0,0.0,0.0,0.0,0.0,0.0,0.0,0.0,0.0,0.0,0.0,0.0,0.0,0.0,0.0,0.0,0.0,0.0,0.0,0.0,0.0,0.0,0.0,0.0,0.0,0.0,0.0,0.0,0.0,0.0,0.0,0.0,0.0,0.0,0.0,0.0,0.0,0.0,0.0,0.0,0.0,0.0,0.0,0.0,0.0,0.0,0.0,0.0,0.0,-0.7985,-0.8207,-0.8429,-0.8561,-0.8561,-0.7892,-0.7437,-0.7437,0.0,0.0,0.0,0.0,0.0,0.0,0.0,0.0,0.0,0.0,0.0,0.0,0.0,0.0,0.0,0.0,0.0,0.0,0.0,0.0,0.0,0.0,0.0,0.0,0.0,0.0,0.0,0.0,0.0,0.0,0.0,0.0,0.0,0.0,0.0,0.0,0.0,0.0,0.0,0.0,0.0,0.0,0.0,0.0,0.0,0.0,0.0,0.0,0.0,0.0,0.0,0.0,0.0,0.0,0.0,0.0,0.0,0.0,0.0,0.0,0.0,0.0,0.0,0.0,0.0,0.0,0.0,0.0,0.0,0.0,0.0,0.0,0.0,0.0,0.0,0.0,0.0,0.0,0.0,0.0,0.0,0.0,0.0,0.0,0.0,0.0,0.0,0.0,0.0,0.0,0.0,0.0,0.0,0.0,0.0,0.0,0.0,0.0,0.0,0.0,0.0,0.0,0.0,-0.8033,-0.8213,-0.8471,-0.8609,-0.8681,-0.8681,-0.7971,-0.7491,-0.7491,-0.6405,0.0,0.0,0.0,0.0,0.0,0.0,0.0,0.0,0.0,0.0,0.0,0.0,0.0,0.0,0.0,0.0,0.0,0.0,0.0,0.0,0.0,0.0,0.0,0.0,0.0,0.0,0.0,0.0,0.0,0.0,0.0,0.0,0.0,0.0,0.0,0.0,0.0,0.0,0.0,0.0,0.0,0.0,0.0,0.0,0.0,0.0,0.0,0.0,0.0,0.0,0.0,0.0,0.0,0.0,0.0,0.0,0.0,0.0,0.0,0.0,0.0,0.0,0.0,0.0,0.0,0.0,0.0,0.0,0.0,0.0,0.0,0.0,0.0,0.0,0.0,0.0,0.0,0.0,0.0,0.0,0.0,0.0,0.0,0.0,0.0,0.0,0.0,0.0,0.0,0.0,0.0,0.0,0.0,0.0,0.0,0.0,0.0,0.0,0.0,0.0,0.0,0.0,-0.8453,-0.8651,-0.8843,-0.898,-0.9028,-0.8962,-0.8238,-0.7692,-0.7464,-0.6234,0.0,0.0,0.0,0.0,0.0,0.0,0.0,0.0,0.0,0.0,0.0,0.0,0.0,0.0,0.0,0.0,0.0,0.0,0.0,0.0,0.0,0.0,0.0,0.0,0.0,0.0,0.0,0.0,0.0,0.0,0.0,0.0,0.0,0.0,0.0,0.0,0.0,0.0,0.0,0.0,0.0,0.0,0.0,0.0,0.0,0.0,0.0,0.0,0.0,0.0,0.0,0.0,0.0,0.0,0.0,0.0,0.0,0.0,0.0,0.0,0.0,0.0,0.0,0.0,0.0,0.0,0.0,0.0,0.0,0.0,0.0,0.0,0.0,0.0,0.0,0.0,0.0,0.0,0.0,0.0,0.0,0.0,0.0,0.0,0.0,0.0,0.0,0.0,0.0,0.0,0.0,0.0,0.0,0.0,0.0,0.0,0.0,0.0,0.0,0.0,0.0,0.0,-0.8938,-0.9406,-0.9424,-0.9862,-1.0115,-0.9808,-0.902,-0.8169,-0.725,-0.5981,0.0,0.0,0.0,0.0,0.0,0.0,0.0,0.0,0.0,0.0,0.0,0.0,0.0,0.0,0.0,0.0,0.0,0.0,0.0,0.0,0.0,0.0,0.0,0.0,0.0,0.0,0.0,0.0,0.0,0.0,0.0,0.0,0.0,0.0,0.0,0.0,0.0,0.0,0.0,0.0,0.0,0.0,0.0,0.0,0.0,0.0,0.0,0.0,0.0,0.0,0.0,0.0,0.0,0.0,0.0,0.0,0.0,0.0,0.0,0.0,0.0,0.0,0.0,0.0,0.0,0.0,0.0,0.0,0.0,0.0,0.0,0.0,0.0,0.0,0.0,0.0,0.0,0.0,0.0,0.0,0.0,0.0,0.0,0.0,0.0,0.0,0.0,0.0,0.0,0.0,0.0,0.0,0.0,0.0,0.0,0.0,0.0,0.0,0.0,0.0,0.0,0.0,-0.919,-0.9604,-0.9934,-1.0212,-1.029,-1.0188,-0.9185,-0.8292,-0.7608,0.0,0.0,0.0,0.0,0.0,0.0,0.0,0.0,0.0,0.0,0.0,0.0,0.0,0.0,0.0,0.0,0.0,0.0,0.0,0.0,0.0,0.0,0.0,0.0,0.0,0.0,0.0,0.0,0.0,0.0,0.0,0.0,0.0,0.0,0.0,0.0,0.0,0.0,0.0,0.0,0.0,0.0,0.0,0.0,0.0,0.0,0.0,0.0,0.0,0.0,0.0,0.0,0.0,0.0,0.0,0.0,0.0,0.0,0.0,0.0,0.0,0.0,0.0,0.0,0.0,0.0,0.0,0.0,0.0,0.0,0.0,0.0,0.0,0.0,0.0,0.0,0.0,0.0,0.0,0.0,0.0,0.0,0.0,0.0,0.0,0.0,0.0,0.0,0.0,0.0,0.0,0.0,0.0,0.0,0.0,0.0,0.0,0.0,0.0,0.0,0.0,0.0,-0.9083,-0.9526,-1.0018,-1.0532,-1.0515,-1.0461,-1.0373,-0.9414,-0.8415,-0.7466,0.0,0.0,0.0,0.0,0.0,0.0,0.0,0.0,0.0,0.0,0.0,0.0,0.0,0.0,0.0,0.0,0.0,0.0,0.0,0.0,0.0,0.0,0.0,0.0,0.0,0.0,0.0,0.0,0.0,0.0,0.0,0.0,0.0,0.0,0.0,0.0,0.0,0.0,0.0,0.0,0.0,0.0,0.0,0.0,0.0,0.0,0.0,0.0,0.0,0.0,0.0,0.0,0.0,0.0,0.0,0.0,0.0,0.0,0.0,0.0,0.0,0.0,0.0,0.0,0.0,0.0,0.0,0.0,0.0,0.0,0.0,0.0,0.0,0.0,0.0,0.0,0.0,0.0,0.0,0.0,0.0,0.0,0.0,0.0,0.0,0.0,0.0,0.0,0.0,0.0,0.0,0.0,0.0,0.0,0.0,0.0,0.0,0.0,0.0,0.0,0.0,0.0,-0.9138,-1.0067,-1.0828,-1.1093,-1.0906,-1.0727,-1.0547,-0.9776,-0.85,0.0,0.0,0.0,0.0,0.0,0.0,0.0,0.0,0.0,0.0,0.0,0.0,0.0,0.0,0.0,0.0,0.0,0.0,0.0,0.0,0.0,0.0,0.0,0.0,0.0,0.0,0.0,0.0,0.0,0.0,0.0,0.0,0.0,0.0,0.0,0.0,0.0,0.0,0.0,0.0,0.0,0.0,0.0,0.0,0.0,0.0,0.0,0.0,0.0,0.0,0.0,0.0,0.0,0.0,0.0,0.0,0.0,0.0,0.0,0.0,0.0,0.0,0.0,0.0,0.0,0.0,0.0,0.0,0.0,0.0,0.0,0.0,0.0,0.0,0.0,0.0,0.0,0.0,0.0,0.0,0.0,0.0,0.0,0.0,0.0,0.0,0.0,0.0,0.0,0.0,0.0,0.0,0.0,0.0,0.0,0.0,0.0,0.0,0.0,0.0,0.0,0.0,0.0,-0.9898,-1.0574,-1.1172,-1.1636,-1.1277,-1.1056,-1.0976,-0.9962,-0.875,-0.7388,0.0,0.0,0.0,0.0,0.0,0.0,0.0,0.0,0.0,0.0,0.0,0.0,0.0,0.0,0.0,0.0,0.0,0.0,0.0,0.0,0.0,0.0,0.0,0.0,0.0,0.0,0.0,0.0,0.0,0.0,0.0,0.0,0.0,0.0,0.0,0.0,0.0,0.0,0.0,0.0,0.0,0.0,0.0,0.0,0.0,0.0,0.0,0.0,0.0,0.0,0.0,0.0,0.0,0.0,0.0,0.0,0.0,0.0,0.0,0.0,0.0,0.0,0.0,0.0,0.0,0.0,0.0,0.0,0.0,0.0,0.0,0.0,0.0,0.0,0.0,0.0,0.0,0.0,0.0,0.0,0.0,0.0,0.0,0.0,0.0,0.0,0.0,0.0,0.0,0.0,0.0,0.0,0.0,0.0,0.0,0.0,0.0,0.0,0.0,0.0,0.0,0.0,-1.0411,-1.1039,-1.1564,-1.1852,-1.1498,-1.1161,-1.099,-0.9831,-0.8741,-0.7799,0.0,0.0,0.0,0.0,0.0,0.0,0.0,0.0,0.0,0.0,0.0,0.0,0.0,0.0,0.0,0.0,0.0,0.0,0.0,0.0,0.0,0.0,0.0,0.0,0.0,0.0,0.0,0.0,0.0,0.0,0.0,0.0,0.0,0.0,0.0,0.0,0.0,0.0,0.0,0.0,0.0,0.0,0.0,0.0,0.0,0.0,0.0,0.0,0.0,0.0,0.0,0.0,0.0,0.0,0.0,0.0,0.0,0.0,0.0,0.0,0.0,0.0,0.0,0.0,0.0,0.0,0.0,0.0,0.0,0.0,0.0,0.0,0.0,0.0,0.0,0.0,0.0,0.0,0.0,0.0,0.0,0.0,0.0,0.0,0.0,0.0,0.0,0.0,0.0,0.0,0.0,0.0,0.0,0.0,0.0,0.0,0.0,0.0,0.0,0.0,0.0,0.0,-1.0791,-1.1516,-1.1952,-1.1963,-1.1587,-1.1147,-1.0702,-0.963,-0.8709,-0.7935,0.0,0.0,0.0,0.0,0.0,0.0,0.0,0.0,0.0,0.0,0.0,0.0,0.0,0.0,0.0,0.0,0.0,0.0,0.0,0.0,0.0,0.0,0.0,0.0,0.0,0.0,0.0,0.0,0.0,0.0,0.0,0.0,0.0,0.0,0.0,0.0,0.0,0.0,0.0,0.0,0.0,0.0,0.0,0.0,0.0,0.0,0.0,0.0,0.0,0.0,0.0,0.0,0.0,0.0,0.0,0.0,0.0,0.0,0.0,0.0,-0.3887,-0.3574,0.0,0.0,0.0,0.0,0.0,0.0,0.0,0.0,0.0,0.0,0.0,0.0,0.0,0.0,0.0,0.0,0.0,0.0,0.0,0.0,0.0,0.0,0.0,0.0,0.0,0.0,0.0,0.0,0.0,0.0,0.0,0.0,0.0,0.0,0.0,0.0,0.0,0.0,0.0,0.0,-1.1576,-1.2174,-1.257,-1.2557,-1.2163,-1.1621,-1.1167,-1.0471,-0.9433,-0.808,-0.7315,0.0,0.0,0.0,0.0,0.0,0.0,0.0,0.0,0.0,0.0,0.0,0.0,0.0,0.0,0.0,0.0,0.0,0.0,0.0,0.0,0.0,0.0,0.0,0.0,0.0,0.0,0.0,0.0,0.0,0.0,0.0,0.0,0.0,0.0,0.0,0.0,0.0,0.0,0.0,0.0,0.0,0.0,0.0,0.0,0.0,0.0,0.0,0.0,0.0,0.0,0.0,0.0,0.0,0.0,0.0,0.0,0.0,0.0,0.0,-0.411,-0.3895,0.0,0.0,0.0,0.0,0.0,0.0,0.0,0.0,0.0,0.0,0.0,0.0,0.0,0.0,0.0,0.0,0.0,0.0,0.0,0.0,0.0,0.0,0.0,0.0,0.0,0.0,0.0,0.0,0.0,0.0,0.0,0.0,0.0,0.0,0.0,0.0,0.0,0.0,0.0,0.0,-1.2228,-1.2765,-1.2981,-1.2553,-1.2314,-1.1941,-1.1194,-1.0441,-0.9605,-0.8601,-0.764,0.0,0.0,0.0,0.0,0.0,0.0,0.0,0.0,0.0,0.0,0.0,0.0,0.0,0.0,0.0,0.0,0.0,0.0,0.0,0.0,0.0,0.0,0.0,0.0,0.0,0.0,0.0,0.0,0.0,0.0,0.0,0.0,0.0,0.0,0.0,0.0,0.0,0.0,0.0,0.0,0.0,0.0,0.0,0.0,0.0,0.0,0.0,0.0,0.0,0.0,0.0,0.0,0.0,-0.4591,-0.4564,-0.4569,-0.4692,-0.482,-0.4803,-0.4433,-0.4257,-0.417,-0.4069,0.0,0.0,0.0,0.0,0.0,0.0,0.0,0.0,0.0,0.0,0.0,0.0,0.0,0.0,0.0,0.0,0.0,0.0,0.0,0.0,0.0,0.0,-0.4425,-0.4425,-0.4425,-0.4374,-0.4191,0.0,0.0,0.0,0.0,0.0,0.0,0.0,0.0,0.0,0.0,0.0,-1.2813,-1.3278,-1.332,-1.2547,-1.2474,-1.2094,-1.1044,-1.0267,-0.9638,-0.9017,-0.7746,-0.6679,0.0,0.0,0.0,0.0,0.0,0.0,0.0,0.0,0.0,0.0,0.0,0.0,0.0,0.0,0.0,0.0,0.0,0.0,0.0,0.0,0.0,0.0,0.0,0.0,0.0,0.0,0.0,0.0,0.0,0.0,0.0,0.0,-0.4694,-0.4742,0.0,0.0,0.0,0.0,0.0,0.0,0.0,0.0,0.0,0.0,0.0,0.0,0.0,-0.5929,-0.6171,-0.5677,-0.5564,-0.5835,-0.5243,-0.4944,-0.4947,-0.5064,-0.5116,-0.5113,-0.5064,0.0,-0.4423,-0.4406,0.0,0.0,0.0,0.0,0.0,0.0,0.0,0.0,0.0,0.0,0.0,0.0,0.0,0.0,0.0,0.0,0.0,0.0,0.0,0.0,0.0,0.0,-0.4923,-0.4923,-0.4923,-0.4942,-0.5007,-0.4781,-0.4591,-0.4613,-0.5957,-0.7013,0.0,0.0,0.0,0.0,0.0,0.0,-1.3285,-1.367,-1.3579,-1.2785,-1.2716,-1.2328,-1.1253,-1.0471,-0.9596,-0.8714,-0.7795,-0.6841,-0.5761,-0.5496,0.0,0.0,0.0,0.0,0.0,0.0,0.0,0.0,0.0,0.0,0.0,0.0,0.0,0.0,0.0,0.0,0.0,0.0,0.0,0.0,0.0,0.0,0.0,0.0,0.0,0.0,0.0,0.0,0.0,-0.4532,-0.4669,-0.4809,-0.4848,-0.4839,0.0,0.0,0.0,0.0,0.0,0.0,0.0,0.0,0.0,-0.5807,-0.5626,-0.5631,-0.5905,-0.5599,-0.5654,-0.5838,-0.5588,-0.542,-0.5423,-0.5472,-0.5494,-0.5494,-0.5494,-0.5374,-0.5159,-0.4887,-0.4749,-0.4703,0.0,0.0,0.0,0.0,-0.4703,-0.4703,-0.4703,-0.4703,-0.4703,-0.4703,0.0,0.0,0.0,0.0,0.0,0.0,0.0,-0.5083,-0.5205,-0.5328,-0.542,-0.542,-0.542,-0.545,-0.5564,-0.551,-0.5476,-0.5786,-0.6645,-0.7434,-0.7825,-0.959,0.0,0.0,0.0,-1.3377,-1.3918,-1.3897,-1.3671,-1.3225,-1.2851,-1.2355,-1.1644,-1.1139,-1.0237,-0.895,-0.8322,-0.7426,-0.5939,-0.5635,-0.5309,0.0,0.0,0.0,0.0,0.0,0.0,0.0,0.0,0.0,0.0,0.0,0.0,0.0,0.0,0.0,0.0,0.0,0.0,0.0,0.0,0.0,0.0,0.0,0.0,0.0,0.0,0.0,0.0,-0.5002,-0.5039,-0.5385,-0.514,-0.5082,0.0,0.0,0.0,0.0,0.0,0.0,-0.7164,-0.7045,-0.6861,-0.6607,-0.6417,-0.644,-0.6691,-0.6439,-0.6393,-0.6364,-0.6184,-0.6003,-0.5822,-0.5822,-0.5822,-0.5822,-0.5822,-0.5822,-0.5793,-0.5371,-0.52,-0.52,-0.52,-0.52,-0.52,-0.52,-0.52,-0.52,-0.52,-0.52,-0.52,-0.52,-0.52,-0.52,-0.52,0.0,0.0,0.0,0.0,-0.5534,-0.5657,-0.5754,-0.5822,-0.5822,-0.5822,-0.5855,-0.5972,-0.6018,-0.6124,-0.6564,-0.7102,-0.7752,-0.8499,-1.0079,0.0,-1.1673,-1.2966,-1.4017,-1.4467,-1.4283,-1.397,-1.3545,-1.3054,-1.2545,-1.1817,-1.1476,-1.0671,-0.9225,-0.866,-0.7754,-0.6274,-0.589,-0.5605,-0.5333,0.0,0.0,0.0,0.0,0.0,0.0,0.0,0.0,0.0,0.0,0.0,0.0,0.0,0.0,0.0,0.0,0.0,0.0,0.0,0.0,0.0,0.0,0.0,0.0,0.0,0.0,0.0,0.0,0.0,-0.6997,-0.7049,0.0,0.0,0.0,0.0,-0.7244,-0.75,-0.7759,-0.8121,-0.8738,-0.9192,-0.9391,-0.9605,-0.9823,-1.0041,-0.9319,-0.8687,-0.8128,-0.7567,-0.682,-0.6067,-0.6067,-0.6067,-0.6067,-0.6067,-0.6067,-0.6048,-0.5801,-0.5697,-0.5697,-0.5697,-0.5697,-0.5697,-0.5697,-0.5697,-0.5697,-0.5697,-0.5697,-0.5697,-0.5697,-0.5697,-0.5697,-0.5697,-0.5697,0.0,0.0,-0.5871,-0.5904,-0.6026,-0.6064,-0.6067,-0.6067,-0.6067,-0.6102,-0.6225,-0.6333,-0.6339,-0.6189,-0.7272,-0.8396,-0.893,0.0,-1.2067,-1.3335,-1.3693,-1.4161,-1.4933,-1.5077,-1.4683,-1.3577,-1.3475,-1.2962,-1.1921,-1.1083,-1.0244,-0.9298,-0.8422,-0.7459,-0.6423,-0.6298,-0.6067,-0.5714,-0.5575,0.0,0.0,0.0,0.0,0.0,0.0,0.0,0.0,0.0,0.0,0.0,0.0,0.0,0.0,0.0,0.0,0.0,0.0,0.0,0.0,0.0,0.0,0.0,0.0,0.0,0.0,0.0,0.0,-0.687,-0.7123,0.0,-0.6911,-0.7413,-0.7816,-0.7926,-0.8515,-0.8991,-0.9344,-0.9293,-0.8999,-0.8617,-0.8882,-0.8878,-0.8494,-0.8211,-0.8006,-0.7872,-0.7091,-0.6648,-0.6429,-0.6429,-0.6472,-0.6545,-0.6545,-0.6545,-0.654,-0.6456,-0.6238,-0.5961,-0.5961,-0.5961,-0.5961,-0.5961,-0.5961,-0.5961,-0.5961,-0.5961,-0.5961,-0.5961,-0.5961,-0.5961,-0.5961,-0.5961,-0.5986,-0.6105,-0.6192,-0.6274,-0.6396,-0.6488,-0.6545,-0.6545,-0.6545,-0.6559,-0.6603,-0.6643,-0.6646,-0.6564,-0.7857,-0.9261,-1.0354,-1.1825,-1.3125,-1.3896,-1.4395,-1.4916,-1.5553,-1.5299,-1.4898,-1.4462,-1.3492,-1.2606,-1.1726,-1.0729,-0.9738,-0.8879,-0.8301,-0.7635,-0.6676,-0.648,-0.6317,-0.6189,-0.5918,-0.5678,0.0,0.0,0.0,0.0,0.0,0.0,0.0,0.0,0.0,0.0,0.0,0.0,0.0,0.0,0.0,0.0,0.0,0.0,0.0,0.0,0.0,0.0,0.0,0.0,0.0,-0.6885,-0.7101,-0.7362,-0.7686,-0.7838,-0.7635,-0.8268,-0.8764,-0.8941,-0.9519,-0.9946,-1.0149,-0.9904,-0.9552,-0.8995,-0.9259,-0.9244,-0.8837,-0.8837,-0.8623,-0.8177,-0.7671,-0.7109,-0.6681,-0.6681,-0.6725,-0.6801,-0.6801,-0.6801,-0.6801,-0.6801,-0.6613,-0.6328,-0.6328,-0.6328,-0.6328,-0.6328,-0.6328,-0.6328,-0.6328,-0.6328,-0.6328,-0.6328,-0.6328,-0.6328,-0.6328,-0.6328,-0.6344,-0.6426,-0.6502,-0.6578,-0.666,-0.6774,-0.6864,-0.6864,-0.6893,-0.6921,-0.6921,-0.6953,-0.6983,-0.6983,-0.7943,-0.9223,-1.0527,-1.2111,-1.3424,-1.4206,-1.4972,-1.5557,-1.5772,-1.5499,-1.4966,-1.4158,-1.3155,-1.2126,-1.122,-1.0471,-0.9571,-0.8633,-0.8422,-0.7959,-0.6926,-0.6728,-0.6603,-0.6559,-0.6246,-0.5986,-0.579,0.0,0.0,0.0,0.0,0.0,0.0,0.0,0.0,0.0,0.0,0.0,0.0,0.0,0.0,0.0,0.0,0.0,0.0,0.0,0.0,0.0,0.0,0.0,-0.6894,-0.7564,-0.8255,-0.867,-0.8916,-0.9214,-0.9541,-0.9587,-0.9847,-1.0263,-1.0291,-1.0381,-1.0584,-1.0797,-1.0915,-1.0915,-1.1109,-1.1316,-1.1423,-1.1428,-1.0697,-0.9309,-0.9317,-0.8486,-0.6812,-0.6817,-0.682,-0.6825,-0.6825,-0.6825,-0.6825,-0.6825,-0.6825,-0.6823,-0.6806,-0.6801,-0.6801,-0.6801,-0.6801,-0.6801,-0.6801,-0.6801,-0.6801,-0.6806,-0.6806,-0.6809,-0.6812,-0.6815,-0.6815,-0.6815,-0.6817,-0.682,-0.682,-0.691,-0.7002,-0.7002,-0.7086,-0.7165,-0.7165,-0.7263,-0.7347,-0.7347,-0.7725,-0.8352,-0.9219,-1.1159,-1.3011,-1.4224,-1.5516,0.0,-1.5761,-1.5682,-1.4885,-1.2726,-1.2497,-1.1812,-1.0327,-1.0237,-0.978,-0.8807,-0.8794,-0.8326,-0.7287,-0.7056,-0.6937,-0.6812,-0.657,-0.6274,-0.5926,0.0,0.0,0.0,0.0,0.0,0.0,0.0,0.0,0.0,0.0,0.0,0.0,0.0,0.0,0.0,0.0,0.0,0.0,0.0,0.0,0.0,-0.8051,-0.8255,-0.7813,-0.8196,-0.8685,-0.91,-0.9474,-0.9628,-0.9358,-0.9961,-1.0246,-0.9943,-1.0439,-1.0811,-1.1014,-1.1231,-1.1047,-1.0436,-1.1231,-1.1053,-0.9868,-1.0496,-1.031,-0.9313,-0.9534,-0.9122,-0.8044,-0.814,-0.7906,-0.7323,-0.7323,-0.7323,-0.7323,-0.7323,-0.7323,-0.7288,-0.694,-0.6801,-0.6801,-0.6801,-0.6801,-0.6801,-0.6801,-0.6801,-0.6817,-0.6907,-0.6934,-0.695,-0.7032,-0.7056,-0.7056,-0.7056,-0.7122,-0.719,-0.719,-0.7279,-0.7372,-0.7372,-0.7396,-0.7418,-0.7418,-0.7516,-0.7603,-0.7603,-0.7822,-0.8344,-0.977,-1.1764,-1.3491,-1.4526,-1.5793,-1.6523,-1.6269,-1.6326,-1.551,-1.3536,-1.2707,-1.1606,-1.0015,-0.9094,-0.8512,-0.8139,-0.8051,-0.7814,-0.7426,-0.7304,-0.7143,-0.694,-0.6782,-0.6611,0.0,0.0,0.0,0.0,0.0,0.0,0.0,0.0,0.0,0.0,0.0,0.0,0.0,0.0,0.0,0.0,0.0,0.0,0.0,0.0,0.0,0.0,-0.8689,-0.894,-0.8874,-0.9072,-0.9346,-0.9682,-1.0012,-1.0206,-0.9951,-1.045,-1.064,-1.0542,-1.0956,-1.1246,-1.1444,-1.1576,-1.123,-1.0408,-1.0927,-1.0644,-0.9518,-0.9953,-1.0023,-0.9727,-0.993,-0.9583,-0.8662,-0.8856,-0.8369,-0.7519,-0.7519,-0.7519,-0.7519,-0.7519,-0.7519,-0.7491,0.0,0.0,0.0,0.0,-0.7103,-0.7103,-0.7103,-0.7103,-0.7114,-0.7187,-0.7209,-0.7222,-0.7288,-0.7307,-0.7307,-0.7307,-0.7396,-0.7489,-0.7489,-0.7616,-0.7741,-0.7741,-0.7782,-0.782,-0.782,-0.7875,-0.7924,-0.7924,-0.7978,0.0,-0.9405,-1.1343,-1.3094,-1.3779,-1.5344,-1.6408,-1.609,-1.6002,-1.537,-1.351,-1.2402,-1.1266,-0.9882,-0.8849,0.0,0.0,0.0,-0.7902,-0.7676,-0.7502,0.0,0.0,0.0,-0.6942,-0.6774,-0.67,0.0,0.0,-0.5896,-0.5833,0.0,0.0,0.0,0.0,0.0,0.0,0.0,0.0,0.0,0.0,0.0,0.0,0.0,0.0,0.0,0.0,-0.9152,-0.9549,-0.9993,-1.006,-1.013,-1.0319,-1.0499,-1.0693,-1.091,-1.0953,-1.1118,-1.1491,-1.1539,-1.1628,-1.1808,-1.1737,0.0,0.0,0.0,-1.0301,-0.9975,-0.9868,-1.0014,-1.0301,-1.0435,-0.9979,-0.9046,-0.9062,-0.8491,-0.7559,-0.7573,-0.7578,-0.7581,-0.7592,-0.76,-0.7595,-0.754,-0.7519,-0.7519,-0.7519,-0.7519,-0.7519,-0.7519,0.0,0.0,-0.7554,-0.7568,-0.7581,-0.7595,-0.76,-0.76,-0.76,-0.7676,-0.7763,-0.7763,-0.7918,-0.8076,-0.8076,-0.8157,-0.8236,-0.8236,-0.8247,-0.8255,-0.8255,-0.8266,-0.8403,-0.8657,-1.0409,-1.1949,-1.249,-1.4409,-1.5685,-1.5077,-1.4957,-1.4336,-1.2729,-1.171,0.0,-0.9806,-0.8877,-0.8372,-0.8263,-0.8345,-0.825,-0.7926,-0.7684,-0.7508,-0.7396,-0.7369,-0.7252,-0.7046,-0.7032,-0.6967,-0.6855,-0.6497,-0.6388,0.0,0.0,0.0,0.0,0.0,0.0,0.0,0.0,0.0,0.0,0.0,0.0,0.0,0.0,0.0,-0.9503,-0.9776,-1.0036,-1.0631,-1.0716,-1.0731,-1.0773,-1.0811,-1.0915,-1.1118,-1.1293,-1.143,-1.1515,-1.1666,-1.1779,-1.1813,-1.1339,-1.1287,-1.199,-1.072,-1.0451,-1.1347,-1.1232,-1.0926,-1.0304,-1.1129,0.0,-0.8962,-0.92,-0.8769,-0.7809,-0.7907,-0.7951,-0.7959,-0.8057,-0.8095,-0.8057,-0.7671,-0.7519,-0.7519,-0.7519,-0.7519,-0.7519,-0.7519,-0.7584,-0.7682,-0.7774,-0.7869,-0.797,-0.8068,-0.8095,0.0,-0.8095,-0.8114,-0.8133,-0.8133,-0.8166,-0.8201,-0.8201,-0.8217,-0.8236,-0.8236,-0.8312,-0.8383,-0.8383,-0.8456,-0.8519,-0.8651,-0.9871,-1.0962,-1.1385,-1.2645,-1.3452,-1.2974,-1.2995,-1.2415,-1.0868,-1.0488,-0.9961,-0.8913,-0.8588,-0.8407,-0.8383,-0.8312,-0.8239,-0.8168,-0.7932,-0.7793,-0.7769,-0.7581,-0.7462,-0.7415,-0.7317,-0.7255,-0.7222,-0.6866,-0.6766,0.0,0.0,0.0,0.0,0.0,0.0,0.0,0.0,0.0,0.0,0.0,-0.6791,-0.7656,0.0,-0.8796,-0.9798,-1.0216,-1.0537,-1.0853,-1.0981,-1.1047,-1.1047,-1.1142,-1.1246,-1.1345,-1.1543,-1.1713,-1.1822,-1.1499,-1.1424,-1.1509,-1.0849,-1.0429,-1.0599,-1.0357,-1.0252,-1.0416,-1.042,-1.0461,-1.0547,-1.0625,-1.0102,-0.9207,-0.9403,-0.8859,-0.8057,-0.8117,-0.8144,-0.8149,-0.8209,-0.8236,-0.8212,-0.797,-0.7877,-0.7877,-0.7877,-0.7877,-0.7877,-0.7877,-0.7918,-0.7978,-0.8035,-0.8095,-0.8155,-0.8217,-0.8236,-0.8236,-0.8236,-0.828,-0.8326,-0.8326,-0.8369,-0.841,-0.841,-0.841,-0.841,-0.841,-0.8459,-0.8503,-0.8503,-0.8549,-0.8587,-0.8587,-0.9139,-0.9828,-1.048,-1.1637,-1.231,-1.2145,-1.2153,-1.1796,-1.1094,-1.0571,-1.0044,-0.938,-0.8797,-0.8503,-0.8503,-0.8391,-0.8326,-0.8326,-0.8152,-0.8054,-0.8054,-0.7937,-0.7847,-0.7785,-0.7725,-0.7663,-0.76,-0.7421,-0.7274,0.0,0.0,0.0,0.0,0.0,0.0,0.0,-0.4766,-0.5331,-0.5539,-0.6402,-0.7375,-0.8031,-0.8793,-0.9416,-1.0032,-1.056,-1.091,-1.0948,-1.1132,-1.1255,-1.1255,-1.1411,-1.1534,-1.1572,-1.1761,-1.1968,-1.2181,-1.1581,-1.1315,-1.1656,-1.0771,-1.017,-0.975,-0.9997,-0.9959,-0.9758,-0.94,-0.9713,-1.059,-0.9741,-0.9325,-0.9206,-0.9206,-0.8893,-0.8236,-0.8261,-0.8282,-0.8304,-0.8304,-0.8304,-0.8304,-0.8304,-0.8304,-0.8299,-0.8253,-0.8236,-0.8236,-0.8236,-0.825,-0.8272,-0.8272,-0.8285,-0.8304,-0.8304,-0.8304,-0.8304,-0.8304,-0.8375,-0.8451,-0.8451,-0.8519,-0.8587,-0.8587,-0.8587,-0.8587,-0.8587,-0.8587,-0.8587,-0.8587,-0.8587,-0.8587,-0.8587,-0.8587,-0.8851,-0.9779,-1.0571,-1.1233,-1.1233,-1.1233,-1.1233,-1.1233,-1.0439,-0.9911,-0.9911,-0.9117,-0.8587,-0.8587,-0.8503,-0.8451,-0.8451,-0.8334,-0.8272,-0.8272,-0.8247,-0.8187,-0.8089,-0.8089,-0.8038,-0.7943,-0.7943,-0.7774,-0.3872,-0.4015,-0.4148,-0.4357,-0.442,-0.4488,0.0,-0.486,-0.5223,-0.5899,-0.6884,-0.7824,-0.8677,-0.9526,-1.0267,-1.0731,-1.0849,-1.0957,-1.1137,-1.1345,-1.1482,-1.1482,-1.1505,-1.1586,-1.1765,-1.1978,-1.2186,-1.2389,-1.2477,-1.2679,-1.2904,-1.1999,-1.197,-1.2871,-1.0517,-1.0119,-1.1844,-1.0158,-0.9381,-0.9637,-0.9516,-0.9093,-0.8339,-0.8339,-0.835,-0.8242,-0.835,-0.8454,-0.8549,-0.8549,-0.8549,-0.8549,-0.8549,-0.8549,-0.8522,-0.8312,-0.8236,-0.8236,-0.8236,-0.8307,-0.8397,-0.8397,-0.8467,-0.8549,-0.8549,-0.8549,-0.8549,-0.8549,-0.8557,-0.8568,-0.8568,-0.8579,-0.8587,-0.8587,-0.8587,-0.8587,-0.8587,-0.8587,-0.8587,-0.8587,-0.8587,-0.8587,-0.8587,-0.8587,-0.8587,-0.872,-0.8853,-0.8984,-0.8984,-0.8984,-0.8984,-0.8984,-0.8851,-0.872,-0.872,-0.872,-0.8587,-0.8587,-0.8576,-0.8568,-0.8568,-0.8459,-0.8397,-0.8397,-0.8291,-0.8228,-0.8214,-0.8214,-0.8206,-0.8195,-0.8195,-0.8114,-0.4352,-0.439,-0.4469,-0.464,-0.4735,-0.4833,-0.5002,-0.5371,-0.5764,-0.589,-0.7218,-0.8432,-0.8532,-0.9657,-1.0693,-1.0868,-1.0995,-1.1142,-1.1354,-1.1463,-1.1609,-1.185,-1.1879,-1.1912,-1.1997,-1.2309,-1.254,-1.2625,-1.237,-1.2223,-1.2409,-1.1603,-1.1106,-1.104,-1.0448,-1.0236,-1.0547,-0.9781,-0.9484,-0.9539,-0.8998,-0.8603,-0.8342,-0.8342,-0.8378,-0.8443,-0.8494,-0.8543,-0.8587,-0.8587,-0.8587,-0.8587,-0.8587,-0.8587,-0.8576,-0.8475,-0.844,-0.844,-0.844,-0.8473,-0.8516,-0.8516,-0.8549,-0.8587,-0.8587,-0.8587,-0.8587,-0.8587,-0.8587,-0.8587,-0.8587,-0.8587,-0.8587,-0.8587,-0.8587,-0.8587,-0.8587,-0.8587,-0.8587,-0.8587,-0.8587,-0.8587,-0.8587,-0.8587,-0.8587,-0.8587,-0.8587,-0.8587,-0.8587,-0.8587,-0.8587,-0.8587,-0.8587,-0.8587,-0.8587,-0.8587,-0.8587,-0.8587,-0.8587,-0.8587,-0.8587,-0.8543,-0.8516,-0.8516,-0.8467,-0.844,-0.844,-0.844,-0.844,-0.844,-0.844,-0.8413,-0.4792,-0.4875,-0.483,-0.495,-0.5048,-0.5154,-0.5303,-0.5739,-0.6049,-0.5869,-0.7382,-0.8659,-0.8171,-0.9685,-1.0885,-1.0688,-1.1053,-1.134,-1.1496,-1.1619,-1.1803,-1.2106,-1.2191,-1.2247,-1.2309,-1.2587,-1.2814,-1.2928,-1.2497,-1.219,-1.2373,-1.1557,-1.0782,-1.0179,-1.0343,-1.0121,-0.9394,-0.9156,-0.9117,-0.9157,-0.8497,-0.835,-0.8465,-0.8465,-0.8511,-0.8587,-0.8587,-0.8587,-0.8587,-0.8587,-0.8587,-0.8587,-0.8587,-0.8587,-0.8587,-0.8587,-0.8587,-0.8587,-0.8587,-0.8587,-0.8587,-0.8587,-0.8587,-0.8587,-0.8587,-0.8587,-0.8587,-0.8587,-0.8587,-0.8587,-0.8587,-0.8587,-0.8587,-0.8587,-0.8587,-0.8587,-0.8587,-0.8587,-0.8587,-0.8587,-0.8587,-0.8587,-0.8587,-0.8587,-0.8587,-0.8587,-0.8587,-0.8587,-0.8587,-0.8587,-0.8587,-0.8587,-0.8587,-0.8587,-0.8587,-0.8587,-0.8587,-0.8587,-0.8587,-0.8587,-0.8587,-0.8587,-0.8587,-0.8587,-0.8587,-0.8587,-0.8587,-0.8587,-0.8587,-0.8587,-0.8587,-0.8587,-0.514,-0.517,-0.52,-0.5322,-0.5355,-0.542,-0.5662,-0.5719,-0.579,-0.6026,-0.74,-0.8361,-0.7697,-0.9579,-1.0895,-1.0109,-1.087,-1.151,-1.152,-1.1865,-1.2124,-1.2139,-1.2313,-1.2517,-1.2729,-1.2762,-1.2932,-1.3339,-1.3377,-1.3466,-1.367,-1.2711,-1.2109,-1.2113,-1.0443,-0.9532,-0.9532,-0.8672,-0.8291,-0.8407,-0.841,-0.8473,-0.8581,-0.8581,-0.8584,-0.8587,-0.8587,-0.8587,-0.8587,-0.8587,-0.8587,-0.8587,-0.8587,-0.8587,-0.8587,-0.8587,-0.8587,-0.8587,-0.8587,-0.8587,-0.8587,-0.8587,-0.8587,-0.8587,-0.8587,-0.8587,-0.8587,-0.8587,-0.8587,-0.8587,-0.8587,-0.8587,-0.8587,-0.8587,-0.8587,-0.8587,-0.8587,-0.8587,-0.8587,-0.8587,-0.8587,-0.8587,-0.8587,-0.8587,-0.8587,-0.8587,-0.8587,-0.8587,-0.8587,-0.8587,-0.8587,-0.8587,-0.8587,-0.8587,-0.8587,-0.8587,-0.8587,-0.8587,-0.8587,-0.8587,-0.8587,-0.8587,-0.8587,-0.8587,-0.8587,-0.8587,-0.8587,-0.8587,-0.8587,-0.8587,-0.8587,-0.8587,-0.5298,-0.5306,-0.5336,-0.5458,-0.5551,-0.5651,-0.5809,-0.5909,-0.6013,-0.6173,-0.7099,-0.7831,-0.7638,-0.9079,-1.0314,-1.0019,-1.0879,-1.1567,-1.1699,-1.1959,-1.2191,-1.2323,-1.2526,-1.2739,-1.2947,-1.2965,-1.3084,-1.3367,-1.2917,-1.2653,-1.2715,-1.1752,-1.0955,-1.0446,-0.9761,-0.9212,-0.8675,-0.8422,-0.8378,-0.8418,-0.8494,-0.8552,-0.8587,-0.8587,-0.8587,-0.8587,-0.8587,-0.8587,-0.8587,-0.8587,-0.8587,-0.8587,-0.8587,-0.8587,-0.8587,-0.8587,-0.8587,-0.8587,-0.8587,-0.8587,-0.8587,-0.8587,-0.8587,-0.8587,-0.8587,-0.8587,-0.8587,-0.8587,-0.8587,-0.8587,-0.8587,-0.8587,-0.8587,-0.8587,-0.8587,-0.8587,-0.8587,-0.8587,-0.8587,-0.8587,-0.8587,-0.8587,-0.8587,-0.8587,-0.8587,-0.8587,-0.8587,-0.8587,-0.8587,-0.8587,-0.8587,-0.8587,-0.8587,-0.8587,-0.8587,-0.8587,-0.8587,-0.8587,-0.8587,-0.8587,-0.8587,-0.8587,-0.8587,-0.8587,-0.8587,-0.8587,-0.8587,-0.8587,-0.8587,-0.8587,-0.8587,-0.8587,-0.5499,-0.5529,-0.5578,-0.5657,-0.5768,-0.589,-0.6007,-0.6094,-0.6187,-0.6304,-0.7009,-0.7423,-0.7217,-0.8722,-0.992,-0.962,-1.0733,-1.1671,-1.1798,-1.2068,-1.2295,-1.2422,-1.2635,-1.2847,-1.3046,-1.2786,-1.2794,-1.3004,-1.253,-1.1993,-1.1752,-1.0841,-1.006,-0.9535,-0.9261,-0.8854,-0.8299,-0.8418,-0.8478,-0.8481,-0.8552,-0.8587,-0.8587,-0.8587,-0.8587,-0.8587,-0.8587,-0.8587,-0.8587,-0.8587,-0.8587,-0.8587,-0.8587,-0.8587,-0.8587,-0.8587,-0.8587,-0.8587,-0.8587,-0.8587,-0.8587,-0.8587,-0.8587,-0.8587,-0.8587,-0.8587,-0.8587,-0.8587,-0.8587,-0.8587,-0.8587,-0.8587,-0.8587,-0.8587,-0.8587,-0.8587,-0.8587,-0.8587,-0.8587,-0.8587,-0.8587,-0.8587,-0.8587,-0.8625,-0.8652,-0.8652,-0.869,-0.8685,-0.8598,-0.8587,-0.8587,-0.8587,-0.8587,-0.8587,-0.8587,-0.8587,-0.8587,-0.8587,-0.8587,-0.8587,-0.8587,-0.8587,-0.8587,-0.8587,-0.8587,-0.8587,-0.8587,-0.8587,-0.8587,-0.8587,-0.8587,-0.8587,-0.5733,-0.5817,-0.5904,-0.5904,-0.5999,-0.6124,-0.6241,-0.6274,-0.6309,-0.6415,-0.7033,-0.7332,-0.6537,-0.8326,-0.962,-0.8825,-1.0425,-1.1714,-1.1714,-1.207,-1.2441,-1.2441,-1.2644,-1.2857,-1.3046,-1.232,-1.1921,-1.1981,-1.1993,-1.1631,-1.0789,-0.9954,-0.9417,-0.9424,-0.8802,-0.8421,-0.8426,-0.8532,-0.8587,-0.8587,-0.8587,-0.8587,-0.8587,-0.8587,-0.8587,-0.8587,-0.8587,-0.8587,-0.8587,-0.8587,-0.8587,-0.8587,-0.8587,-0.8587,-0.8587,-0.8587,-0.8587,-0.8587,-0.8587,-0.8587,-0.8587,-0.8587,-0.8587,-0.8587,-0.8587,-0.8587,-0.8587,-0.8587,-0.8587,-0.8587,-0.8587,-0.8587,-0.8587,-0.8587,-0.8587,-0.8587,-0.8587,-0.8587,-0.859,-0.8595,-0.86,-0.8606,-0.8606,-0.8704,-0.878,-0.878,-0.8878,-0.8867,-0.8636,-0.8606,-0.8606,-0.8606,-0.8606,-0.8606,-0.8606,-0.86,-0.8598,-0.8598,-0.859,-0.8587,-0.8587,-0.8587,-0.8587,-0.8587,-0.8587,-0.8587,-0.8587,-0.8587,-0.859,-0.8598,-0.8598,-0.86,-0.5733,-0.5817,-0.5904,-0.5904,-0.6064,-0.623,-0.6263,-0.6333,-0.6401,-0.6431,-0.6534,-0.6634,-0.6437,-0.7431,-0.8127,-0.7928,-0.9611,-1.0884,-1.0884,-1.175,-1.2441,-1.2441,-1.2767,-1.278,-1.202,-1.2094,-1.1579,-1.0179,-1.0061,-0.994,-0.97,-0.8853,-0.8469,-0.8563,-0.8466,-0.8459,-0.8543,-0.8573,-0.8587,-0.8587,-0.8587,-0.8587,-0.8587,-0.8587,-0.8587,-0.8587,-0.8587,-0.8587,-0.8587,-0.8587,-0.8587,-0.8587,-0.8587,-0.8587,-0.8587,-0.8587,-0.8587,-0.8587,-0.8587,-0.8587,-0.8587,-0.8587,-0.8587,-0.8587,-0.8587,-0.8587,-0.8587,-0.8587,-0.8587,-0.8587,-0.8587,-0.8587,-0.8587,-0.8587,-0.8587,-0.8587,-0.8587,-0.8587,-0.8614,-0.8706,-0.8796,-0.8859,-0.8859,-0.8883,-0.8905,-0.8905,-0.8932,-0.8929,-0.8867,-0.8859,-0.8859,-0.8859,-0.8859,-0.8859,-0.8859,-0.8774,-0.8723,-0.8723,-0.8638,-0.8587,-0.8587,-0.8587,-0.8587,-0.8587,-0.8587,-0.8587,-0.8587,-0.8587,-0.8633,-0.8723,-0.8723,-0.8772,-0.5733,-0.5855,-0.5983,-0.5983,-0.6165,-0.6342,-0.6342,-0.6391,-0.6423,-0.6374,-0.6401,-0.642,-0.6372,-0.6997,-0.763,-0.763,-0.924,-1.048,-1.0564,-1.1571,-1.2337,-1.2427,-1.281,-1.2836,-1.2259,-1.19,-1.1269,-1.0668,-0.9819,-0.912,-0.8811,-0.8318,-0.819,-0.8312,-0.8432,-0.8522,-0.8587,-0.8587,-0.8587,-0.8587,-0.8587,-0.8587,-0.8587,-0.8587,-0.8587,-0.8587,-0.8587,-0.8587,-0.8587,-0.8587,-0.8587,-0.8587,-0.8587,-0.8587,-0.8587,-0.8587,-0.8587,-0.8587,-0.8587,-0.8587,-0.8587,-0.8587,-0.8587,-0.8587,-0.8587,-0.8587,-0.8587,-0.8587,-0.8587,-0.8587,-0.8587,-0.8587,-0.8587,-0.8587,-0.8587,-0.86,-0.8658,-0.8668,-0.8704,-0.8826,-0.8905,-0.8951,-0.8951,-0.8997,-0.9033,-0.9033,-0.9073,-0.9106,-0.9106,-0.9016,-0.8951,-0.8951,-0.8951,-0.8951,-0.8951,-0.8889,-0.8851,-0.8851,-0.8785,-0.8747,-0.8747,-0.8747,-0.8747,-0.8747,-0.8747,-0.8747,-0.8747,-0.8747,-0.8783,-0.8851,-0.8851,-0.8886,-0.5727,-0.5893,-0.6062,-0.6156,-0.6321,-0.6388,-0.649,-0.6391,-0.6361,-0.6265,-0.6323,-0.6361,-0.6263,-0.7024,-0.7601,-0.7601,-0.9141,-1.0353,-1.0547,-1.137,-1.2,-1.2309,-1.2697,-1.295,-1.295,-1.1782,-1.1273,-1.1752,-1.0322,-0.9048,-0.8296,-0.8312,-0.8315,-0.8437,-0.8535,-0.8587,-0.8587,-0.8587,-0.8587,-0.8587,-0.8587,-0.8587,-0.8587,-0.8587,-0.8587,-0.8587,-0.8587,-0.8587,-0.8587,-0.8587,-0.8587,-0.8587,-0.8587,-0.8587,-0.8587,-0.8587,-0.8587,-0.8587,-0.8587,-0.8587,-0.8587,-0.8587,-0.8587,-0.8587,-0.8587,-0.8587,-0.8587,-0.8587,-0.8587,-0.8587,-0.8587,-0.8587,-0.8592,-0.8609,-0.8611,-0.8644,-0.8766,-0.8807,-0.8851,-0.8957,-0.8989,-0.8997,-0.8997,-0.9087,-0.9158,-0.9158,-0.9239,-0.9304,-0.9304,-0.9125,-0.8997,-0.8997,-0.8997,-0.8997,-0.8997,-0.8984,-0.8976,-0.8976,-0.8959,-0.8951,-0.8951,-0.8951,-0.8951,-0.8951,-0.8951,-0.8951,-0.8951,-0.8951,-0.8959,-0.8976,-0.8976,-0.8984,-0.5791,-0.5833,-0.6118,-0.6667,-0.6508,-0.6337,-0.6807,-0.6524,-0.614,-0.6121,-0.6132,-0.614,-0.6121,-0.6882,-0.755,-0.755,-0.9069,-1.0353,-1.0547,-1.0835,-1.134,-1.2304,-1.2131,-1.1914,-1.191,-1.19,-1.139,-0.994,-0.9562,-0.9389,-0.929,-0.8645,-0.844,-0.8554,-0.8579,-0.8587,-0.8587,-0.8587,-0.8587,-0.8587,-0.8587,-0.8587,-0.8587,-0.8587,-0.8587,-0.8587,-0.8587,-0.8587,-0.8587,-0.8587,-0.8587,-0.8587,-0.8587,-0.8587,-0.8587,-0.8587,-0.8587,-0.8587,-0.8587,-0.8587,-0.8587,-0.8587,-0.8587,-0.8587,-0.8587,-0.8587,-0.8587,-0.8587,-0.8587,-0.8587,-0.8587,-0.8587,-0.8611,-0.8715,-0.8739,-0.8772,-0.8894,-0.9,-0.9076,-0.9101,-0.9179,-0.9242,-0.9242,-0.9261,-0.9275,-0.9275,-0.9291,-0.9304,-0.9304,-0.9269,-0.9242,-0.9242,-0.9242,-0.9242,-0.9242,-0.9158,-0.9103,-0.9103,-0.9008,-0.8951,-0.8951,-0.8951,-0.8951,-0.8951,-0.8951,-0.8951,-0.8951,-0.8951,-0.9003,-0.9103,-0.9103,-0.9152,-0.6835,-0.6886,-0.7086,-0.7447,-0.7379,-0.7302,-0.7584,-0.7399,-0.7095,-0.6653,-0.6599,-0.6626,-0.6557,-0.6932,-0.7426,-0.798,-0.9096,-1.0133,-1.0522,-1.0649,-1.1124,-1.229,-1.2019,-1.1914,-1.2373,-1.2255,-1.1997,-1.1635,-1.0397,-0.94,-0.8899,-0.8632,-0.853,-0.8587,-0.8587,-0.8587,-0.8587,-0.8587,-0.8587,-0.8587,-0.8587,-0.8587,-0.8587,-0.8587,-0.8587,-0.8587,-0.8587,-0.8587,-0.8587,-0.8587,-0.8587,-0.8587,-0.8587,-0.8587,-0.8587,-0.8587,-0.8587,-0.8587,-0.8587,-0.8587,-0.8587,-0.8587,-0.8587,-0.8587,-0.8587,-0.8587,-0.8587,-0.8587,-0.8587,-0.8587,-0.8587,-0.8636,-0.8698,-0.8755,-0.8867,-0.8976,-0.9035,-0.9139,-0.9223,-0.9223,-0.9266,-0.9304,-0.9304,-0.9304,-0.9304,-0.9304,-0.9304,-0.9304,-0.9304,-0.9304,-0.9304,-0.9304,-0.9304,-0.9304,-0.9304,-0.9256,-0.9223,-0.9223,-0.9166,-0.9136,-0.9136,-0.9136,-0.9136,-0.9136,-0.9136,-0.9136,-0.9136,-0.9136,-0.9166,-0.9223,-0.9223,-0.9253,-0.7737,-0.7816,-0.8027,-0.8121,-0.8128,-0.8125,-0.8276,-0.8176,-0.7854,-0.6979,-0.6856,-0.6901,-0.6879,-0.7093,-0.7616,-0.8487,-0.9366,-1.0112,-1.0754,-1.0651,-1.0918,-1.2281,-1.2019,-1.2029,-1.3065,-1.2731,-1.2719,-1.3084,-1.0838,-0.9017,-0.8307,-0.8486,-0.8587,-0.8587,-0.8587,-0.8587,-0.8587,-0.8587,-0.8587,-0.8587,-0.8587,-0.8587,-0.8587,-0.8587,-0.8587,-0.8587,-0.8587,-0.8587,-0.8587,-0.8587,-0.8587,-0.8587,-0.8587,-0.8587,-0.8587,-0.8587,-0.8587,-0.8587,-0.8587,-0.8587,-0.8587,-0.8587,-0.8587,-0.8587,-0.8587,-0.8587,-0.8587,-0.8587,-0.8587,-0.8592,-0.8619,-0.8698,-0.8783,-0.8837,-0.9014,-0.9171,-0.9171,-0.9239,-0.9304,-0.9304,-0.9304,-0.9304,-0.9304,-0.9304,-0.9304,-0.9304,-0.9304,-0.9304,-0.9304,-0.9304,-0.9304,-0.9304,-0.9304,-0.9304,-0.9304,-0.9304,-0.9304,-0.9304,-0.9304,-0.9304,-0.9304,-0.9304,-0.9304,-0.9304,-0.9304,-0.9304,-0.9304,-0.9304,-0.9304,-0.9304,-0.9304,-0.9304,-0.7658,-0.7646,-0.7944,-0.8652,-0.8308,-0.7929,-0.8476,-0.801,-0.7361,-0.6528,-0.6341,-0.6347,-0.6334,-0.7242,-0.8155,-0.879,-0.996,-1.095,-1.1381,-1.0878,-1.0918,-1.2281,-1.2019,-1.2029,-1.3065,-1.3325,-1.2844,-1.1152,-0.9346,-0.8455,-0.8543,-0.8576,-0.8587,-0.8587,-0.8587,-0.8587,-0.8587,-0.8587,-0.8587,-0.8587,-0.8587,-0.8587,-0.8587,-0.8587,-0.8587,-0.8587,-0.8587,-0.8587,-0.8587,-0.8587,-0.8587,-0.8587,-0.8587,-0.8587,-0.8587,-0.8587,-0.8587,-0.8587,-0.8587,-0.8587,-0.8587,-0.8587,-0.8587,-0.8587,-0.8587,-0.8587,-0.8587,-0.8587,-0.8587,-0.8611,-0.8725,-0.8761,-0.8826,-0.9049,-0.9196,-0.9288,-0.9288,-0.9296,-0.9304,-0.9304,-0.9304,-0.9304,-0.9304,-0.9304,-0.9304,-0.9304,-0.9304,-0.9304,-0.9304,-0.9304,-0.9304,-0.9304,-0.9304,-0.9304,-0.9304,-0.9304,-0.9304,-0.9304,-0.9304,-0.9304,-0.9304,-0.9304,-0.9304,-0.9304,-0.9304,-0.9304,-0.9304,-0.9304,-0.9304,-0.9304,-0.9304,-0.9304,-0.8795,-0.8845,-0.9013,-0.9479,-0.9247,-0.897,-0.915,-0.8871,-0.8342,-0.769,-0.718,-0.7098,-0.7428,-0.7708,-0.8163,-0.9401,-1.019,-1.0849,-1.1264,-1.0897,-1.088,-1.2117,-1.1842,-1.1898,-1.3055,-1.3334,-1.3057,-1.2048,-1.1324,-1.0517,-0.9634,-0.8984,-0.8587,-0.8587,-0.8587,-0.8587,-0.8587,-0.8587,-0.8587,-0.8587,-0.8587,-0.8587,-0.8587,-0.8587,-0.8587,-0.8587,-0.8587,-0.8587,-0.8587,-0.8587,-0.8587,-0.8587,-0.8587,-0.8587,-0.8587,-0.8587,-0.8587,-0.8587,-0.8587,-0.8587,-0.8587,-0.8587,-0.8587,-0.8587,-0.8587,-0.8587,-0.8587,-0.8587,-0.8587,-0.8617,-0.8739,-0.888,-0.903,-0.9196,-0.9272,-0.9304,-0.9304,-0.9304,-0.9304,-0.9304,-0.9304,-0.9304,-0.9304,-0.9304,-0.9304,-0.9304,-0.9304,-0.9304,-0.9304,-0.9304,-0.9304,-0.9304,-0.9304,-0.9304,-0.9304,-0.9304,-0.9304,-0.9304,-0.9304,-0.9304,-0.9304,-0.9304,-0.9304,-0.9304,-0.9304,-0.9304,-0.9304,-0.9304,-0.9304,-0.9304,-0.9304,-0.9304,-0.9384,-0.9507,-0.9587,-0.9729,-0.9658,-0.9535,-0.9474,-0.9294,-0.896,-0.8184,-0.7693,-0.7533,-0.8011,-0.7967,-0.8266,-0.9563,-1.0168,-1.0631,-1.1047,-1.101,-1.1168,-1.2009,-1.2,-1.2217,-1.3051,-1.3082,-1.3102,-1.313,-1.2284,-1.1543,-1.0687,-0.9383,-0.8587,-0.8587,-0.8587,-0.8587,-0.8587,-0.8587,-0.8587,-0.8587,-0.8587,-0.8587,-0.8587,-0.8587,-0.8587,-0.8587,-0.8587,-0.8587,-0.8587,-0.8587,-0.8587,-0.8587,-0.8587,-0.8587,-0.8587,-0.8587,-0.8587,-0.8587,-0.8587,-0.8587,-0.8587,-0.8587,-0.8587,-0.8587,-0.8587,-0.8587,-0.8587,-0.8587,-0.8614,-0.8671,-0.8793,-0.8978,-0.9163,-0.9277,-0.9304,-0.9304,-0.9304,-0.9304,-0.9304,-0.9304,-0.9304,-0.9304,-0.9304,-0.9304,-0.9304,-0.9304,-0.9304,-0.9304,-0.9304,-0.9304,-0.9304,-0.9304,-0.9304,-0.9304,-0.9304,-0.9304,-0.9304,-0.9304,-0.9304,-0.9304,-0.9304,-0.9304,-0.9304,-0.9304,-0.9304,-0.9304,-0.9304,-0.9304,-0.9304,-0.9304,-0.9304,-0.9304,-0.9109,-0.9176,-0.9327,-0.9327,-0.9327,-0.9275,-0.9077,-0.8864,-0.85,-0.7707,-0.7525,-0.7525,-0.7525,-0.7825,-0.8378,-0.9136,-0.9866,-1.0423,-1.0839,-1.143,-1.1898,-1.2115,-1.2687,-1.3065,-1.3065,-1.2609,-1.2756,-1.4154,-1.14,-1.0392,-1.1743,-0.9779,-0.8587,-0.8587,-0.8587,-0.8587,-0.8587,-0.8587,-0.8587,-0.8587,-0.8587,-0.8587,-0.8587,-0.8587,-0.8587,-0.8587,-0.8587,-0.8587,-0.8587,-0.8587,-0.8587,-0.8587,-0.8587,-0.8587,-0.8587,-0.8587,-0.8587,-0.8587,-0.8587,-0.8587,-0.8587,-0.8587,-0.8587,-0.8587,-0.8587,-0.8587,-0.8587,-0.8587,-0.8674,-0.8796,-0.8918,-0.9041,-0.9163,-0.9277,-0.9304,-0.9304,-0.9304,-0.9304,-0.9304,-0.9304,-0.9304,-0.9304,-0.9304,-0.9304,-0.9304,-0.9304,-0.9304,-0.9304,-0.9304,-0.9304,-0.9304,-0.9304,-0.9304,-0.9304,-0.9304,-0.9304,-0.9304,-0.9304,-0.9304,-0.9304,-0.9304,-0.9304,-0.9304,-0.9304,-0.9304,-0.9304,-0.9304,-0.9304,-0.9304,-0.9304,-0.9304,-0.9304,-0.9792,-0.9848,-0.9936,-1.01,-1.0018,-0.9843,-0.9622,-0.9241,-0.8803,-0.837,-0.7861,-0.7664,-0.8033,-0.8234,-0.8517,-0.9232,-0.9975,-1.0527,-1.066,-1.1335,-1.1841,-1.1912,-1.2597,-1.3121,-1.3273,-1.3421,-1.3651,-1.4288,-1.3554,-1.2705,-1.1882,-1.1101,-1.0177,-0.8587,-0.8587,-0.8587,-0.8587,-0.8587,-0.8587,-0.8587,-0.8587,-0.8587,-0.8587,-0.8587,-0.8587,-0.8587,-0.8587,-0.8587,-0.8587,-0.8587,-0.8587,-0.8587,-0.8587,-0.8587,-0.8587,-0.8587,-0.8587,-0.8587,-0.8587,-0.8587,-0.8587,-0.8587,-0.8587,-0.8587,-0.8587,-0.8587,-0.8587,-0.8587,-0.8677,-0.878,-0.8818,-0.8981,-0.9144,-0.9179,-0.9247,-0.9304,-0.9304,-0.9304,-0.9304,-0.9304,-0.9304,-0.9304,-0.9304,-0.9304,-0.9304,-0.9304,-0.9304,-0.9304,-0.9304,-0.9304,-0.9304,-0.9304,-0.9304,-0.9304,-0.9304,-0.9304,-0.9304,-0.9304,-0.9304,-0.9304,-0.9304,-0.9304,-0.9304,-0.9304,-0.9304,-0.9304,-0.9304,-0.9304,-0.9304,-0.9304,-0.9304,-0.9304,-0.9852,-0.9921,-0.998,-1.0226,-1.0167,-1.0017,-0.9873,-0.9506,-0.9155,-0.9016,-0.8592,-0.8392,-0.8758,-0.8836,-0.9013,-0.9582,-1.01,-1.0542,-1.0773,-1.1387,-1.1935,-1.2252,-1.2748,-1.3183,-1.3476,-1.3811,-1.4095,-1.4293,-1.4125,-1.3548,-1.2413,-1.2025,-1.0969,-0.925,-0.8853,-0.8587,-0.8587,-0.8587,-0.8587,-0.8587,-0.8587,-0.8587,-0.8587,-0.8587,-0.8587,-0.8587,-0.8587,-0.8587,0.0,-0.8587,-0.8587,-0.8587,-0.8587,-0.8587,-0.8587,-0.8587,-0.8587,-0.8587,-0.8587,-0.8587,-0.8587,-0.8587,-0.8587,-0.8587,-0.8587,-0.8587,-0.8587,-0.8587,-0.8641,-0.8712,-0.8758,-0.8883,-0.9019,-0.9111,-0.9188,-0.9253,-0.9294,-0.9304,-0.9304,-0.9304,-0.9304,-0.9304,-0.9304,-0.9304,-0.9304,-0.9304,-0.9304,-0.9304,-0.9304,-0.9304,-0.9304,-0.9304,-0.9304,-0.9304,-0.9304,-0.9304,-0.9304,-0.9304,-0.9304,-0.9304,-0.9304,-0.9304,-0.9304,-0.9304,-0.9304,-0.9304,-0.9304,-0.9304,-0.9304,-0.9304,-0.9304,-0.9304,0.0,-0.9518,-0.9604,-0.9911,-0.997,-0.997,-0.997,-0.9791,0.0,-0.9607,-0.9618,-0.9628,-0.9577,-0.959,-0.9732,-1.0095,-1.028,-1.0504,-1.1109,-1.1567,-1.2143,-1.297,-1.3065,-1.323,-1.3651,-1.3896,-1.4109,-1.4298,-1.362,-1.3168,-1.3202,-1.2289,-1.1233,-1.0174,-0.9117,-0.8587,-0.8587,-0.8587,-0.8587,-0.8587,-0.8587,-0.8587,-0.8587,-0.8587,-0.8587,-0.8587,-0.8587,-0.8587,-0.8587,-0.8587,-0.8587,-0.8587,-0.8587,-0.8587,-0.8587,-0.8587,-0.8587,-0.8587,-0.8587,-0.8587,-0.8587,-0.8587,-0.8587,-0.8587,-0.8587,-0.8587,-0.8587,-0.8587,-0.8587,-0.8614,-0.8728,-0.8764,-0.8829,-0.9054,-0.9122,-0.9163,-0.9269,-0.9299,-0.9304,-0.9304,-0.9304,-0.9304,-0.9304,-0.9304,-0.9304,-0.9304,-0.9304,-0.9304,-0.9304,-0.9304,-0.9304,-0.9304,-0.9304,-0.9304,-0.9304,-0.9304,-0.9304,-0.9304,-0.9304,-0.9304,-0.9304,-0.9304,-0.9304,-0.9304,-0.9304,-0.9304,-0.9304,-0.9304,-0.9304,-0.9304,-0.9304,-0.9304,-0.9456,0.0,-1.0202,-1.046,-1.0525,-1.0525,0.0,-1.026,-1.0024,-0.976,-0.9653,-0.9542,-0.943,-0.9605,-0.9886,-0.9981,-1.0319,-1.0664,-1.1132,-1.1699,-1.2313,-1.2984,-1.3065,-1.323,-1.3651,-1.4024,-1.426,-1.4307,-1.4396,-1.3827,-1.2285,-1.1894,-1.0969,-0.8984,-0.872,-0.8587,-0.8587,-0.8587,-0.8587,-0.8587,-0.8587,-0.8587,-0.8587,-0.8587,-0.8587,-0.8587,-0.8587,-0.8587,-0.8587,-0.8587,-0.8587,-0.8587,-0.8587,-0.8587,-0.8587,-0.8587,-0.8587,-0.8587,-0.8587,-0.8587,-0.8587,-0.8587,-0.8587,-0.8587,-0.8587,-0.8587,-0.8587,-0.8587,-0.8587,-0.8595,-0.8622,-0.8701,-0.8785,-0.8842,-0.8997,-0.9141,-0.9169,-0.9242,-0.9304,-0.9304,-0.9304,-0.9304,-0.9304,-0.9304,-0.9304,-0.9304,-0.9304,-0.9304,-0.9304,-0.9304,-0.9304,-0.9304,-0.9304,-0.9304,-0.9304,-0.9304,-0.9304,-0.9304,-0.9304,-0.9304,-0.9304,-0.9304,-0.9304,-0.9304,-0.9304,-0.9304,-0.9304,-0.9304,-0.9304,-0.9304,-0.9304,-0.9304,-0.9184,-0.9676,-1.0242,-1.0622,-1.0719,-1.0755,-1.0876,-1.076,-1.0578,-1.0437,-1.046,-1.038,-1.0062,-1.0326,-1.0493,-1.0392,-1.0707,-1.1038,-1.1557,-1.2091,-1.2587,-1.3017,-1.3154,-1.3339,-1.366,-1.4066,-1.4312,-1.4312,-1.4695,-1.4403,-1.3346,-1.3214,-1.2289,-1.0174,-1.0041,-0.9646,-0.8587,-0.8587,-0.8587,-0.8587,-0.8587,-0.8587,-0.8587,-0.8587,-0.8587,-0.8587,-0.8587,-0.8587,-0.8587,-0.8587,-0.8587,-0.8587,-0.8587,-0.8587,-0.8587,-0.8587,-0.8587,-0.8587,-0.8587,-0.8587,-0.8587,-0.8587,-0.8587,-0.8587,-0.8587,-0.8587,-0.8587,-0.8587,-0.8587,-0.8587,-0.8587,-0.8636,-0.8701,-0.8755,-0.8872,-0.8997,-0.9111,-0.9182,-0.9242,-0.9294,-0.9304,-0.9304,-0.9304,-0.9304,-0.9304,-0.9304,-0.9304,-0.9304,-0.9304,-0.9304,-0.9304,-0.9304,-0.9304,-0.9304,-0.9304,-0.9304,-0.9304,-0.9304,-0.9304,-0.9304,-0.9304,-0.9304,-0.9304,-0.9304,-0.9304,-0.9304,-0.9304,-0.9304,-0.9304,-0.9304,-0.9304,-0.9304,-0.8945,-0.943,-0.9988,-1.0544,-1.0659,-1.0737,-1.1045,-1.1141,-1.1178,-1.1178,-1.1395,-1.1456,-1.0988,-1.1106,-1.1189,-1.0945,-1.1072,-1.1487,-1.2058,-1.2502,-1.2843,-1.3041,-1.3258,-1.3471,-1.367,-1.4066,-1.4312,-1.4312,-1.4695,-1.48,-1.4665,-1.467,-1.3744,-1.163,-1.1497,-1.0571,-0.8587,-0.8587,-0.8587,-0.8587,-0.8587,-0.8587,-0.8587,-0.8587,-0.8587,-0.8587,-0.8587,-0.8587,-0.8587,-0.8587,-0.8587,-0.8587,-0.8587,-0.8587,-0.8587,-0.8587,-0.8587,-0.8587,-0.8587,-0.8587,-0.8587,-0.8587,-0.8587,-0.8587,-0.8587,-0.8587,-0.8587,-0.8587,-0.8587,-0.8587,-0.8587,-0.8587,-0.8614,-0.8717,-0.8755,-0.8826,-0.9033,-0.9109,-0.9163,-0.9258,-0.9294,-0.9304,-0.9304,-0.9304,-0.9304,-0.9304,-0.9304,-0.9304,-0.9304,-0.9304,-0.9304,-0.9304,-0.9304,-0.9304,-0.9304,-0.9304,-0.9304,-0.9304,-0.9304,-0.9304,-0.9304,-0.9304,-0.9304,-0.9304,-0.9304,-0.9304,-0.9304,-0.9304,-0.9304,-0.9304,-0.9304,-0.9304,-0.8834,-0.9292,-0.9946,-1.0315,-1.0387,-1.0514,-1.1003,-1.1298,-1.1467,-1.1467,-1.1679,-1.1676,-1.1281,-1.1278,-1.1206,-1.0988,-1.1316,-1.1817,-1.2101,-1.2502,-1.2843,-1.3041,-1.3258,-1.3471,-1.367,-1.4066,-1.4312,-1.4312,-1.4695,-1.4534,-1.3608,-1.3608,-1.2553,-1.0571,-1.0439,-0.9911,-0.8587,-0.8587,-0.8587,-0.8587,-0.8587,-0.8587,-0.8587,-0.8587,-0.8587,-0.8587,-0.8587,-0.8587,-0.8587,-0.8587,-0.8587,-0.8587,-0.8587,-0.8587,-0.8587,-0.8587,-0.8587,-0.8587,-0.8587,-0.8587,-0.8587,-0.8587,-0.8587,-0.8587,-0.8587,-0.8587,-0.8587,-0.8587,-0.8587,-0.8587,-0.8587,-0.8587,-0.8592,-0.8611,-0.8696,-0.878,-0.8818,-0.8989,-0.9141,-0.9158,-0.9237,-0.9304,-0.9304,-0.9304,-0.9304,-0.9304,-0.9304,-0.9304,-0.9304,-0.9304,-0.9304,-0.9304,-0.9304,-0.9304,-0.9304,-0.9304,-0.9304,-0.9304,-0.9304,-0.9304,-0.9304,-0.9304,-0.9304,-0.9304,-0.9304,-0.9304,-0.9304,-0.9304,-0.9304,-0.9304,-0.9304,-0.9304,-0.8814,-0.916,-0.976,-1.023,-1.0544,-1.0852,-1.125,-1.1546,-1.1745,-1.1745,-1.1822,-1.1758,-1.1397,-1.1394,-1.1414,-1.1392,-1.1728,-1.2063,-1.2271,-1.2663,-1.2965,-1.3055,-1.3353,-1.3632,-1.3844,-1.4133,-1.4359,-1.4477,-1.4761,-1.467,-1.4137,-1.4137,-1.3214,-1.1101,-1.1101,-1.0309,-0.8587,-0.8587,-0.8587,-0.8587,-0.8587,-0.8587,-0.8587,-0.8587,-0.8587,-0.8587,-0.8587,-0.8587,-0.8587,-0.8587,-0.8587,-0.8587,-0.8587,-0.8587,-0.8587,-0.8587,-0.8587,-0.8587,-0.8587,-0.8587,-0.8587,-0.8587,-0.8587,-0.8587,-0.8587,-0.8587,-0.8587,-0.8587,-0.8587,-0.8587,-0.8587,-0.8587,-0.8587,-0.8587,-0.863,-0.869,-0.8755,-0.8859,-0.8976,-0.9109,-0.9177,-0.9231,-0.9294,-0.9304,-0.9304,-0.9304,-0.9304,-0.9304,-0.9304,-0.9304,-0.9304,-0.9304,-0.9304,-0.9304,-0.9304,-0.9304,-0.9304,-0.9304,-0.9304,-0.9304,-0.9304,-0.9304,-0.9304,-0.9304,-0.9304,-0.9304,-0.9304,-0.9304,-0.9304,-0.9304,-0.9304,-0.9304,-0.9179,-0.9381,-0.979,-1.0381,-1.0816,-1.1184,-1.1467,-1.183,-1.2107,-1.2107,-1.2108,-1.1964,-1.1585,-1.158,-1.1619,-1.1798,-1.203,-1.2228,-1.2479,-1.2833,-1.3088,-1.3136,-1.3466,-1.3773,-1.3991,-1.4194,-1.4402,-1.4615,-1.4822,-1.4931,-1.4931,-1.4931,-1.4006,-1.1894,-1.1762,-1.0836,-0.8587,-0.8587,-0.8587,-0.8587,-0.8587,-0.8587,-0.8587,-0.8587,-0.8587,-0.8587,-0.8587,-0.8587,-0.8587,-0.8587,-0.8587,-0.8587,-0.8587,-0.8587,-0.8587,-0.8587,-0.8587,-0.8587,-0.8587,-0.8587,-0.8587,-0.8587,-0.8587,-0.8587,-0.8587,-0.8587,-0.8587,-0.8587,-0.8587,-0.8587,-0.8587,-0.8587,-0.8587,-0.8587,-0.8587,-0.8611,-0.8706,-0.875,-0.8826,-0.9014,-0.9095,-0.9163,-0.9247,-0.9285,-0.9304,-0.9304,-0.9304,-0.9304,-0.9304,-0.9304,-0.9304,-0.9304,-0.9304,-0.9304,-0.9304,-0.9304,-0.9304,-0.9304,-0.9304,-0.9304,-0.9304,-0.9304,-0.9304,-0.9304,-0.9304,-0.9304,-0.9304,-0.9304,-0.9304,-0.9304,-0.9304,-0.9304,-1.021,-1.0199,-1.0399,-1.0924,-1.1081,-1.1184,-1.1467,-1.2113,-1.265,-1.265,-1.2633,-1.2614,-1.239,-1.1863,-1.1614,-1.2044,-1.2129,-1.228,-1.2687,-1.2928,-1.314,-1.3343,-1.3556,-1.3773,-1.3991,-1.4194,-1.4402,-1.4615,-1.4822,-1.4931,-1.4931,-1.4931,-1.4006,-1.1894,-1.1762,-1.0836,-0.8587,-0.8587,-0.8587,-0.8587,-0.8587,-0.8587,-0.8587,-0.8587,-0.8587,-0.8587,-0.8587,-0.8587,-0.8587,-0.8587,-0.8587,-0.8587,-0.8587,-0.8587,-0.8587,-0.8587,-0.8587,-0.8587,-0.8587,-0.8587,-0.8587,-0.8587,-0.8587,-0.8587,-0.8587,-0.8587,-0.8587,-0.8587,-0.8587,-0.8587,-0.8587,-0.8587,-0.8587,-0.8587,-0.8587,-0.859,-0.8598,-0.869,-0.8777,-0.8793,-0.8978,-0.9136,-0.9147,-0.9234,-0.9304,-0.9304,-0.9304,-0.9304,-0.9304,-0.9304,-0.9304,-0.9304,-0.9304,-0.9304,-0.9304,-0.9304,-0.9304,-0.9304,-0.9304,-0.9304,-0.9304,-0.9304,-0.9304,-0.9304,-0.9304,-0.9304,-0.9304,-0.9304,-0.9304,-0.9304,-0.9304,-0.9304,-1.045,-1.052,-1.0867,-1.1052,-1.1486,-1.1932,-1.2198,-1.2626,-1.3012,-1.3175,-1.3036,-1.2847,-1.2375,-1.2729,-1.2789,-1.2221,-1.2567,-1.3013,-1.2855,-1.3055,-1.3296,-1.3381,-1.3566,-1.3825,-1.4166,-1.4265,-1.4454,-1.4794,-1.4889,-1.4931,-1.4931,-1.4931,-1.4006,-1.1894,-1.1762,-1.0836,-0.8587,-0.8587,-0.8587,-0.8587,-0.8587,-0.8587,-0.8587,-0.8587,-0.8587,-0.8587,-0.8587,-0.8587,-0.8587,-0.8587,-0.8587,-0.8587,-0.8587,-0.8587,-0.8587,-0.8587,-0.8587,-0.8587,-0.8587,-0.8587,-0.8587,-0.8587,-0.8587,-0.8587,-0.8587,-0.8587,-0.8587,-0.8587,-0.8587,-0.8587,-0.8587,-0.8587,-0.8587,-0.8587,-0.8587,-0.8587,-0.8587,-0.8625,-0.8679,-0.8755,-0.8845,-0.8957,-0.9109,-0.9169,-0.9223,-0.9294,-0.9304,-0.9304,-0.9304,-0.9304,-0.9304,-0.9304,-0.9304,-0.9304,-0.9304,-0.9304,-0.9304,-0.9304,-0.9304,-0.9304,-0.9304,-0.9304,-0.9304,-0.9304,-0.9304,-0.9304,-0.9304,-0.9304,-0.9304,-0.9304,-0.9304,-0.9304,-1.0615,-1.0786,-1.1018,-1.1289,-1.1908,-1.253,-1.288,-1.3175,-1.3423,-1.3604,-1.3344,-1.305,-1.2835,-1.3086,-1.3113,-1.2544,-1.2964,-1.3223,-1.2964,-1.3164,-1.341,-1.3476,-1.3665,-1.3929,-1.4274,-1.4374,-1.4558,-1.4907,-1.4931,-1.4931,-1.4931,-1.4931,-1.4006,-1.1894,-1.1762,-1.0836,-0.8587,-0.8587,-0.8587,-0.8587,-0.8587,-0.8587,-0.8587,-0.8587,-0.8587,-0.8587,-0.8587,-0.8587,-0.8587,-0.8587,-0.8587,-0.8587,-0.8587,-0.8587,-0.8587,-0.8587,-0.8587,-0.8587,-0.8587,-0.8587,-0.8587,-0.8587,-0.8587,-0.8587,-0.8587,-0.8587,-0.8587,-0.8587,-0.8587,-0.8587,-0.8587,-0.8587,-0.8587,-0.8587,-0.8587,-0.8587,-0.8587,-0.8587,-0.8611,-0.8696,-0.8745,-0.8823,-0.8989,-0.9084,-0.916,-0.9239,-0.928,-0.9304,-0.9304,-0.9304,-0.9304,-0.9304,-0.9304,-0.9304,-0.9304,-0.9304,-0.9304,-0.9304,-0.9304,-0.9304,-0.9304,-0.9304,-0.9304,-0.9304,-0.9304,-0.9304,-0.9304,-0.9304,-0.9304,-0.9304,-0.9304,-0.9304,-1.0836,-1.0936,-1.0912,-1.1721,-1.2318,-1.285,-1.3393,-1.3719,-1.3912,-1.3918,-1.346,-1.326,-1.3843,-1.2881,-1.2423,-1.3176,-1.3072,-1.2843,-1.3041,-1.3254,-1.3466,-1.3665,-1.3882,-1.409,-1.4288,-1.4506,-1.4714,-1.4917,-1.4931,-1.4931,-1.4931,-1.4931,-1.4006,-1.1894,-1.1762,-1.0836,-0.8587,-0.8587,-0.8587,-0.8587,-0.8587,-0.8587,-0.8587,-0.8587,-0.8587,-0.8587,-0.8587,-0.8587,-0.8587,-0.8587,-0.8587,-0.8587,-0.8587,-0.8587,-0.8587,-0.8587,-0.8587,-0.8587,-0.8587,-0.8587,-0.8587,-0.8587,-0.8587,-0.8587,-0.8587,-0.8587,-0.8587,-0.8587,-0.8587,-0.8587,-0.8587,-0.8587,-0.8587,-0.8587,-0.8587,-0.8587,-0.8587,-0.8587,-0.8587,-0.8587,-0.8685,-0.8769,-0.8769,-0.897,-0.913,-0.9133,-0.9231,-0.9302,-0.9304,-0.9304,-0.9304,-0.9304,-0.9304,-0.9304,-0.9304,-0.9304,-0.9304,-0.9304,-0.9304,-0.9304,-0.9304,-0.9304,-0.9304,-0.9304,-0.9304,-0.9304,-0.9304,-0.9304,-0.9304,-0.9304,-0.9304,-0.9304,-1.1361,-1.1421,-1.1345,-1.1793,-1.2463,-1.3091,-1.3435,-1.3857,-1.4292,-1.4672,-1.482,-1.4688,-1.4427,-1.4278,-1.404,-1.3617,-1.3511,-1.3507,-1.3379,-1.3471,-1.3622,-1.3679,-1.3882,-1.409,-1.4288,-1.4506,-1.4714,-1.4917,-1.4931,-1.4931,-1.4931,-1.4931,-1.4006,-1.1894,-1.1762,-1.0836,-0.8587,-0.8587,-0.8587,-0.8587,-0.8587,-0.8587,-0.8587,-0.8587,-0.8587,-0.8587,-0.8587,-0.8587,-0.8587,-0.8587,-0.8587,-0.8587,-0.8587,-0.8587,-0.8587,-0.8587,-0.8587,-0.8587,-0.8587,-0.8587,-0.8587,-0.8587,-0.8587,-0.8587,-0.8587,-0.8587,-0.8587,-0.8587,-0.8587,-0.8587,-0.8587,-0.8587,-0.8587,-0.8587,-0.8587,-0.8587,-0.8587,-0.8587,-0.8587,-0.8587,-0.8617,-0.8668,-0.8755,-0.8831,-0.8938,-0.9109,-0.9163,-0.9215,-0.9294,-0.9304,-0.9304,-0.9304,-0.9304,-0.9304,-0.9304,-0.9304,-0.9304,-0.9304,-0.9304,-0.9304,-0.9304,-0.9304,-0.9304,-0.9304,-0.9304,-0.9304,-0.9304,-0.9304,-0.9304,-0.9304,-0.9304,-0.9304,-1.1029,-1.1294,-1.1409,-1.1824,-1.2608,-1.3405,-1.3882,-1.4238,-1.4588,-1.5022,-1.5112,-1.5007,-1.4796,-1.4583,-1.4249,-1.3724,-1.368,-1.3587,-1.3489,-1.3561,-1.3688,-1.3688,-1.3948,-1.418,-1.4298,-1.4577,-1.4804,-1.4922,-1.4931,-1.4931,-1.4931,-1.4534,-1.3477,-1.1894,-1.1365,-1.0306,-0.8587,-0.8587,-0.8587,-0.8587,-0.8587,-0.8587,-0.8587,-0.8587,-0.8587,-0.8587,-0.8587,-0.8587,-0.8587,-0.8587,-0.8587,-0.8587,-0.8587,-0.8587,-0.8587,-0.8587,-0.8587,-0.8587,-0.8587,-0.8587,-0.8587,-0.8587,-0.8587,-0.8587,-0.8587,-0.8587,-0.8587,-0.8587,-0.8587,-0.8587,-0.8587,-0.8587,-0.8587,-0.8587,-0.8587,-0.8587,-0.8587,-0.8587,-0.8587,-0.8587,-0.8587,-0.8611,-0.8685,-0.8739,-0.8821,-0.8967,-0.9073,-0.9177,-0.9291,-0.9304,-0.9304,-0.9304,-0.9304,-0.9304,-0.9304,-0.9304,-0.9304,-0.9304,-0.9304,-0.9304,-0.9304,-0.9304,-0.9304,-0.9304,-0.9304,-0.9304,-0.9304,-0.9304,-0.9304,-0.9304,-0.9304,-0.9304,-1.0172,-1.0713,-1.1238,-1.1787,-1.2723,-1.3725,-1.4533,-1.4739,-1.4829,-1.5089,-1.4941,-1.4778,-1.5024,-1.4379,-1.3649,-1.3689,-1.359,-1.3395,-1.3414,-1.3575,-1.3698,-1.3717,-1.4071,-1.4317,-1.434,-1.47,-1.4931,-1.4931,-1.4931,-1.4931,-1.4931,-1.3875,-1.2816,-1.1894,-1.0704,-0.9646,-0.8587,-0.8587,-0.8587,-0.8587,-0.8587,-0.8587,-0.8587,-0.8587,-0.8587,-0.8587,-0.8587,-0.8587,-0.8587,-0.8587,-0.8587,-0.8587,-0.8587,-0.8587,-0.8587,-0.8587,-0.8587,-0.8587,-0.8587,-0.8587,-0.8587,-0.8587,-0.8587,-0.8587,-0.8587,-0.8587,-0.8587,-0.8587,-0.8587,-0.8587,-0.8587,-0.8587,-0.8587,-0.8587,-0.8587,-0.8587,-0.8587,-0.8587,-0.8587,-0.8587,-0.8587,-0.8587,-0.8587,-0.8679,-0.8761,-0.8783,-0.8984,-0.9177,-0.9291,-0.9304,-0.9304,-0.9304,-0.9304,-0.9304,-0.9304,-0.9304,-0.9304,-0.9304,-0.9304,-0.9304,-0.9304,-0.9304,-0.9304,-0.9304,-0.9304,-0.9304,-0.9304,-0.9304,-0.9304,-0.9304,-0.9304,-0.9304,-1.0575,-1.0994,-1.1238,-1.1787,-1.2723,-1.3725,-1.4533,-1.4877,-1.5101,-1.536,-1.5521,-1.5672,-1.5934,-1.5043,-1.4431,-1.4786,-1.4018,-1.3443,-1.3603,-1.366,-1.375,-1.3925,-1.4161,-1.4378,-1.4548,-1.4789,-1.4931,-1.4931,-1.4931,-1.4931,-1.4931,-1.3875,-1.2816,-1.1894,-1.0704,-0.9646,-0.8587,-0.8587,-0.8587,-0.8587,-0.8587,-0.8587,-0.8587,-0.8587,-0.8587,-0.8587,-0.8587,-0.8587,-0.8587,-0.8587,-0.8587,-0.8587,-0.8587,-0.8587,-0.8587,-0.8587,-0.8587,-0.8587,-0.8587,-0.8587,-0.8587,-0.8587,-0.8587,-0.8587,-0.8587,-0.8587,-0.8587,-0.8587,-0.8587,-0.8587,-0.8587,-0.8587,-0.8587,-0.8587,-0.8587,-0.8587,-0.8587,-0.8587,-0.8587,-0.8587,-0.8587,-0.8587,-0.8587,-0.8609,-0.869,-0.8883,-0.9038,-0.9177,-0.9291,-0.9304,-0.9304,-0.9304,-0.9304,-0.9304,-0.9304,-0.9304,-0.9304,-0.9304,-0.9304,-0.9304,-0.9304,-0.9304,-0.9304,-0.9304,-0.9304,-0.9304,-0.9304,-0.9304,-0.9304,-0.9304,-0.9304,-0.9304,-1.0277,-1.0824,-1.1365,-1.2421,-1.3103,-1.3688,-1.4364,-1.4823,-1.5149,-1.5282,-1.562,-1.5863,-1.5908,-1.5171,-1.4703,-1.4709,-1.4045,-1.357,-1.3674,-1.3688,-1.3769,-1.3986,-1.4189,-1.4397,-1.4615,-1.4818,-1.4931,-1.4931,-1.4931,-1.467,-1.4137,-1.321,-1.2157,-1.1101,-1.0044,-0.9117,-0.8587,-0.8587,-0.8587,-0.8587,-0.8587,-0.8587,-0.8587,-0.8587,-0.8587,-0.8587,-0.8587,-0.8587,-0.8587,-0.8587,-0.8587,-0.8587,-0.8587,-0.8587,-0.8587,-0.8587,-0.8587,-0.8587,-0.8587,-0.8587,-0.8587,-0.8587,-0.8587,-0.8587,-0.8587,-0.8587,-0.8587,-0.8587,-0.8587,-0.8587,-0.8587,-0.8587,-0.8587,-0.8587,-0.8587,-0.8587,-0.8587,-0.8587,-0.8587,-0.8587,-0.8587,-0.8587,-0.8587,-0.8587,-0.8671,-0.8916,-0.9005,-0.9109,-0.928,-0.9304,-0.9304,-0.9304,-0.9304,-0.9304,-0.9304,-0.9304,-0.9304,-0.9304,-0.9304,-0.9304,-0.9304,-0.9304,-0.9304,-0.9304,-0.9304,-0.9304,-0.9304,-0.9304,-0.9304,-0.9304,-0.9304,-0.9304,-0.9788,-1.058,-1.1606,-1.3079,-1.3483,-1.3664,-1.4238,-1.4751,-1.5119,-1.5167,-1.5559,-1.5875,-1.5644,-1.5306,-1.4852,-1.467,-1.4163,-1.3808,-1.3808,-1.3808,-1.3783,-1.4033,-1.4208,-1.4411,-1.4662,-1.4837,-1.4931,-1.4931,-1.4931,-1.4534,-1.3608,-1.2421,-1.1365,-1.0439,-0.925,-0.8587,-0.8587,-0.8587,-0.8587,-0.8587,-0.8587,-0.8587,-0.8587,-0.8587,-0.8587,-0.8587,-0.8587,-0.8587,-0.8587,-0.8587,-0.8587,-0.8587,-0.8587,-0.8587,-0.8587,-0.8587,-0.8587,-0.8587,-0.8587,-0.8587,-0.8587,-0.8587,-0.8587,-0.8587,-0.8587,-0.8587,-0.8587,-0.8587,-0.8587,-0.8587,-0.8587,-0.8587,-0.8587,-0.8587,-0.8587,-0.8587,-0.8587,-0.8587,-0.8587,-0.8587,-0.8587,-0.8587,-0.8587,-0.8587,-0.8671,-0.8916,-0.8951,-0.9038,-0.9272,-0.9304,-0.9304,-0.9304,-0.9304,-0.9304,-0.9304,-0.9304,-0.9304,-0.9304,-0.9304,-0.9304,-0.9304,-0.9304,-0.9304,-0.9304,-0.9304,-0.9304,-0.9304,-0.9304,-0.9304,-0.9304,-0.9304,-0.9304,-0.9717,-1.0858,-1.2035,-1.2952,-1.3344,-1.3719,-1.4485,-1.4896,-1.5173,-1.5403,-1.5686,-1.6042,-1.6438,-1.5985,-1.5699,-1.6172,-1.5203,-1.451,-1.451,-1.4043,-1.3835,-1.4222,-1.4293,-1.4463,-1.4855,-1.4917,-1.4931,-1.4931,-1.4931,-1.48,-1.467,-1.282,-1.1762,-1.163,-0.9646,-0.8587,-0.8587,-0.8587,-0.8587,-0.8587,-0.8587,-0.8587,-0.8587,-0.8587,-0.8587,-0.8587,-0.8587,-0.8587,-0.8587,-0.8587,-0.8587,-0.8587,-0.8587,-0.8587,-0.8587,-0.8587,-0.8587,-0.8587,-0.8587,-0.8587,-0.8587,-0.8587,-0.8587,-0.8587,-0.8587,-0.8587,-0.8587,-0.8587,-0.8587,-0.8587,-0.8587,-0.8587,-0.8587,-0.8587,-0.8587,-0.8587,-0.8587,-0.8587,-0.8587,-0.8587,-0.8587,-0.8587,-0.8587,-0.8587,-0.8671,-0.8916,-0.8951,-0.9038,-0.9272,-0.9304,-0.9304,-0.9304,-0.9304,-0.9304,-0.9304,-0.9304,-0.9304,-0.9304,-0.9304,-0.9304,-0.9304,-0.9304,-0.9304,-0.9304,-0.9304,-0.9304,-0.9304,-0.9304,-0.9304,-0.9304,-0.9304,-0.9304,-0.979,-1.0912,-1.189,-1.2687,-1.3206,-1.3646,-1.4147,-1.4588,-1.4962,-1.5228,-1.5487,-1.5831,-1.6368,-1.6016,-1.5665,-1.5793,-1.514,-1.451,-1.4157,-1.3923,-1.3844,-1.426,-1.4312,-1.4473,-1.4893,-1.4931,-1.4931,-1.4931,-1.4931,-1.467,-1.4006,-1.2553,-1.1497,-1.0969,-0.9383,-0.8587,-0.8587,-0.8587,-0.8587,-0.8587,-0.8587,-0.8587,-0.8587,-0.8587,-0.8587,-0.8587,-0.8587,-0.8587,-0.8587,-0.8587,-0.8587,-0.8587,-0.8587,-0.8587,-0.8587,-0.8587,-0.8587,-0.8587,-0.8587,-0.8587,-0.8587,-0.8587,-0.8587,-0.8587,-0.8587,-0.8587,-0.8587,-0.8587,-0.8587,-0.8587,-0.8587,-0.8587,-0.8587,-0.8587,-0.8587,-0.8587,-0.8587,-0.8587,-0.8587,-0.8587,-0.8587,-0.8587,-0.8587,-0.8587,-0.8671,-0.8916,-0.8951,-0.9038,-0.9272,-0.9304,-0.9304,-0.9304,-0.9304,-0.9304,-0.9304,-0.9304,-0.9304,-0.9304,-0.9304,-0.9304,-0.9304,-0.9304,-0.9304,-0.9304,-0.9304,-0.9304,-0.9304,-0.9304,-0.9304,-0.9304,-0.9304,-0.9304,-0.9778,-1.0761,-1.16,-1.2324,-1.2964,-1.3501,-1.3833,-1.4328,-1.4793,-1.5052,-1.5318,-1.5638,-1.6097,-1.6062,-1.5778,-1.5522,-1.5024,-1.4564,-1.4038,-1.3808,-1.3825,-1.4189,-1.4279,-1.4454,-1.4822,-1.4903,-1.4931,-1.4931,-1.4931,-1.4403,-1.3346,-1.2289,-1.1365,-1.0174,-0.9117,-0.8587,-0.8587,-0.8587,-0.8587,-0.8587,-0.8587,-0.8587,-0.8587,-0.8587,-0.8587,-0.8587,-0.8587,-0.8587,-0.8587,-0.8587,-0.8587,-0.8587,-0.8587,-0.8587,-0.8587,-0.8587,-0.8587,-0.8587,-0.8587,-0.8587,-0.8587,-0.8587,-0.8587,-0.8587,-0.8587,-0.8587,-0.8587,-0.8587,-0.8587,-0.8587,-0.8587,-0.8587,-0.8587,-0.8587,-0.8587,-0.8587,-0.8587,-0.8587,-0.8587,-0.8587,-0.8587,-0.8587,-0.8587,-0.8587,-0.8671,-0.8916,-0.8951,-0.9038,-0.9272,-0.9304,-0.9304,-0.9304,-0.9304,-0.9304,-0.9304,-0.9304,-0.9304,-0.9304,-0.9304,-0.9304,-0.9304,-0.9304,-0.9304,-0.9304,-0.9304,-0.9304,-0.9304,-0.9304,-0.9304,-0.9304,-0.9304,-0.9304,-0.943,-1.0275,-1.1268,-1.1823,-1.256,-1.3278,-1.3791,-1.4328,-1.4793,-1.5052,-1.5318,-1.5584,-1.5861,-1.6127,-1.6249,-1.6086,-1.5588,-1.4971,-1.4599,-1.4043,-1.3773,-1.4,-1.4194,-1.4402,-1.4629,-1.4822,-1.4931,-1.4931,-1.4931,-1.4403,-1.3346,-1.2289,-1.1365,-1.0174,-0.9117,-0.8587,-0.8587,-0.8587,-0.8587,-0.8587,-0.8587,-0.8587,-0.8587,-0.8587,-0.8587,-0.8587,-0.8587,-0.8587,-0.8587,-0.8587,-0.8587,-0.8587,-0.8587,-0.8587,-0.8587,-0.8587,-0.8587,-0.8587,-0.8587,-0.8587,-0.8587,-0.8587,-0.8587,-0.8587,-0.8587,-0.8587,-0.8587,-0.8587,-0.8587,-0.8587,-0.8587,-0.8587,-0.8587,-0.8587,-0.8587,-0.8587,-0.8587,-0.8587,-0.8587,-0.8587,-0.8587,-0.8587,-0.8587,-0.8587,-0.8671,-0.8916,-0.8951,-0.9038,-0.9272,-0.9304,-0.9304,-0.9304,-0.9304,-0.9304,-0.9304,-0.9304,-0.9304,-0.9304,-0.9304,-0.9304,-0.9304,-0.9304,-0.9304,-0.9304,-0.9304,-0.9304,-0.9304,-0.9304,-0.9304,-0.9304,-0.9304,-0.9304,-0.91,-0.9928,-1.0737,-1.1268,-1.2131,-1.2952,-1.332,-1.3815,-1.4322,-1.4769,-1.5065,-1.533,-1.559,-1.5988,-1.6124,-1.5646,-1.5368,-1.5141,-1.4987,-1.4193,-1.3889,-1.4592,-1.4317,-1.4255,-1.46,-1.47,-1.4794,-1.4922,-1.4931,-1.4403,-1.3346,-1.2289,-1.1365,-1.0174,-0.9117,-0.8587,-0.8587,-0.8587,-0.8587,-0.8587,-0.8587,-0.8587,-0.8587,-0.8587,-0.8587,-0.8587,-0.8587,-0.8587,-0.8587,-0.8587,-0.8587,-0.8587,-0.8587,-0.8587,-0.8587,-0.8587,-0.8587,-0.8587,-0.8587,-0.8587,-0.8587,-0.8587,-0.8587,-0.8587,-0.8587,-0.8587,-0.8587,-0.8587,-0.8587,-0.8587,-0.8587,-0.8587,-0.8587,-0.8587,-0.8587,-0.8587,-0.8587,-0.8587,-0.8587,-0.8587,-0.8587,-0.8587,-0.8587,-0.8652,-0.8761,-0.8927,-0.9019,-0.9125,-0.9283,-0.9304,-0.9304,-0.9304,-0.9304,-0.9304,-0.9304,-0.9304,-0.9304,-0.9304,-0.9304,-0.9304,-0.9304,-0.9304,-0.9304,-0.9304,-0.9304,-0.9304,-0.9304,-0.9304,-0.9304,-0.9304,-0.9304,-0.9304,-0.8819,-0.9454,-1.0143,-1.0828,-1.1715,-1.2536,-1.2898,-1.3459,-1.4032,-1.4485,-1.4787,-1.5083,-1.5433,-1.5783,-1.5856,-1.5372,-1.5233,-1.527,-1.5198,-1.4662,-1.4371,-1.4837,-1.4568,-1.4365,-1.4397,-1.4487,-1.461,-1.4818,-1.4832,-1.4205,-1.2812,-1.2157,-1.1101,-0.9646,-0.8984,-0.8587,-0.8587,-0.8587,-0.8587,-0.8587,-0.8587,-0.8587,-0.8587,-0.8587,-0.8587,-0.8587,-0.8587,-0.8587,-0.8587,-0.8587,-0.8587,-0.8587,-0.8587,-0.8587,-0.8587,-0.8587,-0.8587,-0.8587,-0.8587,-0.8587,-0.8587,-0.8587,-0.8587,-0.8587,-0.8587,-0.8587,-0.8587,-0.8587,-0.8587,-0.8587,-0.8587,-0.8587,-0.8587,-0.8587,-0.8587,-0.8587,-0.8587,-0.8587,-0.8587,-0.8587,-0.8587,-0.86,-0.8641,-0.8717,-0.8826,-0.8989,-0.9082,-0.9177,-0.9291,-0.9304,-0.9304,-0.9304,-0.9304,-0.9304,-0.9304,-0.9304,-0.9304,-0.9304,-0.9304,-0.9304,-0.9304,-0.9304,-0.9304,-0.9304,-0.9304,-0.9304,-0.9304,-0.9304,-0.9304,-0.9304,-0.9304,-0.9304,0.0,0.0,0.0,-1.0502,-1.1304,-1.2035,-1.256,-1.3296,-1.3948,-1.4226,-1.4509,-1.4865,-1.5384,-1.5481,-1.5446,-1.5298,-1.528,-1.5233,-1.5254,-1.5208,-1.5072,-1.4713,-1.4821,-1.4724,-1.401,-1.4189,-1.4392,-1.461,-1.4629,-1.3677,-1.1878,-1.1758,-1.0704,-0.872,-0.8587,-0.8587,-0.8587,-0.8587,-0.8587,-0.8587,-0.8587,-0.8587,-0.8587,-0.8587,-0.8587,-0.8587,-0.8587,-0.8587,-0.8587,-0.8587,-0.8587,-0.8587,-0.8587,-0.8587,-0.8587,-0.8587,-0.8587,-0.8587,-0.8587,-0.8587,-0.8587,-0.8587,-0.8587,-0.8587,-0.8587,-0.8587,-0.8587,-0.8587,-0.8587,-0.8587,-0.8587,-0.8587,-0.8587,-0.8587,-0.8587,-0.8587,-0.8587,-0.8587,-0.8587,-0.8587,-0.8587,-0.8628,-0.875,-0.8774,-0.8856,-0.9098,-0.9136,-0.9179,-0.9291,-0.9304,-0.9304,-0.9304,-0.9304,-0.9304,-0.9304,-0.9304,-0.9304,-0.9304,-0.9304,-0.9304,-0.9304,-0.9304,-0.9304,-0.9304,-0.9304,-0.9304,-0.9304,-0.9304,-0.9304,-0.9304,-0.9304,-0.9304,-0.8837,0.0,0.0,0.0,0.0,0.0,-1.2017,-1.2608,-1.3224,-1.3882,-1.4226,-1.4521,-1.4871,-1.5089,-1.5221,-1.5446,-1.5383,-1.5447,-1.5923,-1.5428,-1.4943,-1.5062,-1.4682,-1.4262,-1.3981,-1.4062,-1.418,-1.4383,-1.377,-1.2843,-1.159,-1.0254,-0.925,-0.8587,-0.8587,-0.8587,-0.8587,-0.8587,-0.8587,-0.8587,-0.8587,-0.8587,-0.8587,-0.8587,-0.8587,-0.8587,-0.8587,-0.8587,-0.8587,-0.8587,-0.8587,-0.8587,-0.8587,-0.8587,-0.8587,-0.8587,-0.8587,-0.8587,-0.8587,-0.8587,-0.8587,-0.8587,-0.8587,-0.8587,-0.8587,-0.8587,-0.8587,-0.8587,-0.8587,-0.8587,-0.8587,-0.8587,-0.8587,-0.8587,-0.8587,-0.8587,-0.8587,-0.8587,-0.8587,-0.8587,-0.8587,-0.8628,-0.875,-0.8842,-0.8954,-0.9111,-0.9204,-0.9269,-0.9299,-0.9304,-0.9304,-0.9304,-0.9304,-0.9304,-0.9304,-0.9304,-0.9304,-0.9304,-0.9304,-0.9304,-0.9304,-0.9304,-0.9304,-0.9304,-0.9304,-0.9304,-0.9304,-0.9304,-0.9304,-0.9304,-0.9304,-0.9304,0.0,0.0,-0.9258,-0.9736,0.0,0.0,-1.1461,-1.2077,-1.2705,-1.3284,-1.3707,-1.4087,-1.4473,-1.4666,-1.4896,-1.5276,-1.5275,-1.5476,-1.6235,-1.5748,-1.5373,-1.539,-1.485,-1.4422,-1.4067,-1.387,-1.3747,-1.3527,-1.3026,-1.227,-1.1002,-0.9839,-0.9117,-0.8587,-0.8587,-0.8587,-0.8587,-0.8587,-0.8587,-0.8587,-0.8587,-0.8587,-0.8587,-0.8587,-0.8587,-0.8587,-0.8587,-0.8587,-0.8587,-0.8587,-0.8587,-0.8587,-0.8587,-0.8587,-0.8587,-0.8587,-0.8587,-0.8587,-0.8587,-0.8587,-0.8587,-0.8587,-0.8587,-0.8587,-0.8587,-0.8587,-0.8587,-0.8587,-0.8587,-0.8587,-0.8587,-0.8587,-0.8587,-0.8587,-0.8587,-0.8587,-0.8587,-0.8587,-0.8587,-0.8587,-0.8628,-0.8704,-0.8823,-0.8948,-0.9068,-0.9188,-0.9261,-0.9304,-0.9304,-0.9304,-0.9304,-0.9304,-0.9304,-0.9304,-0.9304,-0.9304,-0.9304,-0.9304,-0.9304,-0.9304,-0.9304,-0.9304,-0.9304,-0.9304,-0.9304,-0.9304,-0.9304,-0.9304,-0.9304,-0.9304,-0.9304,-0.9304,0.0,0.0,0.0,-0.97,-1.0091,0.0,-1.0912,-1.1624,-1.2264,-1.256,-1.3049,-1.358,-1.4075,-1.4189,-1.4389,-1.4932,-1.5016,-1.5294,-1.6085,-1.6193,-1.6083,-1.5698,-1.5175,-1.4707,-1.4245,-1.3718,-1.3177,-1.2664,-1.2483,-1.1795,-1.0087,-1.0087,-0.963,-0.8587,-0.8587,-0.8587,-0.8587,-0.8587,-0.8587,-0.8587,-0.8587,-0.8587,-0.8587,-0.8587,-0.8587,-0.8587,-0.8587,-0.8587,-0.8587,-0.8587,-0.8587,-0.8587,-0.8587,-0.8587,-0.8587,-0.8587,-0.8587,-0.8587,-0.8587,-0.8587,-0.8587,-0.8587,-0.8587,-0.8587,-0.8587,-0.8587,-0.8587,-0.8587,-0.8587,-0.8587,-0.8587,-0.8587,-0.8587,-0.8587,-0.8587,-0.8587,-0.8587,-0.8598,-0.8606,-0.8606,-0.8696,-0.8812,-0.8948,-0.9063,-0.9171,-0.9285,-0.9304,-0.9304,-0.9304,-0.9304,-0.9304,-0.9304,-0.9304,-0.9304,-0.9304,-0.9304,-0.9304,-0.9304,-0.9304,-0.9304,-0.9304,-0.9304,-0.9304,-0.9304,-0.9304,-0.9304,-0.9304,-0.9304,-0.9304,-0.9304,-0.9304,-0.9304,0.0,0.0,0.0,0.0,-0.9754,0.0,-1.0411,-1.093,-1.1486,-1.1974,-1.2493,-1.2964,-1.3296,-1.3525,-1.3839,-1.437,-1.4455,-1.4733,-1.5535,-1.565,-1.5612,-1.5418,-1.4928,-1.4361,-1.4023,-1.3635,-1.3306,-1.3263,-1.2717,-1.1678,-0.9958,-0.9996,-0.9539,-0.8584,-0.8587,-0.8587,-0.8587,-0.8587,-0.8587,-0.8587,-0.8587,-0.8587,-0.8587,-0.8587,-0.8587,-0.8587,-0.8587,-0.8587,-0.8587,-0.8587,-0.8587,-0.8587,-0.8587,-0.8587,-0.8587,-0.8587,-0.8587,-0.8587,-0.8587,-0.8587,-0.8587,-0.8587,-0.8587,-0.8587,-0.8587,-0.8587,-0.8587,-0.8587,-0.8587,-0.8587,-0.8587,-0.8587,-0.8587,-0.8587,-0.8587,-0.8587,-0.8587,-0.8666,-0.8736,-0.8736,-0.8753,-0.884,-0.9063,-0.912,-0.9171,-0.9285,-0.9304,-0.9304,-0.9304,-0.9304,-0.9304,-0.9304,-0.9304,-0.9304,-0.9304,-0.9304,-0.9304,-0.9304,-0.9304,-0.9304,-0.9304,-0.9304,-0.9304,-0.9304,-0.9304,-0.9304,-0.9304,-0.9304,-0.9304,-0.9304,-0.9304,-0.9304,0.0,0.0,0.0,-0.9448,0.0,0.0,0.0,-1.0441,-1.084,-1.1238,-1.1745,-1.2204,-1.2475,-1.2843,-1.3242,-1.3646,-1.3821,-1.4093,-1.463,-1.5052,-1.5133,-1.4652,-1.3948,-1.3327,-1.2758,-1.2087,-1.1649,-1.1362,-1.1133,-1.0433,-0.908,-0.9676,-0.9514,-0.8584,-0.8587,-0.8587,-0.8587,-0.8587,-0.8587,-0.8587,-0.8587,-0.8587,-0.8587,-0.8587,-0.8587,-0.8587,-0.8587,-0.8587,-0.8587,-0.8587,-0.8587,-0.8587,-0.8587,-0.8587,-0.8587,-0.8587,-0.8587,-0.8587,-0.8587,-0.8587,-0.8587,-0.8587,-0.8587,-0.8587,-0.8587,-0.8587,-0.8587,-0.8587,-0.8587,-0.8587,-0.8587,-0.8587,-0.8587,-0.8587,-0.8633,-0.8679,-0.8679,-0.8774,-0.888,-0.894,-0.8951,-0.8989,-0.9114,-0.9182,-0.9239,-0.9296,-0.9304,-0.9304,-0.9304,-0.9304,-0.9304,-0.9304,-0.9304,-0.9304,-0.9304,-0.9304,-0.9304,-0.9304,-0.9304,-0.9304,-0.9304,-0.9304,-0.9304,-0.9304,-0.9304,-0.9304,-0.9304,-0.9304,-0.9304,-0.9304,-0.9304,-0.9304,0.0,0.0,0.0,0.0,0.0,-0.9598,0.0,0.0,0.0,-1.0526,-1.0997,-1.1455,-1.1721,-1.2155,-1.2554,-1.2783,-1.3079,-1.3338,-1.3501,-1.422,-1.4572,-1.4034,-1.2865,-1.1991,-1.1696,-1.0795,-1.006,-0.953,-0.9803,-0.9522,-0.8405,-0.9328,-0.9475,-0.8552,-0.8576,-0.8587,-0.8587,-0.8587,-0.8587,-0.8587,-0.8587,-0.8587,-0.8587,-0.8587,-0.8587,-0.8587,-0.8587,-0.8587,-0.8587,-0.8587,-0.8587,-0.8587,-0.8587,-0.8587,-0.8587,-0.8587,-0.8587,-0.8587,-0.8587,-0.8587,-0.8587,-0.8587,-0.8587,-0.8587,-0.8587,-0.8587,-0.8587,-0.8587,-0.8587,-0.8587,-0.8587,-0.8587,-0.8592,-0.8617,-0.8698,-0.8777,-0.8799,-0.8902,-0.9016,-0.9114,-0.9152,-0.9166,-0.9166,-0.9242,-0.9304,-0.9304,-0.9304,-0.9304,-0.9304,-0.9304,-0.9304,-0.9304,-0.9304,-0.9304,-0.9304,-0.9304,-0.9304,-0.9304,-0.9304,-0.9304,-0.9304,-0.9304,-0.9304,-0.9304,-0.9304,-0.9304,-0.9304,-0.9304,-0.9304,-0.9304,-0.9304,-0.9304,0.0,0.0,-1.0119,-0.9886,-0.9826,-0.9772,-0.9574,0.0,-0.9922,-0.9952,0.0,-1.0894,-1.1154,0.0,0.0,-1.1709,-1.2125,-1.2379,-1.2174,-1.2843,-1.362,-1.4487,-1.2439,-1.1303,-1.2269,-1.1639,-1.1029,-1.0301,-1.1055,-1.0879,-0.9255,-0.951,-0.9334,-0.8432,-0.8535,-0.8587,-0.8587,-0.8587,-0.8587,-0.8587,-0.8587,-0.8587,-0.8587,-0.8587,-0.8587,-0.8587,-0.8587,-0.8587,-0.8587,-0.8587,-0.8587,-0.8587,-0.8587,-0.8587,-0.8587,-0.8587,-0.8587,-0.8587,-0.8587,-0.8587,-0.8587,-0.8587,-0.8587,-0.8587,-0.8587,-0.8587,-0.8587,-0.8587,-0.8587,-0.8587,-0.8587,-0.8587,-0.8614,-0.8723,-0.8761,-0.8799,-0.8908,-0.9027,-0.9117,-0.913,-0.9217,-0.9283,-0.9283,-0.9296,-0.9304,-0.9304,-0.9304,-0.9304,-0.9304,-0.9304,-0.9304,-0.9304,-0.9304,-0.9304,-0.9304,-0.9304,-0.9304,-0.9304,-0.9304,-0.9304,-0.9304,-0.9304,-0.9304,-0.9304,-0.9304,-0.9304,-0.9304,-0.9304,-0.9304,-0.9304,-0.9304,-0.9304,-0.9468,-0.9281,-0.9181,-0.9461,-0.9547,-0.962,-0.9926,-1.0018,-1.0121,-0.9904,0.0,0.0,0.0,0.0,0.0,0.0,-1.1377,-1.1636,-1.1685,-1.1624,-1.1858,-1.2935,-1.2114,-1.1193,-1.0465,-0.9888,-0.9314,-0.8647,-0.9526,-0.959,-0.8587,-0.8582,-0.852,-0.841,-0.8465,-0.8522,-0.8587,-0.8587,-0.8587,-0.8587,-0.8587,-0.8587,-0.8587,-0.8587,-0.8587,-0.8587,-0.8587,-0.8587,-0.8587,-0.8587,-0.8587,-0.8587,-0.8587,-0.8587,-0.8587,-0.8587,-0.8587,-0.8587,-0.8587,-0.8587,-0.8587,-0.8587,-0.8587,-0.8587,-0.8587,-0.8587,-0.8587,-0.8587,-0.8587,-0.8587,-0.8587,-0.8641,-0.8706,-0.8758,-0.8878,-0.8995,-0.9046,-0.915,-0.9234,-0.9234,-0.9272,-0.9304,-0.9304,-0.9304,-0.9304,-0.9304,-0.9304,-0.9304,-0.9304,-0.9304,-0.9304,-0.9304,-0.9304,-0.9304,-0.9304,-0.9304,-0.9304,-0.9304,-0.9304,-0.9304,-0.9304,-0.9304,-0.9304,-0.9304,-0.9304,-0.9304,-0.9304,-0.9304,-0.9304,-0.9304,-0.9304,-0.9304,-0.8856,-0.8774,-0.8737,-0.9145,-0.9195,-0.93,-0.9871,-1.0014,-0.9991,-0.994,-1.0018,0.0,0.0,0.0,-1.0484,-1.0411,0.0,-1.0918,-1.0979,-1.0642,-1.0843,-1.1805,-1.1978,-1.1269,-0.9403,-0.936,-0.8998,-0.7777,-0.8649,-0.8849,-0.7878,-0.7837,-0.8024,-0.8359,-0.8402,-0.8473,-0.8587,-0.8587,-0.8587,-0.8587,-0.8587,-0.8587,-0.8587,-0.8587,-0.8587,-0.8587,-0.8587,-0.8587,-0.8587,-0.8587,-0.8587,-0.8587,-0.8587,-0.8587,-0.8587,-0.8587,-0.8587,-0.8587,-0.8587,-0.8587,-0.8587,-0.8587,-0.8587,-0.8587,-0.8587,-0.8587,-0.8587,-0.8587,-0.8587,-0.8595,-0.8628,-0.8704,-0.8788,-0.8853,-0.9005,-0.9144,-0.9174,-0.9245,-0.9304,-0.9304,-0.9304,-0.9304,-0.9304,-0.9304,-0.9304,-0.9304,-0.9304,-0.9304,-0.9304,-0.9304,-0.9304,-0.9304,-0.9304,-0.9304,-0.9304,-0.9304,-0.9304,-0.9304,-0.9304,-0.9304,-0.9304,-0.9304,-0.9304,-0.9304,-0.9304,-0.9304,-0.9304,-0.9304,-0.9304,-0.9304,-0.9304,-0.9304,-0.9362,-0.9479,-0.9303,-0.9087,-0.8894,-0.8801,-0.9211,-0.9327,-0.9416,-0.9841,-0.988,-0.988,-0.9874,-0.9886,0.0,0.0,0.0,0.0,0.0,-1.0203,-1.1079,-1.214,-1.1907,-1.1326,-1.0288,-1.1545,-1.1367,-0.9019,-0.9968,-0.9777,-0.7638,-0.7747,-0.7983,-0.8233,-0.8356,-0.8473,-0.8587,-0.8587,-0.8587,-0.8587,-0.8587,-0.8587,-0.8587,-0.8587,-0.8587,-0.8587,-0.8587,-0.8587,-0.8587,-0.8587,-0.8587,-0.8587,-0.8587,-0.8587,-0.8587,-0.8587,-0.8587,-0.8587,-0.8587,-0.8587,-0.8587,-0.8587,-0.8587,-0.8587,-0.8587,-0.8587,-0.8587,-0.8587,-0.8587,-0.8614,-0.8734,-0.8766,-0.8831,-0.9068,-0.9128,-0.9163,-0.9275,-0.9302,-0.9304,-0.9304,-0.9304,-0.9304,-0.9304,-0.9304,-0.9304,-0.9304,-0.9304,-0.9304,-0.9304,-0.9304,-0.9304,-0.9304,-0.9304,-0.9304,-0.9304,-0.9304,-0.9304,-0.9304,-0.9304,-0.9304,-0.9304,-0.9304,-0.9304,-0.9304,-0.9304,-0.9304,-0.9304,-0.9304,-0.9304,-0.9304,-0.9304,-0.9304,-0.7744,-0.7753,-0.7908,-0.8347,-0.8404,-0.8529,-0.9227,-0.9375,-0.9449,-0.968,-0.9768,-0.9818,-1.0122,0.0,0.0,0.0,0.0,0.0,0.0,-1.0119,-1.0725,-1.1431,-1.1128,0.0,-1.0894,-1.0806,-1.0276,-0.905,-0.9273,-0.896,-0.7729,-0.7666,-0.7747,-0.7986,-0.819,-0.8356,-0.8475,-0.8549,-0.8587,-0.8587,-0.8587,-0.8587,-0.8587,-0.8587,-0.8587,-0.8587,-0.8587,-0.8587,-0.8587,-0.8587,-0.8587,-0.8587,-0.8587,-0.8587,-0.8587,-0.8587,-0.8587,-0.8587,-0.8587,-0.8587,-0.8587,-0.8587,-0.8587,-0.8587,-0.8587,-0.8587,-0.8587,-0.8587,-0.8647,-0.8717,-0.8758,-0.8891,-0.9033,-0.9114,-0.9193,-0.9258,-0.9296,-0.9304,-0.9304,-0.9304,-0.9304,-0.9304,-0.9304,-0.9304,-0.9304,-0.9304,-0.9304,-0.9304,-0.9304,-0.9304,-0.9304,-0.9304,-0.9304,-0.9304,-0.9304,-0.9304,-0.9304,-0.9304,-0.9304,-0.9304,-0.9304,-0.9304,-0.9304,-0.9304,-0.9304,-0.9304,-0.9304,-0.9304,-0.9304,-0.9304,-0.9304,-0.9304,-0.7001,-0.7086,-0.7229,-0.776,-0.7844,-0.8088,-0.8815,-0.9334,-0.9696,-0.9537,-1.0062,-1.0345,-0.9794,-0.9961,0.0,0.0,0.0,0.0,0.0,-0.974,-1.0242,-1.0773,0.0,0.0,0.0,0.0,-1.0663,-0.906,-0.9352,-0.8934,-0.7661,-0.7566,-0.7627,-0.7864,-0.8108,-0.8293,-0.8416,-0.853,-0.8587,-0.8587,-0.8587,-0.8587,-0.8587,-0.8587,-0.8587,-0.8587,-0.8587,-0.8587,-0.8587,-0.8587,-0.8587,-0.8587,-0.8587,-0.8587,-0.8587,-0.8587,-0.8587,-0.8587,-0.8587,-0.8587,-0.8587,-0.8587,-0.8587,-0.8587,-0.8587,-0.8587,-0.8595,-0.8641,-0.8709,-0.8791,-0.8878,-0.9016,-0.9144,-0.9185,-0.925,-0.9304,-0.9304,-0.9304,-0.9304,-0.9304,-0.9304,-0.9304,-0.9304,-0.9304,-0.9304,-0.9304,-0.9304,-0.9304,-0.9304,-0.9304,-0.9304,-0.9304,-0.9304,-0.9304,-0.9304,-0.9304,-0.9304,-0.9304,-0.9304,-0.9304,-0.9304,-0.9304,-0.9285,-0.9245,-0.9283,-0.9283,-0.9242,-0.9283,-0.9304,-0.9304,-0.9304,-0.9304]}]]